[[[{"header":{"parameterUnit":"kt","parameterCategory":2,"dx":1,"dy":1,"la1":29.587661999999998,"la2":31.0,"lo1":-88.76705300000003,"lo2":-86.6583820000003,"nx":115,"ny":88,"refTime":"2022-10-05T06:00:00:Z","depth":0,"parameterNumber":1,"parameterNumberName":"U-component_of_WINDS"},"data":[9.9581,9.9581,9.9581,9.9581,9.964,9.964,9.9581,9.9581,9.964,9.9581,9.9756,9.964,9.9581,9.9581,9.9581,9.9581,9.9581,9.9581,9.9581,9.9581,9.9581,9.9581,9.9581,9.9581,9.9581,9.9581,9.9581,9.9581,9.9581,9.9887,10.0248,10.0487,10.0905,10.1203,10.1675,10.1851,10.2027,10.2262,10.2497,10.2497,10.2497,10.1839,10.1898,10.136,10.0702,10.0343,9.9924,9.9026,9.8667,9.8548,9.8727,9.8847,9.8967,9.9026,9.9086,9.9206,9.9146,9.9086,9.8907,9.8488,9.8248,9.8129,9.7351,9.7231,9.7291,9.7291,9.7231,9.6932,9.6513,9.5257,9.4958,9.4778,9.4658,9.4479,9.4419,9.4419,9.4419,9.4419,9.4419,9.4419,9.424,9.3881,9.3761,9.3342,9.3342,9.2983,9.2385,9.2325,9.2086,9.1487,9.0829,9.053,9.0384,8.9425,8.8555,8.8316,8.8496,8.7803,8.7494,8.8027,8.8682,8.9313,9.0086,9.051,9.1291,9.1902,9.2084,9.1992,9.172,9.1205,9.1387,9.1172,9.0312,8.9687,8.9606,9.9581,9.9581,9.9581,9.9581,9.9581,9.9581,9.9581,9.9581,9.9581,9.9581,9.9581,9.9581,9.9581,9.9581,9.9581,9.9581,9.9581,9.9581,9.9581,9.9581,9.9581,9.9581,9.9581,9.9581,9.9581,9.9581,9.9581,9.9581,9.9581,9.9945,10.0307,10.0846,10.1262,10.1381,10.2146,10.2262,10.1904,10.1958,10.1898,10.2198,10.142,10.0343,9.9685,9.9206,9.8907,9.8847,9.8787,9.8607,9.8548,9.8368,9.8069,9.8009,9.8009,9.7889,9.8009,9.7949,9.7889,9.7949,9.8009,9.7231,9.6992,9.6573,9.5496,9.5077,9.5077,9.5077,9.5077,9.5017,9.5017,9.4599,9.4539,9.4419,9.4359,9.4299,9.4299,9.4299,9.4299,9.4299,9.4299,9.4299,9.3641,9.2804,9.2265,9.1547,9.1308,9.1068,9.0829,9.0829,9.0649,9.0051,8.9513,8.9154,8.8946,8.8227,8.7387,8.7415,8.7743,8.7374,8.7664,8.771,8.8179,8.9398,9.0295,9.0871,9.0991,9.1326,9.1597,9.193,9.126,9.0556,9.0495,9.0336,8.9503,8.928,8.8993,9.9581,9.9581,9.9581,9.9581,9.9581,9.9581,9.9581,9.9581,9.9581,9.9581,9.9581,9.9581,9.9581,9.9581,9.9581,9.9581,9.9581,9.9581,9.9581,9.9581,9.9581,9.9523,9.9581,9.9581,9.9407,9.9523,9.9581,9.9647,10.0126,10.0068,10.0311,10.1381,10.1675,10.1789,10.1187,10.13,10.0941,10.0403,10.0163,10.0103,9.9864,9.9385,9.8667,9.8189,9.7949,9.7471,9.7291,9.6633,9.6453,9.6334,9.6453,9.6453,9.6513,9.6513,9.6394,9.6394,9.6453,9.6274,9.6094,9.5795,9.5436,9.5376,9.4718,9.4658,9.4479,9.406,9.406,9.4,9.4,9.3581,9.3522,9.3342,9.3282,9.2923,9.2804,9.2804,9.2804,9.2804,9.2804,9.2744,9.2265,9.1487,9.1188,9.047,9.035,9.0171,8.9572,8.9513,8.9154,8.8615,8.8316,8.7957,8.7687,8.7088,8.6995,8.7228,8.7374,8.7725,8.8014,8.8118,8.8322,8.9543,9.058,9.1348,9.1713,9.1313,9.1007,9.1215,9.0872,9.0054,8.977,8.9463,8.9361,8.9134,8.8029,9.8651,9.8709,9.8942,9.9291,9.9523,9.9581,9.9581,9.9523,9.9291,9.9058,9.9174,9.9407,9.9581,9.9581,9.9581,9.9581,9.9581,9.9581,9.9581,9.9523,9.9058,9.8825,9.9058,9.8418,9.8418,9.8651,9.8651,9.8481,9.8602,9.9254,10.0021,10.049,10.0661,10.0477,10.0103,10.0044,9.9685,9.9026,9.8308,9.753,9.753,9.753,9.753,9.7171,9.6812,9.6154,9.5795,9.5137,9.4778,9.4479,9.4479,9.4479,9.4479,9.4539,9.4539,9.4479,9.4778,9.4898,9.4838,9.4838,9.4718,9.4599,9.4539,9.4479,9.424,9.3761,9.3522,9.3402,9.3222,9.2684,9.2325,9.2086,9.1786,9.1248,9.0829,9.0829,9.0829,9.0829,9.0769,9.059,9.035,9.0171,9.0051,8.9812,8.9752,8.9213,8.8495,8.8136,8.7837,8.7867,8.7567,8.7596,8.7055,8.7142,8.7434,8.758,8.7725,8.8014,8.8157,8.8444,8.8729,8.9341,8.9892,9.1223,9.186,9.0894,9.0404,9.0609,9.0302,8.9545,8.9116,8.887,8.8766,8.8353,8.7074,9.615,9.6208,9.7313,9.8418,9.9465,9.9407,9.9407,9.9465,9.8244,9.7778,9.8011,9.8942,9.9291,9.9,9.9,9.9058,9.8942,9.8942,9.8883,9.9407,9.8302,9.7836,9.7487,9.6789,9.6848,9.6382,9.6266,9.7025,9.6676,9.726,9.7959,9.7484,9.8407,9.8688,9.8787,9.8727,9.8368,9.759,9.6394,9.5496,9.5257,9.5017,9.4778,9.4958,9.4958,9.4778,9.4718,9.4599,9.4479,9.4479,9.4479,9.4359,9.4299,9.418,9.418,9.412,9.3881,9.3881,9.3821,9.3761,9.4,9.412,9.4419,9.4,9.3222,9.2504,9.1966,9.1786,9.1906,9.1487,9.1008,9.0709,9.029,8.9812,8.9513,8.9513,8.9513,8.9513,8.9513,8.9393,8.9154,8.8795,8.8675,8.8376,8.8256,8.7478,8.7,8.7059,8.7088,8.7382,8.7322,8.7409,8.7434,8.7725,8.7869,8.7869,8.8014,8.8157,8.8301,8.8586,8.879,8.8993,8.9257,8.9749,9.0302,8.9749,8.9626,8.9626,8.9442,8.8827,8.8397,8.8213,8.786,8.7321,8.6802,9.5742,9.5859,9.6324,9.6789,9.7197,9.7255,9.7255,9.7138,9.6731,9.6499,9.6557,9.708,9.7255,9.7371,9.7371,9.7371,9.7429,9.7546,9.7487,9.7429,9.6731,9.6557,9.644,9.6091,9.5568,9.5742,9.5801,9.5626,9.6209,9.6498,9.7242,9.7694,9.8211,9.7902,9.753,9.7291,9.6992,9.6094,9.5257,9.4658,9.4599,9.4599,9.4479,9.4599,9.4599,9.4539,9.4539,9.4539,9.4479,9.4479,9.3522,9.3342,9.3282,9.2564,9.2205,9.2325,9.2385,9.2385,9.2445,9.2325,9.2205,9.2086,9.2026,9.2086,9.1547,9.1068,9.0649,9.0231,9.029,9.0231,8.9752,8.9273,8.8795,8.8376,8.8316,8.8316,8.8316,8.8316,8.8256,8.8256,8.8017,8.7658,8.7359,8.694,8.6641,8.6641,8.6641,8.6788,8.6935,8.7288,8.758,8.7664,8.8014,8.8362,8.8301,8.8301,8.8444,8.8648,8.8648,8.879,8.879,8.8993,8.9134,8.9134,8.895,8.9012,8.9012,8.8889,8.8397,8.7967,8.7476,8.7409,8.7266,8.7025,8.7556,9.4637,9.4695,9.5044,9.5219,9.5161,9.4812,9.4637,9.4754,9.5103,9.5219,9.5219,9.5626,9.6033,9.5742,9.5742,9.5801,9.5801,9.5742,9.5684,9.5568,9.551,9.5335,9.5044,9.4695,9.4637,9.4579,9.4694,9.4691,9.4924,9.538,9.6397,9.7304,9.6826,9.6633,9.6214,9.5975,9.5436,9.4898,9.4718,9.4479,9.4479,9.4479,9.4479,9.424,9.406,9.3701,9.3522,9.3402,9.3043,9.3163,9.2325,9.1966,9.1966,9.1188,9.059,9.059,9.053,9.053,9.059,9.059,9.0769,9.0889,8.9872,8.9692,8.9453,8.9333,8.9273,8.8914,8.8795,8.8615,8.8196,8.8017,8.7777,8.7478,8.7359,8.7359,8.7359,8.7359,8.7359,8.7299,8.7299,8.7,8.694,8.6641,8.6788,8.6788,8.6788,8.6935,8.7228,8.7725,8.8014,8.8014,8.8301,8.8586,8.8586,8.8586,8.879,8.887,8.8932,8.8932,8.8809,8.8748,8.9012,8.8766,8.8274,8.8213,8.8213,8.7599,8.6923,8.6554,8.6656,8.6651,8.6871,8.7442,8.7944,9.2078,9.2252,9.3416,9.3939,9.3707,9.2776,9.2252,9.2252,9.3416,9.3939,9.3997,9.5044,9.5277,9.551,9.5568,9.5452,9.5335,9.5393,9.5335,9.5103,9.4288,9.4056,9.359,9.3009,9.2892,9.2654,9.2596,9.3231,9.2866,9.3836,9.4109,9.4366,9.5154,9.5197,9.5017,9.4898,9.4778,9.4599,9.4419,9.4359,9.406,9.418,9.4,9.3522,9.3103,9.2684,9.2325,9.1846,9.1368,9.1008,9.0709,9.0649,9.059,9.053,9.053,9.047,9.029,9.0171,9.0051,8.9931,9.0051,8.9572,8.8256,8.7239,8.7119,8.7478,8.7658,8.7598,8.7598,8.7179,8.694,8.688,8.688,8.676,8.6641,8.6641,8.6641,8.6641,8.6641,8.6641,8.6641,8.6641,8.6641,8.6788,8.6788,8.6935,8.7228,8.7374,8.7725,8.8157,8.8301,8.8444,8.8586,8.887,8.887,8.8932,8.895,8.8196,8.852,8.8336,8.8582,8.852,8.8029,8.7599,8.7353,8.6984,8.6554,8.6063,8.5449,8.5606,8.5758,8.6238,8.8113,8.8597,9.0047,9.1962,9.202,9.2427,9.2601,9.2543,9.2136,9.1962,9.202,9.2369,9.2601,9.2718,9.3067,9.3358,9.3358,9.3299,9.3241,9.3299,9.3299,9.3299,9.3183,9.2776,9.2776,9.2601,9.2252,9.1962,9.202,9.213,9.2239,9.2573,9.307,9.3564,9.3891,9.4377,9.4479,9.4479,9.4479,9.4479,9.4359,9.418,9.4,9.3402,9.3103,9.2863,9.2145,9.1607,9.1248,9.1128,9.0949,9.0649,9.035,8.9931,8.9273,8.8974,8.8615,8.8017,8.8017,8.8017,8.8077,8.8136,8.8196,8.8376,8.8316,8.7359,8.67,8.6641,8.6641,8.6641,8.6641,8.676,8.67,8.676,8.67,8.67,8.67,8.6641,8.6641,8.6641,8.6641,8.6641,8.6641,8.6641,8.6641,8.6641,8.6788,8.7082,8.7374,8.7519,8.7869,8.8157,8.8648,8.8932,8.8809,8.8809,8.8502,8.852,8.852,8.809,8.7722,8.7353,8.6984,8.7169,8.7169,8.6677,8.6186,8.594,8.5633,8.508,8.4856,8.5014,8.5094,8.5611,8.7286,8.9102,9.1026,9.3002,9.1554,9.1962,9.1962,9.1729,9.1322,9.1322,9.1554,9.1903,9.1962,9.1962,9.1962,9.1962,9.1962,9.1962,9.2078,9.2136,9.2078,9.1962,9.1962,9.202,9.2078,9.1962,9.1962,9.202,9.1962,9.1962,9.2297,9.2573,9.2739,9.3564,9.3891,9.4053,9.4318,9.4479,9.4419,9.4479,9.412,9.3881,9.3701,9.3222,9.2086,9.1846,9.1487,9.0769,9.0231,8.9931,8.9872,8.9213,8.8914,8.8795,8.8436,8.7957,8.7777,8.7478,8.682,8.676,8.67,8.6641,8.6641,8.6641,8.6641,8.67,8.6641,8.6641,8.6641,8.6641,8.6641,8.6641,8.6641,8.6641,8.6641,8.6641,8.6641,8.6641,8.6641,8.6641,8.6641,8.6641,8.6641,8.6641,8.6641,8.6641,8.6935,8.7228,8.758,8.7869,8.7427,8.765,8.7608,8.8073,8.8029,8.8029,8.8029,8.7906,8.7599,8.7046,8.6554,8.637,8.6063,8.5756,8.5572,8.551,8.5264,8.5326,8.4834,8.4282,8.4256,8.4151,8.4352,8.553,8.6935,8.8579,9.0717,9.3021,9.4957,9.0682,9.1845,9.1787,9.1031,9.0042,8.9984,9.0624,9.138,9.1496,9.1613,9.1729,9.1962,9.1962,9.1962,9.1962,9.1962,9.1962,9.1962,9.1962,9.1962,9.213,9.213,9.213,9.213,9.2297,9.2297,9.2631,9.307,9.3235,9.3891,9.4156,9.4318,9.4079,9.406,9.4299,9.4299,9.3701,9.2684,9.2504,9.1727,9.0829,9.053,9.035,8.9752,8.9034,8.8615,8.8436,8.7837,8.7538,8.7418,8.7119,8.7,8.694,8.676,8.6641,8.6641,8.6641,8.6641,8.6641,8.6641,8.6641,8.6641,8.6641,8.6641,8.6641,8.6641,8.6641,8.6641,8.6641,8.6641,8.6641,8.6641,8.6641,8.6641,8.6641,8.6641,8.6641,8.6641,8.6641,8.6641,8.6788,8.6788,8.7228,8.7519,8.7748,8.757,8.7259,8.6908,8.6601,8.6554,8.6124,8.6124,8.6186,8.6186,8.6247,8.5633,8.5203,8.5019,8.4834,8.4527,8.4282,8.3913,8.4036,8.4466,8.4117,8.3712,8.3536,8.354,8.4816,8.6092,8.7822,8.9741,9.2413,9.4582,9.6003,8.8879,8.917,8.9228,8.8995,8.8646,8.8646,8.8879,8.917,8.9286,8.9693,9.0682,9.1613,9.1962,9.1962,9.1962,9.1903,9.1845,9.1962,9.213,9.2297,9.2465,9.2573,9.2739,9.2905,9.2798,9.2964,9.3235,9.34,9.3727,9.3891,9.4037,9.384,9.3581,9.2624,9.2205,9.1727,9.1547,9.1248,9.1068,9.053,8.9393,8.9305,8.9126,8.7957,8.7658,8.7359,8.7179,8.7148,8.6788,8.6641,8.6641,8.6641,8.6641,8.6641,8.6641,8.6641,8.6641,8.6641,8.6641,8.6641,8.6641,8.6282,8.6401,8.6401,8.6641,8.6641,8.6282,8.6401,8.6461,8.6641,8.6641,8.6341,8.6222,8.5982,8.6042,8.5982,8.6042,8.6069,8.6189,8.6309,8.6548,8.6635,8.6806,8.6915,8.686,8.6263,8.6049,8.594,8.551,8.4957,8.4466,8.4343,8.4404,8.4589,8.4834,8.4466,8.4097,8.3851,8.3483,8.3237,8.2807,8.2009,8.1947,8.2822,8.3344,8.3165,8.3649,8.4661,8.5605,8.6772,8.8217,8.9882,9.2452,9.4452,9.6117,8.7599,8.7948,8.6959,8.6901,8.7308,8.7308,8.7599,8.8006,8.8064,8.8588,8.9344,9.0042,9.0449,9.0566,9.0798,9.1205,9.1372,9.178,9.2406,9.2739,9.2905,9.307,9.3235,9.3235,9.3341,9.3235,9.34,9.3727,9.3772,9.4053,9.3959,9.2824,9.2145,9.1248,9.1198,9.1385,9.1658,9.1653,9.1582,9.0443,8.9264,8.8607,8.8011,8.6848,8.6641,8.6641,8.6581,8.6788,8.6788,8.6788,8.6788,8.6788,8.6788,8.6641,8.6641,8.6641,8.6641,8.6641,8.6641,8.5683,8.5205,8.5205,8.5205,8.5085,8.4905,8.5085,8.5145,8.5205,8.4965,8.4846,8.5145,8.5205,8.5384,8.5205,8.5085,8.4965,8.493,8.4894,8.4834,8.4714,8.5278,8.5819,8.6107,8.6211,8.5498,8.5006,8.5019,8.4773,8.4159,8.3544,8.293,8.2684,8.2623,8.2807,8.2807,8.2869,8.2991,8.2561,8.2131,8.1947,8.164,8.1031,8.1351,8.1603,8.2166,8.3211,8.434,8.5523,8.6772,8.789,8.914,9.0316,9.2011,9.4149,9.5135,8.6727,8.7599,8.5214,8.4982,8.6029,8.6029,8.6668,8.7425,8.7599,8.7657,8.789,8.8006,8.8342,8.8633,8.9624,9.0196,9.0464,9.1753,9.2199,9.2645,9.3104,9.2868,9.3031,9.2972,9.3031,9.3209,9.2897,9.3118,9.3577,9.3362,9.2227,9.0984,9.0991,9.0717,9.0753,9.1252,9.1983,9.2195,9.2086,9.0982,8.9803,8.8729,8.8301,8.7228,8.6668,8.6461,8.6608,8.648,8.63,8.6009,8.624,8.624,8.5914,8.5829,8.5829,8.5829,8.5829,8.5829,8.5589,8.4451,8.317,8.2871,8.305,8.3409,8.3529,8.311,8.2931,8.329,8.3589,8.335,8.317,8.2931,8.3469,8.3589,8.3828,8.3828,8.3911,8.3753,8.3594,8.3373,8.3693,8.4516,8.4916,8.4203,8.3585,8.3412,8.3421,8.3299,8.2684,8.2377,8.1701,8.1456,8.1333,8.121,8.1149,8.1462,8.2083,8.196,8.1841,8.1405,8.1224,8.1477,8.1979,8.2289,8.3022,8.3914,8.4957,8.6341,8.7786,8.9034,8.9728,9.0233,9.1595,9.3094,9.3843,8.4865,8.5156,8.4516,8.44,8.4691,8.4691,8.4923,8.5214,8.5272,8.5796,8.6378,8.6927,8.7827,8.8807,8.91,8.9335,8.9495,8.9847,9.0285,9.0603,9.088,9.1573,9.2089,9.183,9.189,9.2665,9.2069,9.145,9.145,9.1308,9.0744,8.9213,9.0174,9.019,9.0036,9.0843,9.1738,9.1853,9.1853,9.1403,9.0288,8.9402,8.8643,8.7752,8.6613,8.5434,8.517,8.4857,8.4397,8.4315,8.4517,8.4779,8.4719,8.4698,8.4496,8.4496,8.4271,8.4353,8.4156,8.3794,8.3293,8.3033,8.3033,8.2452,8.2572,8.2811,8.2811,8.2512,8.2512,8.2572,8.2811,8.2691,8.2452,8.2392,8.2452,8.2751,8.2811,8.2992,8.2969,8.2805,8.3018,8.3534,8.3256,8.2544,8.2185,8.207,8.1824,8.1701,8.1456,8.1333,8.1026,8.1087,8.1026,8.1026,8.0964,8.1092,8.1286,8.1601,8.1727,8.1729,8.2104,8.2412,8.2657,8.3263,8.3977,8.4843,8.5968,8.7369,8.8836,8.9329,8.9757,9.0154,9.0659,9.1781,9.2738,8.376,8.4225,8.4225,8.4225,8.4225,8.4379,8.4591,8.4591,8.4745,8.5096,8.5835,8.6107,8.6613,8.7415,8.8337,8.8514,8.8789,8.9321,8.9812,9.0244,9.0459,9.0913,9.1368,9.1008,9.0829,9.1427,9.0889,8.9752,8.8016,8.8011,8.8693,8.8257,8.9706,9.0347,9.0313,9.1356,9.1758,9.2019,9.2345,9.2281,9.0999,8.9714,8.8546,8.8084,8.611,8.5453,8.5055,8.4187,8.3729,8.353,8.3668,8.3806,8.3668,8.3668,8.353,8.3391,8.3173,8.3011,8.2881,8.2547,8.1927,8.1609,8.1369,8.1334,8.1076,8.0956,8.0956,8.1136,8.1076,8.1016,8.0956,8.1076,8.1076,8.1016,8.0794,8.1051,8.1188,8.1641,8.2215,8.2169,8.2256,8.2218,8.1993,8.1633,8.1517,8.1394,8.1333,8.121,8.1026,8.0841,8.0841,8.0841,8.0841,8.0969,8.0969,8.1224,8.1603,8.1854,8.1979,8.2412,8.2779,8.3263,8.3622,8.4095,8.4907,8.5968,8.6946,8.8059,8.8935,8.9329,8.9785,8.9949,9.0154,9.1069,9.1411,8.2257,8.3453,8.3453,8.3723,8.3935,8.4452,8.4722,8.505,8.5354,8.5505,8.553,8.5564,8.5774,8.6129,8.7015,8.7617,8.8067,8.8815,8.9326,8.942,8.9692,8.9872,9.029,9.0231,8.9812,8.9692,8.9572,8.7119,8.5769,8.6475,8.6997,8.786,8.9754,9.0837,9.0787,9.2025,9.3043,9.3099,9.3959,9.3492,9.1659,8.9822,8.8695,8.7694,8.6297,8.5262,8.4998,8.423,8.3439,8.329,8.3548,8.3791,8.3701,8.3701,8.3564,8.3624,8.3366,8.2942,8.2,8.1428,8.0931,8.0266,7.9831,7.9264,7.949,7.9416,7.9221,7.8802,7.8922,7.9161,7.9281,7.8982,7.8862,7.9176,7.967,7.9624,7.9831,8.0823,8.0907,8.1049,8.1424,8.1319,8.1204,8.1087,8.0841,8.0841,8.0841,8.0903,8.0841,8.0841,8.0841,8.0969,8.0969,8.1224,8.1351,8.1729,8.2104,8.2351,8.2535,8.3022,8.3383,8.3805,8.4212,8.5022,8.6033,8.7012,8.7957,8.8568,8.9034,8.9427,8.9785,8.9785,8.9881,8.9785,9.0154,7.7915,7.9219,7.9219,8.082,8.2957,8.3374,8.4052,8.5236,8.5387,8.5387,8.5505,8.5747,8.5897,8.6165,8.6493,8.6911,8.6911,8.715,8.7658,8.7718,8.7718,8.8136,8.8436,8.8136,8.7658,8.7777,8.688,8.5863,8.5314,8.625,8.7367,8.8384,8.9986,9.092,9.1255,9.2244,9.2564,9.2522,9.2408,9.257,9.1963,9.0562,8.9279,8.8975,8.7037,8.5233,8.4287,8.3409,8.2464,8.1687,8.1547,8.1923,8.2911,8.2828,8.2828,8.3095,8.3095,8.2299,8.1503,8.0744,8.0542,7.9996,7.9865,7.9794,7.9662,7.9336,7.907,7.8936,7.8936,7.907,7.8936,7.8802,7.8936,7.9203,7.9336,7.9469,7.9733,8.0127,8.0326,8.0455,8.0713,8.0964,8.1026,8.0841,8.0841,8.0841,8.0841,8.0841,8.0841,8.0841,8.0969,8.0969,8.1224,8.1477,8.1854,8.2228,8.2597,8.2964,8.3326,8.3741,8.4159,8.4393,8.5086,8.57,8.6863,8.7853,8.8836,8.9689,8.9717,8.9812,8.9881,8.9881,9.0071,9.0166,8.9908,7.5925,7.741,7.741,7.8266,7.9599,8.0171,8.1123,8.2456,8.2964,8.3763,8.4829,8.5303,8.5748,8.6225,8.6641,8.6641,8.6641,8.6641,8.6641,8.6641,8.6641,8.7119,8.7418,8.7059,8.67,8.6102,8.4726,8.4233,8.4758,8.5514,8.6573,8.8063,9.0044,9.0977,9.1423,9.188,9.2078,9.2153,9.1756,9.1602,9.1072,9.0519,8.9458,8.8662,8.7068,8.5473,8.4086,8.3027,8.1917,8.0964,8.1197,8.2062,8.286,8.3412,8.3707,8.3902,8.3707,8.3095,8.2062,8.1625,8.0875,8.0448,8.0196,7.9996,7.9925,7.9794,7.9469,7.9336,7.9469,7.9469,7.9336,7.9336,7.9336,7.9601,7.9733,7.9804,8.0066,8.0326,8.0455,8.0584,8.0713,8.0841,8.0841,8.0841,8.0841,8.0841,8.0841,8.0841,8.0841,8.0969,8.1097,8.1224,8.1603,8.1854,8.2289,8.2842,8.3326,8.3566,8.3923,8.4626,8.4972,8.5314,8.5877,8.6689,8.7645,8.8668,8.962,9.0097,9.0378,9.0471,9.0471,9.054,9.054,9.0378,9.0054,7.4212,7.5714,7.5714,7.598,7.6146,7.6976,7.8214,7.9324,8.0059,8.1704,8.4163,8.4078,8.4675,8.5623,8.5982,8.5982,8.5743,8.5982,8.6162,8.6162,8.6581,8.6641,8.688,8.6641,8.6282,8.5564,8.4128,8.3071,8.3378,8.4284,8.5733,8.7286,8.9387,9.0583,9.0795,9.1002,9.1093,9.0585,9.0627,9.0228,8.9804,8.9405,8.9112,8.8312,8.7367,8.6119,8.4907,8.3741,8.2535,8.1475,8.2323,8.2807,8.3237,8.4527,8.4834,8.4527,8.3891,8.3217,8.2377,8.2115,8.1495,8.0692,8.0196,7.9935,7.9996,7.9865,7.9733,7.9733,8.0057,7.9925,7.9925,7.9794,7.9925,7.9996,8.0127,8.0196,8.0455,8.0584,8.0841,8.0713,8.0841,8.0841,8.0841,8.0841,8.0841,8.0841,8.0841,8.0841,8.1097,8.1224,8.1227,8.1543,8.1854,8.2287,8.2712,8.3193,8.3732,8.3903,8.4393,8.4972,8.5379,8.5765,8.6905,8.7993,8.8899,8.9649,9.0097,9.0563,9.0838,9.0838,9.1108,9.1287,9.1148,9.094,9.0514,7.0045,7.1551,7.1551,7.3225,7.5481,7.5744,7.7306,7.9506,7.9082,7.9917,8.2481,8.1702,8.2227,8.3327,8.3589,8.3469,8.3769,8.4427,8.5025,8.5145,8.5803,8.6162,8.6222,8.6042,8.5444,8.3529,8.2871,8.2913,8.3245,8.4123,8.5357,8.6998,8.8734,8.9501,8.9569,8.9702,8.9522,8.8912,8.8845,8.8684,8.8625,8.8559,8.8595,8.8193,8.7779,8.7185,8.6033,8.4843,8.3677,8.2597,8.2839,8.3,8.3544,8.4957,8.5817,8.3237,8.293,8.2062,8.121,8.0836,8.0707,8.0836,7.9944,7.9683,7.9944,7.937,7.9299,7.9683,7.9996,7.9662,7.9925,7.9925,7.9996,8.0196,8.0196,8.0455,8.0713,8.0841,8.0841,8.0841,8.0841,8.0657,8.0657,8.0534,8.0719,8.0841,8.0841,8.0969,8.1477,8.1667,8.1604,8.1663,8.1656,8.1892,8.2487,8.3019,8.3688,8.3996,8.4446,8.4857,8.5151,8.6209,8.7541,8.8899,8.9866,9.0494,9.0928,9.1108,9.1198,9.1267,9.1444,9.1638,9.1532,9.1353,9.057,6.8942,6.9674,6.983,7.0772,7.1876,7.2239,7.3585,7.5034,7.4843,7.683,7.9656,7.9773,8.0818,8.267,8.2811,8.2811,8.2991,8.3469,8.3709,8.3888,8.4247,8.4666,8.4606,8.4427,8.4187,8.2991,8.2153,8.27,8.3412,8.3903,8.4793,8.6844,8.7655,8.8314,8.8526,8.8673,8.8379,8.7987,8.8023,8.809,8.8193,8.8296,8.8296,8.8296,8.8193,8.7712,8.6581,8.5298,8.4031,8.3094,8.2906,8.2439,8.1579,8.2561,8.2193,8.0289,7.9674,7.9244,7.8873,7.8316,7.8119,7.7875,7.6978,7.6849,7.6779,7.7306,7.7473,7.8049,7.847,7.895,7.9469,7.9804,8.0387,8.0584,8.0584,8.0713,8.0841,8.0841,8.0841,8.0841,8.0657,8.0411,8.0043,7.9674,7.9674,7.9496,7.9496,7.9681,8.0294,8.0662,8.0897,8.1317,8.1364,8.1598,8.224,8.279,8.3518,8.4033,8.4664,8.5086,8.5309,8.6615,8.8063,8.9126,9.0172,9.0859,9.0994,9.1638,9.1724,9.1532,9.1478,9.1927,9.1801,9.1044,9.0203,6.8784,6.8942,6.931,6.9257,6.8942,6.9257,7.0194,7.1425,7.1425,7.3786,7.6763,7.7514,7.9013,8.1233,8.1535,8.1973,8.1734,8.1794,8.2213,8.2332,8.2632,8.2632,8.1973,8.1973,8.1914,8.1614,8.0777,8.1648,8.3223,8.3225,8.4148,8.645,8.7151,8.7463,8.795,8.8016,8.809,8.8193,8.8193,8.8193,8.8296,8.8296,8.8296,8.8296,8.8296,8.7712,8.6797,8.541,8.4265,8.3757,8.3165,8.1973,8.03,8.0357,7.9551,7.7893,7.734,7.7524,7.7279,7.702,7.6324,7.6686,7.5897,7.4338,7.4352,7.5296,7.5458,7.5607,7.6257,7.7014,7.7678,7.8963,7.9538,8.0038,8.0289,8.01,7.9727,7.9732,7.9736,7.9797,7.9736,7.9613,7.8754,7.8755,7.8569,7.8184,7.8173,7.8284,7.8643,7.9181,7.9717,8.0493,8.0784,8.1168,8.1813,8.2504,8.3196,8.384,8.4763,8.5428,8.5715,8.682,8.7265,8.8454,8.9919,9.0195,9.0025,9.0611,9.0528,9.1068,9.1301,9.0869,9.0436,9.0436,8.9744,6.8995,6.9414,6.9414,6.9467,6.9257,6.9414,7.0141,7.1218,7.0296,7.1577,7.4079,7.4607,7.5816,7.7119,7.8819,7.9205,7.9205,7.9504,8.0119,8.1076,8.1734,8.1435,7.9819,7.97,7.964,7.952,7.9161,8.0309,8.1977,8.3027,8.4084,8.5857,8.7291,8.7712,8.792,8.8023,8.8193,8.8296,8.8296,8.8296,8.8296,8.8296,8.8296,8.8296,8.8296,8.809,8.7502,8.5968,8.5006,8.6033,8.3987,8.1966,8.0411,7.9311,7.8324,7.7094,7.7586,7.8323,7.8441,7.8038,7.8362,7.7665,7.6304,7.5733,7.4996,7.4473,7.4221,7.4074,7.4188,7.4588,7.5041,7.552,7.6888,7.8312,7.8873,7.7945,7.6777,7.6725,7.7217,7.7217,7.7279,7.7461,7.7701,7.7879,7.7873,7.7398,7.7628,7.7983,7.8691,7.8804,7.9268,7.9968,8.0464,8.0832,8.1346,8.1973,8.2488,8.3132,8.3923,8.4441,8.4843,8.618,8.6628,8.7179,8.8459,8.8964,8.9172,8.8971,8.869,8.9059,8.9763,8.934,8.8777,8.9059,8.9356,7.0047,6.91,6.9257,6.9414,6.9414,6.9414,6.9727,7.0141,6.9727,7.0758,7.2373,7.2617,7.3708,7.5585,7.6908,7.746,7.793,7.8533,7.9101,7.976,8.0298,7.9939,7.9101,7.907,7.907,7.9143,7.9743,8.0974,8.2349,8.3614,8.5185,8.6581,8.7502,8.792,8.809,8.8193,8.8296,8.8296,8.8296,8.8296,8.8296,8.8296,8.8296,8.8296,8.8296,8.8296,8.809,8.6581,8.5465,8.4702,8.2867,8.0576,7.8571,7.7945,7.7033,7.5866,7.691,7.7337,7.6959,7.6308,7.5753,7.5072,7.379,7.2893,7.2859,7.318,7.3187,7.2997,7.3054,7.3407,7.3774,7.3648,7.4377,7.5588,7.5798,7.562,7.5547,7.6052,7.6604,7.6787,7.6726,7.6783,7.6512,7.645,7.6657,7.6723,7.6995,7.7708,7.8595,7.8833,7.9244,7.9886,8.051,8.0382,8.0814,8.0363,8.0556,8.1329,8.2048,8.2376,8.358,8.574,8.6368,8.7067,8.746,8.7909,8.8268,8.8347,8.7721,8.744,8.8003,8.8073,8.801,8.808,8.8531,7.0575,6.9572,6.9415,6.9414,6.9414,6.9414,6.9414,6.9414,6.9414,7.0198,7.1551,7.1958,7.3225,7.4654,7.6103,7.6862,7.7302,7.8203,7.8802,7.8742,7.8742,7.8876,7.8876,7.9336,7.9469,7.9601,8.0326,8.1792,8.3376,8.4265,8.5811,8.7607,8.7816,8.809,8.8193,8.8193,8.8296,8.8296,8.8296,8.8296,8.8296,8.8296,8.8296,8.8296,8.8296,8.8296,8.8193,8.7397,8.6376,8.5107,8.2423,7.9527,7.8071,7.6878,7.6111,7.5804,7.6664,7.6908,7.5963,7.5362,7.4351,7.3213,7.2762,7.1381,7.1212,7.2002,7.2228,7.2002,7.2002,7.2141,7.2378,7.2173,7.1878,7.2372,7.2346,7.249,7.3352,7.471,7.5743,7.5681,7.5978,7.5953,7.5729,7.5643,7.5729,7.5908,7.5995,7.6463,7.7382,7.781,7.7874,7.9075,7.9848,7.9848,7.9719,7.9011,7.8946,7.9912,8.06,8.1072,8.2367,8.449,8.5521,8.6371,8.5943,8.5809,8.6378,8.7017,8.6806,8.6102,8.6243,8.6032,8.6248,8.6676,8.6975,7.0469,7.1423,7.0047,6.9256,6.9309,6.9309,6.9361,6.9414,6.9414,7.0099,7.1211,7.2314,7.32,7.4124,7.6205,7.6935,7.6885,7.7871,7.8473,7.8802,7.907,7.9336,7.9336,7.9601,7.9794,7.9925,8.0257,8.1667,8.3914,8.4497,8.5523,8.7883,8.8193,8.8193,8.8193,8.8296,8.8296,8.8296,8.8296,8.8296,8.8398,8.8296,8.8296,8.8398,8.8398,8.8296,8.8296,8.8193,8.8126,8.7349,8.3327,8.0537,7.9363,7.6729,7.5681,7.6603,7.7954,7.7697,7.7228,7.642,7.605,7.4862,7.3759,7.3582,7.2228,7.2115,7.1946,7.1268,7.093,7.0422,7.0098,7.0124,6.9964,6.9055,6.9315,6.9445,6.953,7.1686,7.3058,7.3402,7.4068,7.4894,7.5222,7.533,7.5697,7.5864,7.6138,7.6395,7.695,7.7208,7.6757,7.7208,7.8174,7.8624,7.9719,7.9183,7.9073,7.9845,8.0291,8.0326,8.0822,8.2348,8.363,8.3841,8.3841,8.3775,8.399,8.4483,8.4553,8.4764,8.4483,8.3779,8.3993,8.4557,8.5133,7.0397,6.9814,6.8541,6.8282,6.8614,6.8667,6.8884,6.9361,6.9414,6.9678,7.0311,7.1422,7.1843,7.2038,7.4013,7.5275,7.55,7.671,7.7871,7.901,7.9469,7.9601,7.9794,7.9794,8.0057,8.0387,8.1792,8.308,8.4148,8.5635,8.7012,8.7883,8.8193,8.8296,8.8296,8.8296,8.8296,8.8296,8.8296,8.8601,8.9034,8.9231,8.9231,8.9231,8.9231,8.8836,8.8296,8.8836,8.9231,8.8493,8.5047,8.1465,7.8903,7.6469,7.5436,7.6603,7.7156,7.678,7.5253,7.5266,7.4451,7.2926,7.2228,7.172,7.1438,7.1325,7.1663,7.1551,7.1099,7.0704,7.0873,7.0779,6.9494,6.7748,6.7639,6.7919,6.8859,7.048,7.1681,7.2617,7.3191,7.3653,7.4209,7.4634,7.5356,7.5237,7.5791,7.6499,7.7465,7.7594,7.8431,7.8817,7.8238,7.8367,7.9333,7.9461,7.922,7.9331,7.9663,7.9555,7.9048,8.0391,8.1498,8.1701,8.2362,8.2291,8.2582,8.2793,8.2723,8.3356,8.3638,8.3075,8.2793,8.3218,8.3363,7.0687,6.9521,6.8188,6.773,6.7847,6.79,6.8176,6.8614,6.8936,6.9254,6.9782,7.0627,7.1052,7.1311,7.2572,7.4136,7.4984,7.5443,7.6908,7.8742,7.9336,7.9601,7.9996,8.0127,8.0257,8.078,8.2349,8.3439,8.4381,8.5857,8.733,8.792,8.8193,8.8296,8.8296,8.8296,8.8296,8.8296,8.8601,8.9034,8.9717,9.0029,9.0216,9.0216,9.0216,8.9934,8.9164,8.898,8.9335,8.9744,8.6068,8.225,7.8667,7.6321,7.5911,7.6663,7.6787,7.5926,7.4092,7.3632,7.29,7.1086,7.0591,7.0535,7.0535,7.0591,7.0986,7.1551,7.1156,7.0648,7.1099,7.0478,6.9429,6.7922,6.7696,6.822,6.8732,6.9554,7.0602,7.1739,7.2786,7.332,7.3848,7.4909,7.5567,7.534,7.5791,7.6564,7.7465,7.753,7.8302,7.8946,7.9075,7.856,7.8492,7.8287,7.7908,7.7727,7.8393,7.8712,7.8082,7.84,7.9277,7.9962,8.0579,8.1092,8.1524,8.1526,8.1315,8.1596,8.1737,8.1878,8.1948,8.2021,8.2093,7.1326,7.0741,6.9521,6.8027,6.7075,6.7021,6.7021,6.745,6.806,6.8815,6.9719,7.0734,7.1316,7.2108,7.2727,7.3969,7.4813,7.4555,7.5753,7.8024,7.8683,7.9409,8.0326,8.0584,8.0713,8.0841,8.0969,8.2226,8.4433,8.4957,8.6188,8.7883,8.8193,8.8296,8.8296,8.8296,8.8296,8.8601,8.9231,8.9744,8.9934,9.07,9.1148,9.1148,9.1167,9.094,9.087,8.8799,8.843,8.913,8.6029,8.225,7.8944,7.6979,7.6542,7.6598,7.6664,7.562,7.3914,7.3408,7.2375,7.0552,7.0366,7.0083,6.9858,6.9971,7.014,7.0309,7.0253,7.0083,6.9429,6.9034,6.9019,6.9552,6.9209,6.8882,6.8581,6.8478,6.9054,7.0664,7.2495,7.4187,7.4562,7.5271,7.5905,7.5816,7.6113,7.6499,7.6692,7.6757,7.6499,7.6628,7.7079,7.7571,7.734,7.7132,7.6612,7.6345,7.714,7.7765,7.7041,7.7542,7.856,7.8482,7.9243,7.9757,8.0115,8.0188,7.9977,7.9836,7.9414,7.9484,7.9977,8.0469,8.0678,7.0857,6.9331,6.7788,6.6885,6.6274,6.6506,6.6993,6.7461,6.7985,6.8363,6.8903,6.9833,7.0038,6.9959,7.1414,7.2526,7.2926,7.3332,7.4795,7.7161,7.859,7.9673,8.0584,8.0841,8.0841,8.0841,8.0841,8.2103,8.4317,8.541,8.6689,8.8193,8.8296,8.8296,8.8296,8.8296,8.8635,8.9231,8.962,9.0426,9.1585,9.1927,9.2095,9.2039,9.1683,9.0931,8.987,8.9502,8.9308,8.8747,8.6424,8.3662,8.0903,7.7208,7.5229,7.5428,7.4637,7.3193,7.1423,7.1048,7.0219,6.8319,6.8052,6.7657,6.6924,6.6867,6.7451,6.8149,6.8508,6.9246,6.9913,6.9115,6.8277,6.8351,6.8481,6.8438,6.835,6.842,6.8859,6.9679,7.1205,7.218,7.2965,7.4291,7.4995,7.4916,7.5855,7.6306,7.6371,7.6371,7.6371,7.6371,7.6242,7.6345,7.6534,7.6052,7.5246,7.5127,7.5759,7.6145,7.6312,7.7455,7.8133,7.7615,7.7766,7.8349,7.8568,7.8781,7.885,7.885,7.8358,7.7865,7.8356,7.8914,7.9314,6.9842,6.8364,6.7019,6.5975,6.5509,6.5733,6.6224,6.6791,6.7368,6.7675,6.8036,6.8931,6.904,6.8672,7.006,7.0676,7.0825,7.1573,7.3249,7.506,7.6625,7.783,7.8861,7.9241,7.9367,7.949,7.992,8.1665,8.4369,8.541,8.6581,8.7987,8.8296,8.8296,8.8296,8.8296,8.8534,8.9231,8.9934,9.079,9.1927,9.2671,9.2424,9.1362,9.0397,8.969,8.919,8.8668,8.837,8.8026,8.5777,8.369,8.1786,7.7611,7.48,7.4133,7.3347,7.1978,7.0177,6.9808,6.8762,6.6563,6.6246,6.5867,6.4793,6.4637,6.5046,6.6095,6.6551,6.7664,6.9127,6.8912,6.835,6.835,6.835,6.8478,6.8605,6.8605,6.8732,6.8986,6.9554,7.0785,7.2326,7.3622,7.4525,7.507,7.5791,7.6242,7.6371,7.6371,7.6113,7.5791,7.5701,7.5813,7.5958,7.4877,7.4138,7.3982,7.3997,7.4373,7.4043,7.4804,7.5613,7.5031,7.5339,7.5836,7.5905,7.6115,7.6527,7.6668,7.6735,7.6524,7.7161,7.7072,7.7595,6.8474,6.8112,6.7019,6.5872,6.4834,6.4834,6.5107,6.5654,6.6314,6.6752,6.7196,6.7904,6.8541,6.9083,6.8828,6.8729,6.8977,6.9914,7.1166,7.2384,7.3297,7.4281,7.5487,7.6297,7.6849,7.7279,7.8323,8.0481,8.3636,8.4291,8.5661,8.7756,8.7792,8.7961,8.7894,8.7827,8.8028,8.8295,8.976,9.0889,9.1306,9.2707,9.1971,8.9404,8.7763,8.7692,8.8406,8.6833,8.5998,8.6584,8.4352,8.2699,8.1753,7.8283,7.5208,7.348,7.2909,7.1857,7.0177,6.9572,6.8238,6.5798,6.5189,6.4693,6.3627,6.3457,6.3759,6.4125,6.5157,6.5912,6.687,6.7805,6.8627,6.8859,6.8986,6.8986,6.9044,6.8986,6.8986,6.8986,6.9112,6.9932,7.2086,7.3632,7.4734,7.5864,7.6306,7.6242,7.6177,7.6113,7.5533,7.4733,7.4354,7.4425,7.42,7.3206,7.2719,7.2716,7.2625,7.2523,7.1635,7.1215,7.1886,7.2469,7.3533,7.3949,7.3463,7.3671,7.4564,7.4833,7.5039,7.5034,7.5528,7.5291,7.5897,6.7838,6.7019,6.6691,6.6011,6.5188,6.5672,6.594,6.6051,6.6597,6.6843,6.6899,6.7235,6.7347,6.7559,6.7411,6.7375,6.7544,6.8673,6.9913,7.0903,7.2169,7.3632,7.5361,7.5677,7.6174,7.6727,7.7156,7.7891,7.8984,8.0557,8.2225,8.3732,8.478,8.5078,8.5145,8.5078,8.5787,8.6944,8.7405,8.8487,8.9587,9.0257,8.9547,8.7692,8.7121,8.655,8.5908,8.6271,8.6833,8.7329,8.4235,8.2993,8.4014,7.8896,7.559,7.5144,7.2884,7.0885,6.9872,6.8097,6.6431,6.5273,6.441,6.3514,6.2613,6.2392,6.2807,6.3045,6.2797,6.3182,6.4224,6.6284,6.7997,6.8869,6.8986,6.8986,6.8986,6.8986,6.8986,6.8986,6.8986,6.9363,7.0173,7.1974,7.4077,7.5823,7.6242,7.6113,7.5147,7.4825,7.4411,7.3156,7.2996,7.263,7.1504,7.1065,7.08,7.0951,7.185,7.1952,7.1633,7.2762,7.353,7.3115,7.3595,7.3932,7.3802,7.3869,7.4415,7.4469,7.4597,7.4732,7.4456,7.4707,7.5186,6.4998,6.4343,6.4343,6.4095,6.3836,6.4307,6.4977,6.5555,6.5873,6.6285,6.6811,6.6359,6.6416,6.6867,6.6867,6.6867,6.6924,6.7657,6.8395,6.9054,7.0137,7.1527,7.3053,7.3427,7.4164,7.519,7.5743,7.5989,7.6529,7.8931,8.1162,8.2913,8.3578,8.4035,8.4035,8.4035,8.4663,8.5971,8.6331,8.669,8.7196,8.7335,8.6835,8.6051,8.5979,8.548,8.4766,8.5408,8.5633,8.4905,8.2679,8.1393,8.1573,7.7874,7.5533,7.5147,7.3337,7.1399,6.9225,6.7212,6.5326,6.3606,6.305,6.2385,6.1427,6.1021,6.1256,6.1953,6.1655,6.1811,6.3146,6.5077,6.6543,6.7299,6.7881,6.8171,6.823,6.8695,6.8986,6.8986,6.8986,6.8986,6.9363,7.1145,7.3333,7.5014,7.4889,7.4246,7.3602,7.3408,7.2864,7.1897,7.1341,7.0929,7.0983,7.02,7.0448,7.1252,7.1955,7.2179,7.24,7.3393,7.4204,7.4274,7.4204,7.4204,7.4209,7.4274,7.4269,7.4399,7.4519,7.4582,7.4645,7.4931,7.5471,6.1175,6.1194,6.1413,6.1377,6.1705,6.207,6.3118,6.4268,6.4508,6.5255,6.6303,6.5513,6.5682,6.6641,6.6811,6.6867,6.6924,6.6867,6.6924,6.7055,6.785,6.8743,6.9862,7.0783,7.1742,7.2808,7.4146,7.4698,7.4878,7.8057,8.0812,8.3012,8.3469,8.3498,8.3566,8.3595,8.4002,8.483,8.5815,8.5647,8.4627,8.4552,8.4552,8.4552,8.4552,8.4552,8.4552,8.4409,8.3427,8.1316,8.0375,7.8768,7.6927,7.5828,7.4846,7.3859,7.3787,7.2289,6.8394,6.6618,6.445,6.1697,6.1584,6.137,6.0572,5.9475,5.9362,5.9942,6.0445,6.0722,6.2415,6.3691,6.4621,6.5089,6.6136,6.6834,6.695,6.7939,6.8695,6.8811,6.8462,6.8695,6.9078,7.0722,7.2524,7.3504,7.3015,7.2443,7.2056,7.1927,7.1509,7.0375,6.9758,6.9979,7.1173,7.1094,7.1263,7.2473,7.2904,7.269,7.269,7.3324,7.4072,7.3668,7.3939,7.3939,7.3939,7.4138,7.4072,7.4002,7.4002,7.4264,7.4574,7.5226,7.5753,6.0061,6.0241,6.1319,6.146,6.1111,6.2433,6.3063,6.3469,6.3469,6.3638,6.4159,6.4779,6.5174,6.5569,6.6472,6.6867,6.6867,6.6867,6.6867,6.6867,6.7129,6.7722,6.8743,6.9685,7.0723,7.1802,7.2813,7.3347,7.3517,7.5003,7.6549,7.7973,7.9627,8.0545,8.0545,8.1119,8.1846,8.2775,8.3657,8.421,8.4552,8.4552,8.4552,8.4552,8.4552,8.4552,8.4481,8.3339,8.3059,8.3498,8.011,7.8384,7.8837,7.5587,7.3225,7.2381,7.1375,6.9637,6.7189,6.4562,6.2582,6.1646,6.1141,6.0687,6.0629,5.8893,5.7144,5.5783,5.5825,5.6174,5.7754,5.9588,6.1604,6.346,6.4798,6.5438,6.5554,6.5787,6.631,6.7183,6.6601,6.6731,6.8279,6.9138,7.0023,7.0986,7.1716,7.1508,7.0704,7.0638,7.031,6.9512,6.9528,7.0448,7.1419,7.1574,7.1879,7.269,7.2904,7.2762,7.2473,7.269,7.2975,7.269,7.2974,7.3045,7.2546,7.2833,7.3046,7.2767,7.2698,7.3045,7.3846,7.4657,7.5256,5.9045,5.9399,6.0075,6.0208,6.0013,6.0806,6.1667,6.224,6.1732,6.191,6.2597,6.3277,6.4183,6.5316,6.5996,6.615,6.6077,6.615,6.615,6.6077,6.615,6.695,6.8432,6.9312,7.0299,7.1385,7.233,7.2856,7.2971,7.3917,7.5121,7.6177,7.789,7.9008,7.9538,8.0281,8.1092,8.2061,8.3916,8.5207,8.5622,8.5622,8.5622,8.5622,8.4909,8.4552,8.4552,8.3054,8.2269,8.2412,7.9624,7.7369,7.5822,7.4263,7.2335,7.0026,6.9771,6.8996,6.6967,6.4481,6.2115,6.017,6.0343,6.0171,5.9541,5.7649,5.5956,5.4938,5.4643,5.5274,5.7242,5.8618,6.0227,6.201,6.2936,6.3344,6.3344,6.3344,6.3634,6.4216,6.3809,6.41,6.5915,6.703,6.7954,6.8544,7.0041,7.0575,6.9223,6.9707,7.001,6.9549,7.0283,7.1263,7.2104,7.2253,7.2618,7.3393,7.3461,7.3324,7.3044,7.3185,7.3324,7.3044,7.3185,7.2976,7.2003,7.221,7.1995,7.1579,7.1297,7.1494,7.2202,7.277,7.2965,5.8412,5.8531,5.865,5.8713,5.8893,5.8949,5.9803,6.0886,6.0044,6.0392,6.1651,6.1822,6.3075,6.5127,6.5469,6.5513,6.5316,6.5513,6.5513,6.5316,6.5343,6.6234,6.8074,6.902,7.018,7.1205,7.233,7.2971,7.3024,7.4029,7.5057,7.6177,7.7298,7.8373,7.9538,8.0389,8.1259,8.2219,8.5135,8.655,8.6621,8.655,8.669,8.6901,8.5405,8.4548,8.468,8.2834,8.127,7.9922,7.9119,7.6395,7.1586,7.2803,7.1715,6.7409,6.7871,6.7821,6.6309,6.4229,6.1579,5.8505,5.9197,5.9086,5.7329,5.5918,5.5228,5.5167,5.4686,5.5678,5.811,5.8342,5.8972,6.0623,6.1079,6.1195,6.1311,6.1311,6.1486,6.1889,6.1137,6.154,6.3328,6.4638,6.5441,6.6535,6.7877,6.8935,6.8405,6.9178,7.005,7.0381,7.1263,7.2104,7.269,7.2975,7.3393,7.4138,7.4138,7.4002,7.3382,7.3312,7.3105,7.3102,7.2755,7.2471,7.1289,7.1338,7.0846,6.9926,6.9645,6.981,7.0469,7.0083,6.9892,5.7823,5.8831,5.9241,5.9302,5.9419,5.9419,5.9588,5.9757,0.0,0.0,0.0,6.1716,6.2402,6.2974,6.4976,6.5891,6.5891,6.5891,6.5891,6.5891,6.4862,6.5033,6.6051,6.7789,6.9409,7.0845,7.2213,7.3139,7.3531,7.4139,7.5121,7.6177,7.7298,7.8373,7.9538,8.0992,8.2219,8.3134,8.4355,8.498,8.498,8.498,8.5886,8.7688,8.5671,8.4811,8.5308,8.2089,8.02,7.9851,7.8981,7.6816,7.2976,7.2396,6.999,6.4785,6.2522,6.1626,6.2324,5.9617,5.7991,5.8375,5.7721,5.646,5.4566,5.4131,5.3533,5.2654,5.1693,5.2081,5.4576,5.4866,5.6206,5.9344,6.0499,6.1137,6.1137,6.1195,6.137,6.2413,6.0842,6.0741,6.3433,6.2134,6.1625,6.487,6.5817,6.5846,6.7823,6.9178,7.0216,7.1038,7.2036,7.2762,7.2975,7.3461,7.4072,7.4134,7.4134,7.3515,7.1858,7.1237,7.0477,6.9232,6.8956,6.9022,6.8267,6.8608,6.867,6.8195,6.8058,6.8385,6.916,6.8052,6.6838,5.8595,0.0,5.9419,5.9535,0.0,5.9535,5.9535,5.9479,5.9143,5.9543,6.0687,6.1262,6.1895,6.241,6.3793,6.4247,6.4125,6.4247,6.4247,6.4125,6.3615,6.3839,6.4795,6.662,6.7861,6.8692,7.0368,7.1584,7.2202,7.2697,7.4101,7.6242,7.6692,7.8187,8.0519,8.1145,8.1565,8.2159,8.3714,8.498,8.5694,8.5765,8.5896,8.6081,8.4323,0.0,0.0,0.0,0.0,0.0,0.0,0.0,0.0,0.0,0.0,6.3462,6.113,6.0465,6.1697,6.0145,5.887,5.8474,5.7228,5.5549,5.3375,5.2888,5.2468,5.1944,5.193,5.2704,5.452,5.4807,5.5754,5.8011,5.8399,5.8399,5.8399,5.8399,5.869,5.9156,5.8748,5.9294,6.1749,6.0643,6.1465,6.4808,6.5337,6.6079,6.8095,6.9265,7.0544,7.1886,7.2975,7.353,7.3598,7.4072,7.4063,7.3218,7.3078,7.2245,7.0384,7.0105,6.9765,6.874,6.8659,6.8509,6.7559,6.748,6.7456,6.6633,6.6416,6.6653,6.6784,6.6351,6.5715,5.9535,5.9535,5.9535,5.9535,5.9535,5.9142,5.9144,5.9315,5.8232,5.8793,6.0382,6.0329,6.0738,6.1607,6.1838,6.2011,6.2008,6.2241,6.2357,6.2352,6.2357,6.2933,6.3965,6.5503,6.6428,6.6781,6.8569,6.9946,7.051,7.1,7.2751,7.534,7.5609,7.73,8.0251,0.0,0.0,0.0,8.2582,8.4267,8.5551,8.5622,8.519,8.4251,8.2691,0.0,8.0103,7.8478,7.7488,7.7488,7.7274,0.0,0.0,0.0,0.0,0.0,0.0,0.0,0.0,0.0,0.0,0.0,5.6507,5.4681,5.2234,5.1753,5.1765,5.1877,5.2272,5.326,5.478,5.4899,5.5504,5.6957,5.6525,5.5956,5.6059,5.6015,5.6059,5.6161,5.714,5.8448,6.0167,6.0399,6.1755,6.4835,6.5777,6.662,6.8696,6.9864,7.1106,7.2618,7.36,7.4204,7.4274,7.3922,7.3283,7.2296,7.1803,7.0895,6.9426,6.9074,6.9074,6.8511,6.8591,6.7906,6.6964,6.6693,6.6153,6.5192,6.5137,6.5152,6.469,6.5179,6.5663,5.9535,5.9535,5.9535,5.9535,5.9366,5.7989,5.8076,5.9068,5.749,5.7548,5.8774,5.8146,5.8109,5.8283,5.9221,6.0324,6.1314,6.1428,6.2008,6.2995,6.195,6.1837,6.2935,6.4997,6.6425,6.7228,6.8787,6.9619,6.9788,7.0149,7.1043,7.2443,7.3382,7.4546,7.5826,7.717,7.8447,7.9856,8.0254,8.0628,8.0771,8.0842,8.1588,8.3205,8.1301,8.037,8.0664,7.8711,7.7488,7.7488,7.6275,7.344,6.8928,6.7336,6.4418,0.0,5.6633,0.0,0.0,0.0,0.0,0.0,0.0,0.0,0.0,5.0765,5.181,5.208,5.0005,4.9795,5.235,5.2407,5.3389,5.5869,5.6861,5.7341,5.7608,5.7341,5.7549,5.8414,5.8676,5.9595,6.1451,6.1297,6.2232,6.5321,6.572,6.6667,6.9616,7.0947,7.1735,7.2762,7.3668,7.3993,7.3852,7.3007,7.2155,7.181,7.0754,6.9346,6.7868,6.7586,6.7093,6.5909,6.5142,6.4881,6.5147,6.4653,6.4272,6.4383,6.477,6.5107,6.5067,6.5288,6.5504,5.8166,5.8276,5.8822,5.9089,5.9187,5.7668,5.802,5.9177,5.7861,5.802,5.9237,5.9097,5.8997,5.9057,5.9595,6.0194,6.0732,6.0628,6.145,6.2694,6.2154,6.2467,6.3724,6.5022,6.5853,6.63,6.7607,6.859,6.9486,6.9787,7.096,7.2891,7.3332,7.3272,7.2859,7.4171,7.5263,7.5956,7.7638,7.9058,7.9914,7.9851,7.9898,8.0051,8.0254,7.9712,7.8192,7.7248,7.6288,7.5441,7.3595,7.0722,6.6653,6.5041,6.2508,0.0,0.0,0.0,0.0,0.0,0.0,0.0,0.0,0.0,0.0,0.0,5.1637,5.0601,4.9583,4.9597,5.1065,5.1035,5.1615,5.327,5.3957,5.4502,5.4907,5.6325,5.7419,5.7737,5.9207,6.085,6.2608,6.2262,6.3128,6.6518,6.7605,6.8833,7.0812,7.1879,7.2345,7.2344,7.2672,7.2655,7.174,7.1106,7.0332,6.9487,6.8783,6.7797,6.6248,6.5602,6.5082,6.4453,6.4002,6.3748,6.3755,6.3755,6.3748,6.3863,6.3965,6.4078,6.4516,6.5052,6.5468,5.7503,5.7653,5.8417,5.8858,5.8893,5.767,5.7981,5.9214,5.8047,5.8169,5.9431,5.9336,5.9214,5.8907,5.8846,5.9214,5.9826,5.9826,6.0561,6.1884,6.1884,6.262,6.401,6.4837,6.5284,6.5596,6.6577,6.7661,6.8907,6.8965,7.0228,7.2696,7.2698,7.2122,7.1011,7.2483,7.3254,7.3254,7.5716,7.7631,7.8701,7.8773,7.8416,7.756,7.8746,7.8458,7.6692,7.57,7.4761,7.3659,7.0969,6.7851,6.4404,6.2502,0.0,0.0,0.0,0.0,0.0,0.0,0.0,0.0,0.0,5.0809,5.0897,0.0,5.0906,0.0,4.9091,4.9393,4.9802,4.9863,0.0,0.0,5.1691,5.2126,5.2648,5.4669,5.6056,5.6314,5.8681,6.1013,6.2446,6.3236,6.4498,6.6927,6.89,7.0395,7.1332,7.227,7.2767,7.2597,7.2289,7.1646,7.0605,7.0032,6.9246,6.7516,6.6601,6.5756,6.4559,6.3593,6.2949,6.2949,6.2707,6.233,6.1946,6.2211,6.2454,6.2638,6.2346,6.2181,6.3025,6.3685,6.4258,5.8575,5.8598,5.8681,5.878,5.8632,5.7585,5.7931,5.8969,5.7119,5.703,5.797,5.7181,5.6147,5.4892,5.4892,0.0,5.8511,5.8511,5.9247,6.0341,6.0403,6.1234,6.2559,6.3761,6.4739,6.5496,6.6577,6.7151,6.737,6.6968,6.7822,7.0064,7.011,7.0542,7.1026,7.3089,7.4116,7.4187,7.4973,7.549,7.5633,7.5633,7.6204,7.7488,7.6336,7.6417,7.7937,7.4897,7.3263,7.3462,6.8923,6.5254,6.2838,0.0,0.0,0.0,0.0,0.0,0.0,0.0,0.0,0.0,0.0,0.0,0.0,0.0,0.0,0.0,4.7967,0.0,4.767,4.8751,0.0,0.0,0.0,5.2874,5.3199,5.3223,5.3511,5.4311,0.0,0.0,6.0,6.3784,6.6332,6.6172,6.7568,6.9076,7.0476,7.1932,7.3185,7.3646,7.3156,7.2355,7.1293,7.0533,6.9302,6.7281,6.484,6.308,6.2799,6.1563,6.0703,6.0649,5.9597,5.894,5.9539,5.9183,5.894,5.9549,5.9655,5.9815,6.0579,6.0951,6.1515,5.8112,5.8716,5.8674,5.8797,5.8962,5.8835,5.8998,5.908,5.7858,5.7556,5.7811,5.6596,5.5971,5.5765,5.57,0.0,0.0,0.0,5.8332,5.8885,6.0255,6.1304,6.1872,6.3146,6.3936,6.4418,6.5141,6.5239,6.4836,6.5741,6.7166,6.8787,0.0,0.0,6.982,7.1866,7.2962,7.3024,7.4575,7.5383,7.5499,7.5383,7.5669,7.6312,7.682,7.671,7.5931,7.4237,7.2287,6.9874,6.6342,6.3168,0.0,0.0,0.0,0.0,0.0,0.0,0.0,0.0,0.0,0.0,0.0,4.7854,4.796,0.0,0.0,0.0,4.8641,4.8361,4.7475,4.8636,0.0,0.0,0.0,0.0,0.0,0.0,0.0,5.4132,5.5956,5.7991,6.006,6.1441,6.2493,6.3275,6.5432,6.7508,6.8954,0.0,7.17,7.0199,7.0687,7.0425,6.8407,6.789,6.7053,6.5129,6.2806,6.125,6.118,6.0361,5.9719,5.9663,5.9251,5.8839,5.8589,5.7187,5.6394,5.7588,5.8199,5.8857,6.0031,6.0275,6.0507,5.8316,0.0,0.0,0.0,0.0,5.9644,5.9448,5.9072,5.8097,5.7663,5.7524,5.6475,0.0,0.0,0.0,0.0,0.0,0.0,5.7295,5.7425,5.9354,6.0465,6.0916,6.2268,6.2912,6.2977,6.3654,6.3639,6.329,6.3906,6.4561,6.5431,0.0,0.0,0.0,0.0,7.2035,7.2533,7.4024,7.5055,7.56,7.5485,7.5428,7.5369,7.6359,7.6168,7.4794,7.2684,7.0195,6.738,6.4055,0.0,0.0,0.0,0.0,0.0,0.0,0.0,0.0,0.0,0.0,0.0,0.0,0.0,0.0,0.0,0.0,0.0,0.0,0.0,4.8589,4.9253,5.011,0.0,0.0,0.0,0.0,0.0,0.0,0.0,0.0,0.0,5.9039,5.8727,5.9135,0.0,0.0,6.6037,6.7689,7.0285,7.1142,6.8528,6.9543,0.0,6.6838,6.5979,6.5143,6.3625,6.2079,6.0916,6.0388,5.9116,5.8228,5.8228,5.8116,5.7877,5.7325,5.6103,5.5618,5.6353,5.7116,5.7867,5.8744,5.8886,5.9071,0.0,0.0,0.0,0.0,0.0,0.0,0.0,0.0,5.724,5.6577,0.0,5.6379,0.0,0.0,0.0,0.0,0.0,5.6021,0.0,0.0,5.6832,5.8018,5.9371,6.0787,6.1496,6.156,6.201,6.2589,6.3109,6.0736,0.0,0.0,0.0,0.0,0.0,0.0,7.1955,7.3322,7.3429,7.4092,7.56,7.56,7.5543,7.5369,7.3894,7.398,7.5537,6.9854,6.6696,6.7129,6.2344,0.0,0.0,0.0,0.0,0.0,0.0,0.0,0.0,0.0,0.0,0.0,0.0,0.0,0.0,0.0,0.0,0.0,0.0,0.0,0.0,5.0751,0.0,0.0,0.0,0.0,0.0,0.0,0.0,0.0,0.0,0.0,5.6122,5.6115,5.744,6.0933,0.0,0.0,0.0,0.0,7.1905,7.0383,7.103,7.0921,6.8767,6.6288,6.4394,6.3753,0.0,0.0,6.0582,5.773,5.585,5.5709,5.5375,5.4958,5.563,5.6001,5.6136,5.5978,5.6212,5.6323,5.6072,5.6213,5.6448,0.0,0.0,0.0,0.0,0.0,0.0,0.0,0.0,0.0,5.2841,0.0,5.1771,0.0,0.0,0.0,0.0,0.0,0.0,0.0,0.0,5.4516,5.5688,5.635,5.7655,5.8311,0.0,5.8896,5.8459,0.0,0.0,0.0,0.0,0.0,0.0,0.0,0.0,7.0474,7.204,7.2836,7.4147,7.564,7.5656,7.5543,7.5428,7.3809,7.2117,7.0237,6.7829,6.5279,0.0,0.0,0.0,0.0,0.0,0.0,0.0,0.0,0.0,0.0,0.0,0.0,0.0,0.0,0.0,0.0,0.0,0.0,0.0,0.0,0.0,0.0,0.0,4.922,0.0,0.0,0.0,0.0,0.0,0.0,0.0,0.0,0.0,5.3732,5.4476,5.5967,5.8199,6.0207,6.2154,6.3996,0.0,0.0,0.0,0.0,0.0,0.0,0.0,6.4317,6.2799,6.1584,6.0182,5.8198,5.6781,5.6001,5.6001,0.0,0.0,5.609,5.6252,5.6252,5.627,5.6341,5.6358,5.6345,5.6374,5.6603,0.0,0.0,0.0,0.0,0.0,0.0,0.0,0.0,0.0,5.0415,5.0223,0.0,0.0,0.0,0.0,0.0,0.0,0.0,0.0,0.0,0.0,0.0,5.3927,5.565,0.0,0.0,0.0,0.0,0.0,0.0,0.0,0.0,0.0,0.0,0.0,0.0,6.8339,7.0482,7.1916,7.3682,7.5807,7.5768,7.5656,7.5543,7.4036,7.1751,6.8626,0.0,0.0,0.0,0.0,0.0,0.0,0.0,0.0,0.0,0.0,0.0,0.0,0.0,0.0,0.0,0.0,0.0,0.0,0.0,0.0,0.0,0.0,0.0,0.0,0.0,4.8556,0.0,0.0,0.0,0.0,0.0,0.0,0.0,0.0,0.0,0.0,0.0,5.5128,5.6998,5.9103,6.0987,6.2376,6.5476,6.7227,0.0,0.0,0.0,0.0,0.0,0.0,0.0,0.0,0.0,0.0,0.0,0.0,0.0,0.0,5.5999,5.6488,5.6574,5.6646,5.6616,0.0,0.0,0.0,0.0,0.0,0.0,0.0,0.0,0.0,0.0,0.0,0.0,0.0,0.0,0.0,0.0,0.0,0.0,4.931,0.0,0.0,0.0,0.0,0.0,0.0,0.0,0.0,0.0,0.0,0.0,0.0,0.0,0.0,0.0,0.0,0.0,0.0,0.0,0.0,0.0,0.0,6.5788,6.8965,7.0626,7.2865,7.5898,7.597,7.5916,7.5696,7.424,7.2793,7.1452,0.0,0.0,0.0,0.0,0.0,0.0,0.0,0.0,0.0,0.0,0.0,0.0,0.0,0.0,0.0,0.0,0.0,0.0,0.0,0.0,0.0,0.0,0.0,0.0,0.0,0.0,4.9221,5.1166,5.2573,0.0,0.0,0.0,0.0,0.0,0.0,0.0,0.0,0.0,0.0,5.9638,6.1247,6.2486,6.5981,6.7903,6.6654,6.8407,6.9343,6.7803,6.4833,6.2522,0.0,0.0,0.0,0.0,0.0,0.0,0.0,0.0,0.0,0.0,0.0,0.0,0.0,0.0,0.0,0.0,0.0,0.0,0.0,0.0,0.0,0.0,0.0,0.0,0.0,0.0,0.0,0.0,0.0,0.0,0.0,0.0,0.0,0.0,0.0,0.0,0.0,0.0,0.0,0.0,0.0,0.0,0.0,0.0,0.0,0.0,0.0,0.0,0.0,0.0,0.0,0.0,0.0,0.0,6.5622,6.8965,7.0504,7.2708,7.5807,7.6183,7.5623,7.4131,7.3,7.1731,0.0,0.0,0.0,0.0,0.0,0.0,0.0,0.0,0.0,0.0,0.0,0.0,0.0,0.0,0.0,0.0,0.0,0.0,0.0,0.0,0.0,0.0,0.0,0.0,0.0,0.0,0.0,0.0,5.0371,5.1421,5.1559,0.0,0.0,0.0,0.0,0.0,0.0,0.0,0.0,0.0,0.0,6.1674,6.3418,6.4446,6.5382,6.676,6.746,6.7892,6.7696,6.4833,6.256,6.2522,0.0,0.0,0.0,0.0,0.0,0.0,0.0,0.0,0.0,0.0,0.0,0.0,0.0,0.0,0.0,0.0,0.0,0.0,0.0,0.0,0.0,0.0,0.0,0.0,0.0,0.0,0.0,0.0,0.0,0.0,0.0,0.0,0.0,0.0,0.0,0.0,0.0,0.0,0.0,0.0,0.0,0.0,0.0,0.0,0.0,0.0,0.0,0.0,0.0,0.0,0.0,0.0,0.0,6.4442,6.7088,6.9854,7.2472,7.4924,7.6099,7.5641,7.3711,7.2788,7.1561,0.0,0.0,0.0,0.0,0.0,0.0,0.0,0.0,0.0,0.0,0.0,0.0,0.0,0.0,0.0,0.0,0.0,0.0,0.0,0.0,0.0,0.0,0.0,0.0,0.0,0.0,0.0,0.0,4.9141,5.01,5.0274,0.0,0.0,0.0,0.0,0.0,0.0,0.0,0.0,0.0,0.0,6.2533,6.391,6.4399,0.0,0.0,6.6713,6.6658,6.7589,6.4323,6.1939,6.2599,6.0071,0.0,0.0,0.0,0.0,0.0,0.0,0.0,0.0,0.0,0.0,0.0,0.0,0.0,0.0,0.0,0.0,0.0,0.0,0.0,0.0,0.0,0.0,0.0,0.0,0.0,0.0,0.0,0.0,0.0,0.0,0.0,0.0,0.0,0.0,0.0,0.0,0.0,0.0,0.0,0.0,0.0,0.0,0.0,0.0,0.0,0.0,0.0,0.0,0.0,0.0,0.0,0.0,6.2655,6.4317,6.8942,7.2121,7.3763,7.5717,7.5957,7.4231,7.3104,7.1914,0.0,0.0,0.0,0.0,0.0,0.0,0.0,0.0,0.0,0.0,0.0,0.0,0.0,0.0,0.0,0.0,0.0,0.0,0.0,0.0,0.0,0.0,0.0,0.0,0.0,0.0,0.0,0.0,0.0,0.0,0.0,0.0,0.0,0.0,0.0,0.0,0.0,0.0,0.0,0.0,0.0,6.3963,6.4362,6.5519,6.6642,0.0,0.0,6.6051,6.7634,6.3809,6.1236,6.2947,0.0,0.0,0.0,0.0,0.0,0.0,0.0,0.0,0.0,0.0,0.0,0.0,0.0,0.0,0.0,0.0,0.0,0.0,0.0,0.0,0.0,0.0,0.0,0.0,0.0,0.0,0.0,0.0,0.0,0.0,0.0,0.0,0.0,0.0,0.0,0.0,0.0,0.0,0.0,0.0,0.0,0.0,0.0,0.0,0.0,0.0,0.0,0.0,0.0,0.0,0.0,0.0,0.0,0.0,6.4566,6.9086,7.2272,7.4235,7.616,7.5865,7.3072,7.3312,0.0,0.0,0.0,0.0,0.0,0.0,0.0,0.0,0.0,0.0,0.0,0.0,0.0,0.0,0.0,0.0,0.0,0.0,0.0,0.0,0.0,0.0,0.0,0.0,0.0,0.0,0.0,4.7269,0.0,0.0,0.0,0.0,0.0,0.0,0.0,0.0,0.0,0.0,0.0,0.0,0.0,0.0,6.5087,6.6252,6.5919,6.6086,0.0,0.0,6.769,6.833,6.6135,6.4589,0.0,0.0,0.0,0.0,0.0,0.0,0.0,0.0,0.0,0.0,0.0,0.0,0.0,0.0,0.0,0.0,0.0,0.0,0.0,0.0,0.0,0.0,0.0,0.0,0.0,0.0,0.0,0.0,0.0,0.0,0.0,0.0,0.0,0.0,0.0,0.0,0.0,0.0,0.0,0.0,0.0,0.0,0.0,0.0,0.0,0.0,0.0,0.0,0.0,0.0,0.0,0.0,0.0,0.0,6.2999,6.3899,6.9107,7.236,7.34,7.6181,7.6462,7.3874,7.3834,7.1777,0.0,0.0,0.0,0.0,0.0,0.0,0.0,0.0,0.0,0.0,0.0,0.0,0.0,0.0,0.0,0.0,0.0,0.0,0.0,0.0,0.0,0.0,0.0,0.0,0.0,0.0,0.0,0.0,0.0,0.0,0.0,0.0,0.0,0.0,0.0,0.0,0.0,0.0,0.0,0.0,0.0,0.0,6.725,6.667,0.0,0.0,0.0,6.7394,6.8287,0.0,0.0,0.0,0.0,0.0,0.0,0.0,0.0,0.0,0.0,0.0,0.0,0.0,0.0,0.0,0.0,0.0,0.0,0.0,0.0,0.0,0.0,0.0,0.0,0.0,0.0,0.0,0.0,0.0,0.0,0.0,0.0,0.0,0.0,0.0,0.0,0.0,0.0,0.0,0.0,0.0,0.0,0.0,0.0,0.0,0.0,0.0,0.0,0.0,0.0,0.0,0.0,0.0,0.0,0.0,0.0,0.0,6.2741,6.8876,7.2149,7.2232,7.587,7.7204,7.5753,7.4555,7.2235,0.0,0.0,0.0,0.0,0.0,0.0,0.0,0.0,0.0,0.0,0.0,0.0,0.0,0.0,0.0,0.0,0.0,0.0,0.0,0.0,0.0,0.0,0.0,0.0,0.0,0.0,0.0,0.0,0.0,0.0,0.0,0.0,0.0,0.0,0.0,0.0,0.0,0.0,0.0,0.0,0.0,6.5487,6.7523,6.7589,6.7667,0.0,0.0,6.6479,6.8085,6.5923,0.0,0.0,0.0,0.0,0.0,0.0,0.0,0.0,0.0,0.0,0.0,0.0,0.0,0.0,0.0,0.0,0.0,0.0,0.0,0.0,0.0,0.0,0.0,0.0,0.0,0.0,0.0,0.0,0.0,0.0,0.0,0.0,0.0,0.0,0.0,0.0,0.0,0.0,0.0,0.0,0.0,0.0,0.0,0.0,0.0,0.0,0.0,0.0,0.0,0.0,0.0,0.0,0.0,0.0,0.0,0.0,6.3405,6.7775,7.112,7.2948,7.5019,7.6193,7.6184,7.4674,7.1712,0.0,0.0,0.0,0.0,0.0,0.0,0.0,0.0,0.0,0.0,0.0,0.0,0.0,0.0,0.0,0.0,0.0,0.0,0.0,0.0,0.0,0.0,0.0,0.0,0.0,0.0,0.0,0.0,0.0,0.0,0.0,0.0,0.0,0.0,0.0,0.0,0.0,0.0,0.0,0.0,0.0,6.5792,6.721,6.7927,0.0,0.0,0.0,0.0,6.8769,6.8347,0.0,0.0,0.0,0.0,0.0,0.0,0.0,0.0,0.0,0.0,0.0,0.0,0.0,0.0,0.0,0.0,0.0,0.0,0.0,0.0,0.0,0.0,0.0,0.0,0.0,0.0,0.0,0.0,0.0,0.0,0.0,0.0,0.0,0.0,0.0,0.0,0.0,0.0,0.0,0.0,0.0,0.0,0.0,0.0,0.0,0.0,0.0,0.0,0.0,0.0,0.0,0.0,0.0,0.0,0.0,0.0,6.4284,6.8039,7.1433,7.4022,7.4597,7.527,7.6273,7.3207,6.9992,0.0,0.0,0.0,0.0,0.0,0.0,0.0,0.0,0.0,0.0,0.0,0.0,0.0,0.0,0.0,0.0,0.0,0.0,0.0,0.0,0.0,0.0,0.0,0.0,0.0,0.0,0.0,0.0,0.0,0.0,0.0,0.0,0.0,0.0,0.0,0.0,0.0,0.0,0.0,0.0,6.4396,6.6085,6.7485,0.0,0.0,0.0,0.0,0.0,0.0,6.8999,6.8999,0.0,0.0,0.0,0.0,0.0,0.0,0.0,0.0,0.0,0.0,0.0,0.0,0.0,0.0,0.0,0.0,0.0,0.0,0.0,0.0,0.0,0.0,0.0,0.0,0.0,0.0,0.0,0.0,0.0,0.0,0.0,0.0,0.0,0.0,0.0,0.0,0.0,0.0,0.0,0.0,0.0,0.0,0.0,0.0,0.0,0.0,0.0,0.0,0.0,0.0,0.0,0.0,0.0,0.0,0.0,6.4536,6.8623,7.1907,7.4202,7.4025,7.4553,7.575,7.1712,6.8496,6.6477,0.0,0.0,0.0,0.0,0.0,0.0,0.0,0.0,0.0,0.0,0.0,0.0,0.0,0.0,0.0,0.0,0.0,0.0,0.0,0.0,0.0,0.0,0.0,0.0,0.0,0.0,0.0,0.0,0.0,0.0,0.0,0.0,0.0,0.0,0.0,0.0,0.0,0.0,0.0,6.457,6.6291,0.0,0.0,0.0,0.0,0.0,0.0,0.0,0.0,6.9273,0.0,0.0,0.0,0.0,0.0,0.0,0.0,0.0,0.0,0.0,0.0,0.0,0.0,0.0,0.0,0.0,0.0,0.0,0.0,0.0,0.0,0.0,0.0,0.0,0.0,0.0,0.0,0.0,0.0,0.0,0.0,0.0,0.0,0.0,0.0,0.0,0.0,0.0,0.0,0.0,0.0,0.0,0.0,0.0,0.0,0.0,0.0,0.0,0.0,0.0,0.0,0.0,0.0,0.0,0.0,0.0,6.8266,7.1004,7.1491,7.3032,7.3955,7.4179,7.2086,6.9543,6.6552,0.0,0.0,0.0,0.0,0.0,0.0,0.0,0.0,0.0,0.0,0.0,0.0,0.0,0.0,0.0,0.0,0.0,0.0,0.0,0.0,0.0,0.0,0.0,0.0,0.0,0.0,0.0,0.0,0.0,0.0,0.0,0.0,0.0,0.0,0.0,0.0,0.0,0.0,6.2782,6.4501,0.0,0.0,0.0,0.0,0.0,0.0,0.0,0.0,7.0019,0.0,0.0,0.0,0.0,0.0,0.0,0.0,0.0,0.0,0.0,0.0,0.0,0.0,0.0,0.0,0.0,0.0,0.0,0.0,0.0,0.0,0.0,0.0,0.0,0.0,0.0,0.0,0.0,0.0,0.0,0.0,0.0,0.0,0.0,0.0,0.0,0.0,0.0,0.0,0.0,0.0,0.0,0.0,0.0,0.0,0.0,0.0,0.0,0.0,0.0,0.0,0.0,0.0,0.0,0.0,0.0,0.0,0.0,7.2422,7.2986,7.3567,7.388,7.3731,7.059,6.8048,0.0,0.0,0.0,0.0,0.0,0.0,0.0,0.0,0.0,0.0,0.0,0.0,0.0,0.0,0.0,0.0,0.0,0.0,0.0,0.0,0.0,0.0,0.0,0.0,0.0,0.0,0.0,0.0,0.0,0.0,0.0,0.0,0.0,0.0,0.0,0.0,0.0,0.0,0.0,0.0,0.0,0.0,0.0,0.0,0.0,0.0,0.0,0.0,0.0,0.0,0.0,0.0,0.0,0.0,0.0,0.0,0.0,0.0,0.0,0.0,0.0,0.0,0.0,0.0,0.0,0.0,0.0,0.0,0.0,0.0,0.0,0.0,0.0,0.0,0.0,0.0,0.0,0.0,0.0,0.0,0.0,0.0,0.0,0.0,0.0,0.0,0.0,0.0,0.0,0.0,0.0,0.0,0.0,0.0,0.0,0.0,0.0,0.0,0.0,0.0,0.0,0.0,0.0,0.0,0.0,0.0,0.0,0.0,7.3238,7.3976,7.3546,7.3357,7.3282,6.9244,6.6702,0.0,0.0,0.0,0.0,0.0,0.0,0.0,0.0,0.0,0.0,0.0,0.0,0.0,0.0,0.0,0.0,0.0,0.0,0.0,0.0,0.0,0.0,0.0,0.0,0.0,0.0,0.0,0.0,0.0,0.0,0.0,0.0,0.0,0.0,0.0,0.0,0.0,0.0,0.0,0.0,0.0,0.0,0.0,0.0,0.0,0.0,0.0,0.0,6.9478,0.0,0.0,0.0,0.0,0.0,0.0,0.0,0.0,0.0,0.0,0.0,0.0,0.0,0.0,0.0,0.0,0.0,0.0,0.0,0.0,0.0,0.0,0.0,0.0,0.0,0.0,0.0,0.0,0.0,0.0,0.0,0.0,0.0,0.0,0.0,0.0,0.0,0.0,0.0,0.0,0.0,0.0,0.0,0.0,0.0,0.0,0.0,0.0,0.0,0.0,0.0,0.0,0.0,0.0,0.0,0.0,0.0,0.0,0.0,7.1313,7.0731,7.1239,7.1637,7.1562,6.9768,6.73,0.0,0.0,0.0,0.0,0.0,0.0,0.0,0.0,0.0,0.0,0.0,0.0,0.0,0.0,0.0,0.0,0.0,0.0,0.0,0.0,0.0,0.0,0.0,0.0,0.0,0.0,0.0,0.0,0.0,0.0,0.0,0.0,0.0,0.0,0.0,0.0,0.0,0.0,0.0,0.0,0.0,0.0,0.0,0.0,0.0,0.0,0.0,0.0,0.0,0.0,0.0,0.0,0.0,0.0,0.0,0.0,0.0,0.0,0.0,0.0,0.0,0.0,0.0,0.0,0.0,0.0,0.0,0.0,0.0,0.0,0.0,0.0,0.0,0.0,0.0,0.0,0.0,0.0,0.0,0.0,0.0,0.0,0.0,0.0,0.0,0.0,0.0,0.0,0.0,0.0,0.0,0.0,0.0,0.0,0.0,0.0,0.0,0.0,0.0,0.0,0.0,0.0,0.0,0.0,0.0,0.0,0.0,0.0,7.1845,7.0504,7.1845,7.2585,7.2833,6.9394,6.73,0.0,0.0,0.0,0.0,0.0,0.0,0.0,0.0,0.0,0.0,0.0,0.0,0.0,0.0,0.0,0.0,0.0,0.0,0.0,0.0,0.0,0.0,0.0,0.0,0.0,0.0,0.0,0.0,0.0,0.0,0.0,0.0,0.0,0.0,0.0,0.0,0.0,0.0,0.0,0.0,0.0,0.0,0.0,0.0,0.0,0.0,0.0,0.0,0.0,0.0,0.0,0.0,0.0,0.0,0.0,0.0,0.0,0.0,0.0,0.0,0.0,0.0,0.0,0.0,0.0,0.0,0.0,0.0,0.0,0.0,0.0,0.0,0.0,0.0,0.0,0.0,0.0,0.0,0.0,0.0,0.0,0.0,0.0,0.0,0.0,0.0,0.0,0.0,0.0,0.0,0.0,0.0,0.0,0.0,0.0,0.0,0.0,0.0,0.0,0.0,0.0,0.0,0.0,0.0,0.0,0.0,0.0,0.0,0.0,7.1483,7.178,7.2015,7.1861,6.8795,6.73,0.0,0.0,0.0,0.0,0.0,0.0,0.0,0.0,0.0,0.0,0.0,0.0,0.0,0.0,0.0,0.0,0.0,0.0,0.0,0.0,0.0,0.0,0.0,0.0,0.0,0.0,0.0,0.0,0.0,0.0,0.0,0.0,0.0,0.0,0.0,0.0,0.0,0.0,0.0,0.0,0.0,0.0,0.0,0.0,0.0,0.0,0.0,0.0,0.0,0.0,0.0,0.0,0.0,0.0,0.0,0.0,0.0,0.0,0.0,0.0,0.0,0.0,0.0,0.0,0.0,0.0,0.0,0.0,0.0,0.0,0.0,0.0,0.0,0.0,0.0,0.0,0.0,0.0,0.0,0.0,0.0,0.0,0.0,0.0,0.0,0.0,0.0,0.0,0.0,0.0,0.0,0.0,0.0,0.0,0.0,0.0,0.0,0.0,0.0,0.0,0.0,0.0,0.0,0.0,0.0,0.0,0.0,0.0,0.0,7.3117,7.0187,6.8187,6.7076,6.8197,6.7375,0.0,0.0,0.0,0.0,0.0,0.0,0.0,0.0,0.0,0.0,0.0,0.0,0.0,0.0,0.0,0.0,0.0,0.0,0.0,0.0,0.0,0.0,0.0,0.0,0.0,0.0,0.0,0.0,0.0,0.0,0.0,0.0,0.0,0.0,0.0,0.0,0.0,0.0,0.0,0.0,0.0,0.0,0.0,0.0,0.0,0.0,0.0,0.0,0.0,0.0,0.0,0.0,0.0,0.0,0.0,0.0,0.0,0.0,0.0,0.0,0.0,0.0,0.0,0.0,0.0,0.0,0.0,0.0,0.0,0.0,0.0,0.0,0.0,0.0,0.0,0.0,0.0,0.0,0.0,0.0,0.0,0.0,0.0,0.0,0.0,0.0,0.0,0.0,0.0,0.0,0.0,0.0,0.0,0.0,0.0,0.0,0.0,0.0,0.0,0.0,0.0,0.0,0.0,0.0,0.0,0.0,0.0,0.0,0.0,7.1913,6.9899,6.906,6.9543,6.9169,6.8422,6.715,0.0,0.0,0.0,0.0,0.0,0.0,0.0,0.0,0.0,0.0,0.0,0.0,0.0,0.0,0.0,0.0,0.0,0.0,0.0,0.0,0.0,0.0,0.0,0.0,0.0,0.0,0.0,0.0,0.0,0.0,0.0,0.0,0.0,0.0,0.0,0.0,0.0,0.0,0.0,0.0,0.0,0.0,0.0,0.0,0.0,0.0,0.0,0.0,0.0,0.0,0.0,0.0,0.0,0.0,0.0,0.0,0.0,0.0,0.0,0.0,0.0,0.0,0.0,0.0,0.0,0.0,0.0,0.0,0.0,0.0,0.0,0.0,0.0,0.0,0.0,0.0,0.0,0.0,0.0,0.0,0.0,0.0,0.0,0.0,0.0,0.0,0.0,0.0,0.0,0.0,0.0,0.0,0.0,0.0,0.0,0.0,0.0,0.0,0.0,0.0,0.0,0.0,0.0,0.0,0.0,0.0,0.0,0.0,7.1236,7.0291,7.0067,7.0563,7.004,6.9516,0.0,0.0,0.0,0.0,0.0,0.0,0.0,0.0,0.0,0.0,0.0,0.0,0.0,0.0,0.0,0.0,0.0,0.0,0.0,0.0,0.0,0.0,0.0,0.0,0.0,0.0,0.0,0.0,0.0,0.0,0.0,0.0,0.0,0.0,0.0,0.0,0.0,0.0,0.0,0.0,0.0,0.0,0.0,0.0,0.0,0.0,0.0,0.0,0.0,0.0,0.0,0.0,0.0,0.0,0.0,0.0,0.0,0.0,0.0,0.0,0.0,0.0,0.0,0.0,0.0,0.0,0.0,0.0,0.0,0.0,0.0,0.0,0.0,0.0,0.0,0.0,0.0,0.0,0.0,0.0,0.0,0.0,0.0,0.0,0.0,0.0,0.0,0.0,0.0,0.0,0.0,0.0,0.0,0.0,0.0,0.0,0.0,0.0,0.0,0.0,0.0,0.0,0.0,0.0,0.0,0.0,0.0,0.0,7.131,7.1413,7.1338,7.059,6.9143,7.0515,7.0515,0.0,0.0,0.0,0.0,0.0,0.0,0.0,0.0,0.0,0.0,0.0,0.0,0.0,0.0,0.0,0.0,0.0,0.0,0.0,0.0,0.0,0.0,0.0,0.0,0.0,0.0,0.0,0.0,0.0,0.0,0.0,0.0,0.0,0.0,0.0,0.0,0.0,0.0,0.0,0.0,0.0,0.0,0.0,0.0,0.0,0.0,0.0,0.0,0.0,0.0,0.0,0.0,0.0,0.0,0.0,0.0,0.0,0.0,0.0,0.0,0.0,0.0,0.0,0.0,0.0,0.0,0.0,0.0,0.0,0.0,0.0,0.0,0.0,0.0,0.0,0.0,0.0,0.0,0.0,0.0,0.0,0.0,0.0,0.0,0.0,0.0,0.0,0.0,0.0,0.0,0.0,0.0,0.0,0.0,0.0,0.0,0.0,0.0,0.0,0.0,0.0,0.0,0.0,0.0,0.0,0.0,0.0,0.0,0.0,7.3058,0.0,7.1712,0.0,7.0665,7.0067,0.0,0.0,0.0,0.0,0.0,0.0,0.0,0.0,0.0,0.0,0.0,0.0,0.0,0.0,0.0,0.0,0.0,0.0,0.0,0.0,0.0,0.0,0.0,0.0,0.0,0.0,0.0,0.0,0.0,0.0,0.0,0.0,0.0,0.0,0.0,0.0,0.0,0.0,0.0,0.0,0.0,0.0,0.0,0.0,0.0,0.0,0.0,0.0,0.0,0.0,0.0,0.0,0.0,0.0,0.0,0.0,0.0,0.0,0.0,0.0,0.0,0.0,0.0,0.0,0.0,0.0,0.0,0.0,0.0,0.0,0.0,0.0,0.0,0.0,0.0,0.0,0.0,0.0,0.0,0.0,0.0,0.0,0.0,0.0,0.0,0.0,0.0,0.0,0.0,0.0,0.0,0.0,0.0,0.0,0.0,0.0,0.0,0.0,0.0,0.0,0.0,0.0,0.0,0.0,0.0,0.0,0.0,0.0,0.0,7.5554,7.4086,7.3215,7.2964,7.1617,7.0719,0.0,0.0,0.0,0.0,0.0,0.0,0.0,0.0,0.0,0.0,0.0,0.0,0.0,0.0,0.0,0.0,0.0,0.0,0.0,0.0,0.0,0.0,0.0,0.0,0.0,0.0,0.0,0.0,0.0,0.0,0.0,0.0,0.0,0.0,0.0,0.0,0.0,0.0,0.0,0.0,0.0,0.0,0.0,0.0,0.0,0.0,0.0,0.0,0.0,0.0,0.0,0.0,0.0,0.0,0.0,0.0,0.0,0.0,0.0,0.0,0.0,0.0,0.0,0.0,0.0,0.0,0.0,0.0,0.0,0.0,0.0,0.0,0.0,0.0,0.0,0.0,0.0,0.0,0.0,0.0,0.0,0.0,0.0,0.0,0.0,0.0,0.0,0.0,0.0,0.0,0.0,0.0,0.0,0.0,0.0,0.0,0.0,0.0,0.0,0.0,0.0,0.0,0.0,0.0,0.0,0.0,0.0,0.0,0.0,0.0,7.7444,7.512,7.207,7.3171,7.2471,0.0,0.0,0.0,0.0,0.0,0.0,0.0,0.0,0.0,0.0,0.0,0.0,0.0,0.0,0.0,0.0,0.0,0.0,0.0,0.0,0.0,0.0,0.0,0.0,0.0,0.0,0.0,0.0,0.0,0.0,0.0,0.0,0.0,0.0,0.0,0.0,0.0,0.0,0.0,0.0,0.0,0.0,0.0,0.0,0.0,0.0,0.0,0.0,0.0,0.0,0.0,0.0,0.0,0.0,0.0,0.0,0.0,0.0,0.0,0.0,0.0,0.0,0.0,0.0,0.0,0.0,0.0,0.0,0.0,0.0,0.0,0.0,0.0,0.0,0.0,0.0,0.0,0.0,0.0,0.0,0.0,0.0,0.0,0.0,0.0,0.0,0.0,0.0,0.0,0.0,0.0,0.0,0.0,0.0,0.0,0.0,0.0,0.0,0.0,0.0,0.0,0.0,0.0,0.0,0.0,0.0,0.0,0.0,0.0,0.0,7.8521,7.7246,7.527,7.3271,7.1822,7.0872,0.0,0.0,0.0,0.0,0.0,0.0,0.0,0.0,0.0,0.0,0.0,0.0,0.0,0.0,0.0,0.0,0.0,0.0,0.0,0.0,0.0,0.0,0.0,0.0,0.0,0.0,0.0,0.0,0.0,0.0,0.0,0.0,0.0,0.0,0.0,0.0,0.0,0.0,0.0,0.0,0.0,0.0,0.0,0.0,0.0,0.0,0.0,0.0,0.0,0.0,0.0,0.0,0.0,0.0,0.0,0.0,0.0,0.0,0.0,0.0,0.0,0.0,0.0,0.0,0.0,0.0,0.0,0.0,0.0,0.0,0.0,0.0,0.0,0.0,0.0,0.0,0.0,0.0,0.0,0.0,0.0,0.0,0.0,0.0,0.0,0.0,0.0,0.0,0.0,0.0,0.0,0.0,0.0,0.0,0.0,0.0,0.0,0.0,0.0,0.0,0.0,0.0,0.0,0.0,0.0,0.0,0.0,0.0,0.0,0.0,7.8326,7.6674,7.4097,7.1946,0.0,0.0,0.0,0.0,0.0,0.0,0.0,0.0,0.0,0.0,0.0,0.0,0.0,0.0,0.0,0.0,0.0,0.0,0.0,0.0,0.0,0.0,0.0,0.0,0.0,0.0,0.0,0.0,0.0,0.0,0.0,0.0,0.0,0.0,0.0,0.0,0.0,0.0,0.0,0.0,0.0,0.0,0.0,0.0,0.0,0.0,0.0,0.0,0.0,0.0,0.0,0.0,0.0,0.0,0.0,0.0,0.0,0.0,0.0,0.0,0.0,0.0,0.0,0.0,0.0,0.0,0.0,0.0,0.0,0.0,0.0,0.0,0.0,0.0,0.0,0.0,0.0,0.0,0.0,0.0,0.0,0.0,0.0,0.0,0.0,0.0,0.0,0.0,0.0,0.0,0.0,0.0,0.0,0.0,0.0,0.0,0.0,0.0,0.0,0.0,0.0,0.0,0.0,0.0,0.0,0.0,0.0,0.0,0.0,0.0,0.0,7.86,7.6997,7.5221,0.0,6.9944,0.0,0.0,0.0,0.0,0.0,0.0,0.0,0.0,0.0,0.0,0.0,0.0,0.0,0.0,0.0,0.0,0.0,0.0,0.0,0.0,0.0,0.0,0.0,0.0,0.0,0.0,0.0,0.0,0.0,0.0,0.0,0.0,0.0,0.0,0.0,0.0,0.0,0.0,0.0,0.0,0.0,0.0,0.0,0.0,0.0,0.0,0.0,0.0,0.0,0.0,0.0,0.0,0.0,0.0,0.0,0.0,0.0,0.0,0.0,0.0,0.0,0.0,0.0,0.0,0.0,0.0,0.0,0.0,0.0,0.0,0.0,0.0,0.0,0.0,0.0,0.0,0.0,0.0,0.0,0.0,0.0,0.0,0.0,0.0,0.0,0.0,0.0,0.0,0.0,0.0,0.0,0.0,0.0,0.0,0.0,0.0,0.0,0.0,0.0,0.0,0.0,0.0,0.0,0.0,0.0,0.0,0.0,0.0,0.0,0.0,0.0,0.0,7.5846,7.3891,7.3041,0.0,0.0,0.0,0.0,0.0,0.0,0.0,0.0,0.0,0.0,0.0,0.0,0.0,0.0,0.0,0.0,0.0,0.0,0.0,0.0,0.0,0.0,0.0,0.0,0.0,0.0,0.0,0.0,0.0,0.0,0.0,0.0,0.0,0.0,0.0,0.0,0.0,0.0,0.0,0.0,0.0,0.0,0.0,0.0,0.0,0.0,0.0,0.0,0.0,0.0,0.0,0.0,0.0,0.0,0.0,0.0,0.0,0.0,0.0,0.0,0.0,0.0,0.0,0.0,0.0,0.0,0.0,0.0,0.0,0.0,0.0,0.0,0.0,0.0,0.0,0.0,0.0,0.0,0.0,0.0,0.0,0.0,0.0,0.0,0.0,0.0,0.0,0.0,0.0,0.0,0.0,0.0,0.0,0.0,0.0,0.0,0.0,0.0,0.0,0.0,0.0,0.0,0.0,0.0,0.0,0.0,0.0,0.0,0.0,0.0,7.9328,7.9253,7.6019,7.429,7.4215,0.0,0.0,0.0,0.0,0.0,0.0,0.0,0.0,0.0,0.0,0.0,0.0,0.0,0.0,0.0,0.0,0.0,0.0,0.0,0.0,0.0,0.0,0.0,0.0,0.0,0.0,0.0,0.0,0.0,0.0,0.0,0.0,0.0,0.0,0.0,0.0,0.0,0.0,0.0,0.0,0.0,0.0,0.0,0.0,0.0,0.0,0.0,0.0,0.0,0.0,0.0,0.0,0.0,0.0,0.0,0.0,0.0,0.0,0.0,0.0,0.0,0.0,0.0,0.0,0.0,0.0,0.0,0.0,0.0,0.0,0.0,0.0,0.0,0.0,0.0,0.0,0.0,0.0,0.0,0.0,0.0,0.0,0.0,0.0,0.0,0.0,0.0,0.0,0.0,0.0,0.0,0.0,0.0,0.0,0.0,0.0,0.0,0.0,0.0,0.0,0.0,0.0,0.0,0.0,0.0,0.0,0.0,0.0,0.0,0.0,0.0,0.0,0.0,0.0,7.4215,0.0,0.0,0.0,0.0,0.0,0.0,0.0,0.0,0.0,0.0,0.0,0.0,0.0,0.0,0.0,0.0,0.0,0.0,0.0,0.0,0.0,0.0,0.0,0.0,0.0,0.0,0.0,0.0,0.0,0.0,0.0,0.0,0.0,0.0,0.0,0.0,0.0,0.0,0.0,0.0,0.0,0.0,0.0,0.0,0.0,0.0,0.0,0.0,0.0,0.0,0.0,0.0,0.0,0.0,0.0,0.0,0.0,0.0,0.0,0.0,0.0,0.0,0.0,0.0,0.0,0.0,0.0,0.0,0.0,0.0,0.0,0.0,0.0,0.0,0.0,0.0,0.0,0.0,0.0,0.0,0.0,0.0,0.0,0.0,0.0,0.0,0.0,0.0,0.0,0.0,0.0,0.0,0.0,0.0,0.0,0.0,0.0,0.0,0.0,0.0,0.0,0.0,0.0,0.0,0.0,0.0,0.0,0.0,0.0,0.0,0.0,0.0,0.0,0.0,0.0,0.0,0.0,0.0,0.0,0.0,0.0,0.0,0.0,0.0,0.0,0.0,0.0,0.0,0.0,0.0,0.0,0.0,0.0,0.0,0.0,0.0,0.0,0.0,0.0,0.0,0.0,0.0,0.0,0.0,0.0,0.0,0.0,0.0,0.0,0.0,0.0,0.0,0.0,0.0,0.0,0.0,0.0,0.0,0.0,0.0,0.0,0.0,0.0,0.0,0.0,0.0,0.0,0.0,0.0,0.0,0.0,0.0,0.0,0.0,0.0,0.0,0.0,0.0,0.0,0.0,0.0,0.0,0.0,0.0,0.0,0.0,0.0,0.0,0.0,0.0,0.0,0.0,0.0,0.0,0.0,0.0,0.0,0.0,0.0,0.0,0.0,0.0,0.0,0.0,0.0,0.0,0.0,0.0,0.0,0.0,0.0,0.0,0.0,0.0,0.0,0.0,0.0,0.0,0.0,0.0,0.0,0.0,0.0,0.0,0.0,0.0,0.0,0.0,0.0,0.0,0.0,0.0,0.0,0.0,0.0,0.0,0.0,0.0,0.0,0.0,0.0,0.0,0.0,0.0,0.0,0.0,0.0,0.0,0.0,0.0,0.0,0.0,0.0,0.0,0.0,0.0,0.0,0.0,0.0,0.0,0.0,0.0,0.0,0.0,0.0,0.0,0.0,0.0,0.0,0.0,0.0,0.0,0.0,0.0,0.0,0.0,0.0,0.0,0.0,0.0,0.0,0.0,0.0,0.0,0.0,0.0,0.0,0.0,0.0,0.0,0.0,0.0,0.0,0.0,0.0,0.0,0.0,0.0,0.0,0.0,0.0,0.0,0.0,0.0,0.0,0.0,0.0,0.0,0.0,0.0,0.0,0.0,0.0,0.0,0.0,0.0,0.0,0.0,0.0,0.0,0.0,0.0,0.0,0.0,0.0,0.0,0.0,0.0,0.0,0.0,0.0,0.0,0.0,0.0,0.0,0.0,0.0,0.0,0.0,0.0,0.0,0.0,0.0,0.0,0.0,0.0,0.0,0.0,0.0,0.0,0.0,0.0,0.0,0.0,0.0,0.0,0.0,0.0,0.0,0.0,0.0,0.0,0.0,0.0,0.0,0.0,0.0,0.0,0.0,0.0,0.0,0.0,0.0,0.0,0.0,0.0,0.0,0.0,0.0,0.0,0.0,0.0,0.0,0.0,0.0,0.0,0.0,0.0,0.0,0.0,0.0,0.0,0.0,0.0,0.0,0.0,0.0,0.0,0.0,0.0,0.0,0.0,0.0,0.0,0.0,0.0,0.0,0.0,0.0,0.0,0.0,0.0,0.0,0.0,0.0,0.0,0.0,0.0,0.0,0.0,0.0,0.0,0.0,0.0,0.0,0.0,0.0,0.0,0.0,0.0,0.0,0.0,0.0,0.0,0.0,0.0,0.0,0.0,0.0,0.0,0.0,0.0,0.0,0.0,0.0,0.0,0.0,0.0,0.0,0.0,0.0,0.0,0.0,0.0,0.0,0.0,0.0,0.0,0.0,0.0,0.0,0.0,0.0,0.0,0.0,0.0,0.0,0.0,0.0,0.0,0.0,0.0,0.0,0.0,0.0,0.0,0.0,0.0,0.0,0.0,0.0,0.0,0.0,0.0,0.0,0.0,0.0,0.0,0.0,0.0,0.0,0.0,0.0,0.0,0.0,0.0,0.0,0.0,0.0,0.0,0.0,0.0,0.0,0.0,0.0,0.0,0.0,0.0,0.0,0.0,0.0,0.0,0.0,0.0,0.0,0.0,0.0,0.0,0.0,0.0,0.0,0.0,0.0,0.0,0.0,0.0,0.0,0.0,0.0,0.0,0.0,0.0,0.0,0.0,0.0,0.0,0.0,0.0,0.0,0.0,0.0,0.0,0.0,0.0,0.0,0.0,0.0,0.0,0.0,0.0,0.0,0.0,0.0,0.0,0.0,0.0,0.0,0.0,0.0,0.0,0.0,0.0,0.0,0.0,0.0,0.0,0.0,0.0,0.0,0.0,0.0,0.0,0.0,0.0,0.0,0.0,0.0,0.0,0.0,0.0,0.0,0.0,0.0,0.0,0.0,0.0,0.0,0.0,0.0,0.0,0.0,0.0,0.0,0.0,0.0,0.0,0.0,0.0,0.0,0.0,0.0,0.0,0.0,0.0,0.0,0.0,0.0,0.0,0.0,0.0,0.0,0.0,0.0,0.0,0.0,0.0,0.0,0.0,0.0,0.0,0.0,0.0,0.0,0.0,0.0,0.0,0.0,0.0,0.0,0.0,0.0,0.0,0.0,0.0,0.0,0.0,0.0,0.0,0.0,0.0,0.0,0.0,0.0,0.0,0.0,0.0,0.0,0.0,0.0,0.0,0.0,0.0,0.0,0.0,0.0,0.0,0.0,0.0,0.0,0.0,0.0,0.0,0.0,0.0,0.0,0.0,0.0,0.0,0.0,0.0,0.0,0.0,0.0,0.0,0.0,0.0,0.0,0.0,0.0,0.0,0.0,0.0,0.0,0.0,0.0,0.0,0.0,0.0,0.0,0.0,0.0,0.0,0.0,0.0,0.0,0.0,0.0,0.0,0.0,0.0,0.0,0.0,0.0,0.0,0.0,0.0,0.0,0.0,0.0,0.0,0.0,0.0,0.0,0.0,0.0,0.0,0.0,0.0,0.0,0.0,0.0,0.0,0.0,0.0,0.0,0.0,0.0,0.0,0.0,0.0,0.0,0.0,0.0,0.0,0.0,0.0,0.0,0.0,0.0,0.0,0.0,0.0,0.0,0.0,0.0,0.0,0.0,0.0,0.0,0.0,0.0,0.0,0.0,0.0,0.0,0.0,0.0,0.0,0.0,0.0,0.0,0.0,0.0,0.0,0.0,0.0,0.0,0.0,0.0,0.0,0.0,0.0,0.0,0.0,0.0,0.0,0.0,0.0,0.0,0.0,0.0,0.0,0.0,0.0,0.0,0.0,0.0,0.0,0.0,0.0,0.0,0.0,0.0,0.0,0.0,0.0,0.0,0.0,0.0,0.0,0.0,0.0,0.0,0.0,0.0,0.0,0.0,0.0,0.0,0.0,0.0,0.0,0.0,0.0,0.0,0.0,0.0,0.0,0.0,0.0,0.0,0.0,0.0,0.0,0.0,0.0,0.0,0.0,0.0,0.0,0.0,0.0,0.0,0.0,0.0,0.0,0.0,0.0,0.0,0.0,0.0,0.0,0.0,0.0,0.0,0.0,0.0,0.0,0.0,0.0,0.0,0.0,0.0,0.0,0.0,0.0,0.0,0.0,0.0,0.0,0.0,0.0,0.0,0.0,0.0,0.0,0.0,0.0,0.0,0.0,0.0,0.0,0.0,0.0,0.0,0.0,0.0,0.0,0.0,0.0,0.0,0.0,0.0,0.0,0.0,0.0,0.0,0.0,0.0,0.0,0.0,0.0,0.0,0.0,0.0,0.0,0.0,0.0,0.0,0.0,0.0,0.0,0.0,0.0,0.0,0.0,0.0,0.0,0.0,0.0,0.0,0.0,0.0,0.0,0.0,0.0,0.0,0.0,0.0,0.0,0.0,0.0,0.0,0.0,0.0,0.0,0.0,0.0,0.0,0.0,0.0,0.0,0.0,0.0,0.0,0.0,0.0,0.0,0.0,0.0,0.0,0.0,0.0,0.0,0.0,0.0,0.0,0.0,0.0,0.0,0.0,0.0,0.0,0.0,0.0,0.0,0.0,0.0,0.0,0.0,0.0,0.0,0.0,0.0,0.0,0.0,0.0,0.0,0.0,0.0,0.0,0.0,0.0,0.0,0.0,0.0,0.0,0.0,0.0,0.0,0.0,0.0,0.0,0.0,0.0,0.0,0.0,0.0]}],[{"header":{"parameterUnit":"kt","parameterCategory":2,"dx":1,"dy":1,"la1":29.587661999999998,"la2":31.0,"lo1":-88.76705300000003,"lo2":-86.6583820000003,"nx":115,"ny":88,"refTime":"2022-10-05T06:00:00:Z","depth":0,"parameterNumber":2,"parameterNumberName":"V-component_of_WINDS"},"data":[8.3559,8.3559,8.3559,8.3559,8.3608,8.3608,8.3559,8.3559,8.3608,8.3559,8.3705,8.3608,8.3559,8.3559,8.3559,8.3559,8.3559,8.3559,8.3559,8.3559,8.3559,8.3559,8.3559,8.3559,8.3559,8.3559,8.3559,8.3559,8.3559,8.3075,8.2638,8.2468,8.2076,8.1587,8.0876,8.0654,8.0432,8.0256,8.0079,8.0079,8.0079,7.9565,7.9612,7.9191,7.8677,7.8396,7.8069,7.7368,7.7087,7.6994,7.7134,7.7228,7.7321,7.7368,7.7415,7.7508,7.7461,7.7415,7.7274,7.6947,7.676,7.6667,7.6059,7.5965,7.6012,7.6012,7.5965,7.5732,7.5404,7.4423,7.4189,7.4049,7.3955,7.3815,7.3768,7.3768,7.3768,7.3768,7.3768,7.3768,7.3628,7.3348,7.3254,7.2927,7.2927,7.2646,7.2179,7.2132,7.1945,7.1478,7.0963,7.073,7.0299,6.9553,6.9187,6.9,6.8521,6.7679,6.6834,6.6635,6.6524,6.6693,6.8193,6.9765,7.0367,6.9568,6.9706,6.9952,6.9431,6.8728,6.8865,6.8392,6.7133,6.6062,6.5402,8.3559,8.3559,8.3559,8.3559,8.3559,8.3559,8.3559,8.3559,8.3559,8.3559,8.3559,8.3559,8.3559,8.3559,8.3559,8.3559,8.3559,8.3559,8.3559,8.3559,8.3559,8.3559,8.3559,8.3559,8.3559,8.3559,8.3559,8.3559,8.3559,8.3123,8.2687,8.2028,8.1635,8.1366,8.0526,8.0256,7.9975,7.9659,7.9612,7.9845,7.9238,7.8396,7.7882,7.7508,7.7274,7.7228,7.7181,7.7041,7.6994,7.6854,7.662,7.6573,7.6573,7.648,7.6573,7.6526,7.648,7.6526,7.6573,7.5965,7.5778,7.5451,7.461,7.4282,7.4282,7.4282,7.4282,7.4236,7.4236,7.3909,7.3862,7.3768,7.3722,7.3675,7.3675,7.3675,7.3675,7.3675,7.3675,7.3675,7.3161,7.2506,7.2085,7.1524,7.1337,7.115,7.0963,7.0963,7.0823,7.0356,6.9935,6.9654,6.918,6.8621,6.7968,6.7684,6.7632,6.6742,6.636,6.5795,6.5547,6.6453,6.8042,7.0043,7.0136,6.8819,6.8711,6.8647,6.8147,6.7314,6.7269,6.6845,6.5927,6.5463,6.4954,8.3559,8.3559,8.3559,8.3559,8.3559,8.3559,8.3559,8.3559,8.3559,8.3559,8.3559,8.3559,8.3559,8.3559,8.3559,8.3559,8.3559,8.3559,8.3559,8.3559,8.3559,8.351,8.3559,8.3559,8.3412,8.351,8.3559,8.3244,8.2905,8.2857,8.2323,8.1366,8.0876,8.0244,7.9412,7.9144,7.8864,7.8443,7.8256,7.8209,7.8022,7.7648,7.7087,7.6713,7.6526,7.6152,7.6012,7.5498,7.5358,7.5264,7.5358,7.5358,7.5404,7.5404,7.5311,7.5311,7.5358,7.5217,7.5077,7.4843,7.4563,7.4516,7.4002,7.3955,7.3815,7.3488,7.3488,7.3441,7.3441,7.3114,7.3067,7.2927,7.288,7.26,7.2506,7.2506,7.2506,7.2506,7.2506,7.2459,7.2085,7.1478,7.1244,7.0683,7.0589,7.0449,6.9982,6.9935,6.9654,6.9234,6.9,6.8719,6.8201,6.7735,6.7359,6.6932,6.6742,6.6406,6.6022,6.5502,6.5355,6.6258,6.7026,6.7903,6.8175,6.7568,6.7342,6.7188,6.663,6.6333,6.5822,6.5597,6.5223,6.476,6.3957,8.2778,8.2827,8.3022,8.3315,8.351,8.3559,8.3559,8.351,8.3315,8.3119,8.3217,8.3412,8.3559,8.3559,8.3559,8.3559,8.3559,8.3559,8.3559,8.351,8.3119,8.2924,8.3119,8.2583,8.2583,8.2778,8.2778,8.227,8.2007,8.1456,8.0996,8.0292,7.9711,7.9209,7.8209,7.8163,7.7882,7.7368,7.6807,7.6199,7.6199,7.6199,7.6199,7.5919,7.5638,7.5124,7.4843,7.4329,7.4049,7.3815,7.3815,7.3815,7.3815,7.3862,7.3862,7.3815,7.4049,7.4142,7.4095,7.4095,7.4002,7.3909,7.3862,7.3815,7.3628,7.3254,7.3067,7.2974,7.2833,7.2413,7.2132,7.1945,7.1711,7.1291,7.0963,7.0963,7.0963,7.0963,7.0917,7.0776,7.0589,7.0449,7.0356,7.0169,7.0122,6.9701,6.914,6.886,6.8626,6.8341,6.8108,6.7824,6.7405,6.7169,6.6788,6.6597,6.6406,6.6022,6.583,6.5445,6.5058,6.5507,6.5912,6.6277,6.6434,6.6342,6.5984,6.5831,6.5608,6.5357,6.5044,6.4865,6.4492,6.3898,6.2685,8.0679,8.0728,8.1655,8.2583,8.3461,8.3412,8.3412,8.3461,8.2436,8.2046,8.2241,8.3022,8.3315,8.3071,8.3071,8.3119,8.3022,8.3022,8.2973,8.3412,8.2485,8.2094,8.1802,8.1216,8.1265,8.0874,8.0777,8.1053,8.0404,8.0175,7.968,7.8941,7.8276,7.7799,7.7181,7.7134,7.6854,7.6246,7.5311,7.461,7.4423,7.4236,7.4049,7.4189,7.4189,7.4049,7.4002,7.3909,7.3815,7.3815,7.3815,7.3722,7.3675,7.3581,7.3581,7.3535,7.3348,7.3348,7.3301,7.3254,7.3441,7.3535,7.3768,7.3441,7.2833,7.2272,7.1852,7.1711,7.1805,7.1478,7.1104,7.087,7.0543,7.0169,6.9935,6.9935,6.9935,6.9935,6.9935,6.9841,6.9654,6.9374,6.928,6.9047,6.8953,6.8345,6.7972,6.8018,6.7735,6.7354,6.7308,6.7071,6.6788,6.6406,6.6214,6.6214,6.6022,6.583,6.5638,6.5252,6.5103,6.4954,6.4849,6.5206,6.5608,6.5206,6.5117,6.5117,6.4983,6.4537,6.4224,6.409,6.3542,6.2862,6.163,8.0337,8.0435,8.0826,8.1216,8.1558,8.1606,8.1606,8.1509,8.1167,8.0972,8.1021,8.146,8.1606,8.1704,8.1704,8.1704,8.1753,8.185,8.1802,8.1753,8.1167,8.1021,8.0923,8.063,8.0191,8.0337,8.0386,7.9885,8.0016,7.9547,7.8394,7.7709,7.7423,7.6834,7.6199,7.6012,7.5778,7.5077,7.4423,7.3955,7.3909,7.3909,7.3815,7.3909,7.3909,7.3862,7.3862,7.3862,7.3815,7.3815,7.3067,7.2927,7.288,7.2319,7.2039,7.2132,7.2179,7.2179,7.2226,7.2132,7.2039,7.1945,7.1898,7.1945,7.1524,7.115,7.0823,7.0496,7.0543,7.0496,7.0122,6.9748,6.9374,6.9047,6.9,6.9,6.9,6.9,6.8953,6.8953,6.8766,6.8486,6.8252,6.7925,6.7691,6.7691,6.7691,6.7502,6.7312,6.6979,6.6597,6.636,6.6022,6.5683,6.5638,6.5638,6.5445,6.5297,6.5297,6.5103,6.5103,6.4954,6.476,6.476,6.4626,6.4671,6.4671,6.4581,6.4224,6.3912,6.3555,6.2348,6.1104,6.0653,5.9615,7.941,7.9459,7.9752,7.9898,7.9849,7.9556,7.941,7.9508,7.9801,7.9898,7.9898,8.024,8.0581,8.0337,8.0337,8.0386,8.0386,8.0337,8.0289,8.0191,8.0142,7.9996,7.9752,7.9459,7.941,7.9361,7.9106,7.8754,7.8948,7.8277,7.7021,7.6365,7.599,7.5498,7.5171,7.4984,7.4563,7.4142,7.4002,7.3815,7.3815,7.3815,7.3815,7.3628,7.3488,7.3207,7.3067,7.2974,7.2693,7.2787,7.2132,7.1852,7.1852,7.1244,7.0776,7.0776,7.073,7.073,7.0776,7.0776,7.0917,7.101,7.0215,7.0075,6.9888,6.9795,6.9748,6.9467,6.9374,6.9234,6.8906,6.8766,6.8579,6.8345,6.8252,6.8252,6.8252,6.8252,6.8252,6.8205,6.8205,6.7972,6.7925,6.7691,6.7502,6.7502,6.7502,6.7312,6.6932,6.6406,6.6022,6.6022,6.5638,6.5252,6.5252,6.5252,6.5103,6.4865,6.491,6.491,6.482,6.4775,6.4671,6.4492,6.4135,6.409,6.409,6.3644,6.3153,6.2885,6.2096,6.0392,5.8595,5.7877,5.7111,7.7263,7.7409,7.8385,7.8824,7.8629,7.7848,7.7409,7.7409,7.8385,7.8824,7.8873,7.9752,7.9947,8.0142,8.0191,8.0093,7.9996,8.0045,7.9996,7.9801,7.9117,7.8922,7.8532,7.8043,7.7946,7.7402,7.7354,7.754,7.6553,7.6327,7.5869,7.5062,7.4677,7.4376,7.4236,7.4142,7.4049,7.3909,7.3768,7.3722,7.3488,7.3581,7.3441,7.3067,7.274,7.2413,7.2132,7.1758,7.1384,7.1104,7.087,7.0823,7.0776,7.073,7.073,7.0683,7.0543,7.0449,7.0356,7.0262,7.0356,6.9982,6.8953,6.8159,6.8065,6.8345,6.8486,6.8439,6.8439,6.8112,6.7925,6.7878,6.7878,6.7785,6.7691,6.7691,6.7691,6.7691,6.7691,6.7691,6.7691,6.7691,6.7691,6.7502,6.7502,6.7312,6.6932,6.6742,6.6406,6.583,6.5638,6.5445,6.5252,6.4865,6.4865,6.491,6.4626,6.4372,6.4314,6.418,6.4358,6.4314,6.3957,6.3644,6.3466,6.3198,6.2885,6.2528,6.2082,6.1345,6.0608,5.8717,5.5864,5.5093,5.4911,7.7165,7.7214,7.7555,7.7702,7.7653,7.7311,7.7165,7.7214,7.7507,7.7702,7.7799,7.8092,7.8336,7.8336,7.8288,7.8239,7.8288,7.8288,7.8288,7.819,7.7848,7.7848,7.7702,7.7409,7.7165,7.7214,7.6964,7.6714,7.6311,7.5704,7.5093,7.4684,7.4068,7.3815,7.3815,7.3815,7.3815,7.3722,7.3581,7.3441,7.2974,7.274,7.2553,7.1992,7.1571,7.1291,7.1197,7.1057,7.0823,7.0589,7.0262,6.9748,6.9514,6.9234,6.8766,6.8766,6.8766,6.8813,6.886,6.8906,6.9047,6.9,6.8252,6.7738,6.7691,6.7691,6.7691,6.7691,6.7785,6.7738,6.7785,6.7738,6.7738,6.7738,6.7691,6.7691,6.7691,6.7691,6.7691,6.7691,6.7691,6.7691,6.7691,6.7502,6.7123,6.6742,6.6551,6.6214,6.583,6.5297,6.491,6.482,6.482,6.4596,6.4314,6.4314,6.4001,6.3733,6.3466,6.3198,6.3332,6.3332,6.2975,6.2618,6.2439,6.2216,6.1814,6.1088,6.0082,5.9307,5.8018,5.5607,5.3538,5.2819,5.2886,7.6823,7.7165,7.7165,7.697,7.6628,7.6628,7.6823,7.7116,7.7165,7.7165,7.7165,7.7165,7.7165,7.7165,7.7263,7.7311,7.7263,7.7165,7.7165,7.7214,7.7263,7.7165,7.7165,7.7214,7.7165,7.7165,7.6763,7.6311,7.6109,7.5093,7.4684,7.4479,7.4021,7.3815,7.3768,7.3815,7.3535,7.3348,7.3207,7.2833,7.1945,7.1758,7.1478,7.0917,7.0496,7.0262,7.0215,6.9701,6.9467,6.9374,6.9093,6.8719,6.8579,6.8345,6.7831,6.7785,6.7738,6.7691,6.7691,6.7691,6.7691,6.7738,6.7691,6.7691,6.7691,6.7691,6.7691,6.7691,6.7691,6.7691,6.7691,6.7691,6.7691,6.7691,6.7691,6.7691,6.7691,6.7691,6.7691,6.7691,6.7691,6.7691,6.7312,6.6932,6.6597,6.6214,6.5285,6.4858,6.4531,6.4283,6.3957,6.3957,6.3957,6.3867,6.3644,6.3243,6.2885,6.2752,6.2528,6.2305,6.2171,6.2127,6.1948,6.1993,6.1636,6.1234,6.0099,5.9197,5.8245,5.5809,5.3013,5.0371,5.0285,5.0506,5.0756,7.6091,7.7067,7.7019,7.6384,7.5554,7.5505,7.6042,7.6677,7.6774,7.6872,7.697,7.7165,7.7165,7.7165,7.7165,7.7165,7.7165,7.7165,7.7165,7.7165,7.6964,7.6964,7.6964,7.6964,7.6763,7.6763,7.6359,7.5704,7.55,7.4684,7.4227,7.4021,7.3833,7.3488,7.3675,7.3675,7.3207,7.2413,7.2272,7.1665,7.0963,7.073,7.0589,7.0122,6.9561,6.9234,6.9093,6.8626,6.8392,6.8299,6.8065,6.7972,6.7925,6.7785,6.7691,6.7691,6.7691,6.7691,6.7691,6.7691,6.7691,6.7691,6.7691,6.7691,6.7691,6.7691,6.7691,6.7691,6.7691,6.7691,6.7691,6.7691,6.7691,6.7691,6.7691,6.7691,6.7691,6.7691,6.7691,6.7691,6.7502,6.7502,6.6932,6.6551,6.6123,6.5094,6.3981,6.3432,6.3208,6.2885,6.2573,6.2573,6.2618,6.2618,6.2662,6.2216,6.1904,6.177,6.1636,6.1413,6.1234,6.0966,6.1056,6.1368,6.0555,5.9162,5.8222,5.7147,5.4817,5.2499,4.8931,4.7465,4.7596,4.8192,4.8916,7.4578,7.4822,7.4871,7.4676,7.4383,7.4383,7.4578,7.4822,7.492,7.5261,7.6091,7.6872,7.7165,7.7165,7.7165,7.7116,7.7067,7.7165,7.6964,7.6763,7.6561,7.6311,7.6109,7.5907,7.6157,7.5955,7.55,7.5297,7.4889,7.4684,7.4133,7.3646,7.3114,7.2366,7.2039,7.1665,7.1524,7.1291,7.115,7.073,6.9841,6.946,6.932,6.8719,6.8486,6.8252,6.8112,6.7782,6.7502,6.7691,6.7691,6.7691,6.7691,6.7691,6.7691,6.7691,6.7691,6.7691,6.7691,6.7691,6.7691,6.7411,6.7504,6.7504,6.7691,6.7691,6.7411,6.7504,6.7551,6.7691,6.7691,6.7457,6.7364,6.7177,6.7224,6.7177,6.7224,6.6942,6.7036,6.7129,6.7315,6.708,6.6609,6.6092,6.5157,6.3541,6.2806,6.2439,6.2127,6.1725,6.1368,6.1279,6.1323,6.1457,6.1636,6.1368,6.11,6.0922,6.0654,6.0475,6.0163,5.9583,5.9538,5.9624,5.8629,5.7158,5.5629,5.3935,5.1691,4.9094,4.7898,4.6541,4.6853,4.7608,4.8184,7.3504,7.3797,7.2967,7.2919,7.326,7.326,7.3504,7.3846,7.3895,7.4334,7.4969,7.5554,7.5896,7.5994,7.6189,7.653,7.6331,7.6672,7.6513,7.6109,7.5907,7.5704,7.55,7.55,7.5249,7.55,7.5297,7.4889,7.4589,7.4479,7.374,7.2849,7.1992,7.1291,7.0613,7.0122,6.8756,6.8129,6.7458,6.7845,6.7265,6.7378,6.7533,6.7548,6.7691,6.7691,6.7644,6.7502,6.7502,6.7502,6.7502,6.7502,6.7502,6.7691,6.7691,6.7691,6.7691,6.7691,6.7691,6.6943,6.6569,6.6569,6.6569,6.6476,6.6335,6.6476,6.6522,6.6569,6.6382,6.6289,6.6522,6.6569,6.6709,6.6569,6.6476,6.6382,6.6057,6.5732,6.5685,6.5592,6.5732,6.6149,6.5774,6.526,6.3554,6.2045,6.177,6.1591,6.1145,6.0699,6.0252,6.0074,6.0029,6.0163,6.0163,6.0208,6.0297,5.9984,5.9672,5.9538,5.9315,5.8603,5.8027,5.7672,5.7001,5.56,5.3731,5.1387,4.9094,4.7225,4.6156,4.5523,4.6378,4.7198,4.7432,7.2772,7.3504,7.1503,7.1308,7.2187,7.2187,7.2723,7.3358,7.3504,7.3553,7.3748,7.3846,7.38,7.4043,7.4871,7.5015,7.4572,7.5635,7.533,7.5023,7.5059,7.4868,7.4665,7.4618,7.4665,7.4808,7.4225,7.4069,7.4102,7.3271,7.238,7.0765,7.0136,7.0241,6.9323,6.7523,6.5611,6.4257,6.3882,6.4003,6.4352,6.5058,6.5638,6.6932,6.7409,6.7551,6.7362,6.6659,6.652,6.6896,6.6474,6.6474,6.6522,6.6756,6.6756,6.6756,6.6756,6.6756,6.6569,6.5684,6.498,6.4746,6.4886,6.5167,6.526,6.4933,6.4793,6.5073,6.5307,6.512,6.498,6.4793,6.5213,6.5307,6.5494,6.5494,6.5264,6.4849,6.4434,6.3974,6.393,6.3977,6.3699,6.2877,6.1287,6.0881,6.0609,6.052,6.0074,5.9851,5.936,5.9181,5.9092,5.9003,5.8958,5.8914,5.9091,5.9003,5.8647,5.8603,5.8204,5.7849,5.7136,5.6555,5.5473,5.3975,5.2317,4.9849,4.7416,4.5365,4.4493,4.4498,4.517,4.5909,4.6278,7.121,7.1454,7.0918,7.082,7.1064,7.1064,7.1259,7.1503,7.1552,7.1991,7.2479,7.2296,7.2399,7.2882,7.3122,7.3315,7.312,7.3408,7.3111,7.2717,7.2614,7.284,7.2923,7.2393,7.244,7.3051,7.2581,7.1771,7.1771,7.1337,7.0579,6.9701,6.7951,6.7042,6.5715,6.4201,6.305,6.1664,6.1664,6.1652,6.2344,6.3476,6.4403,6.523,6.5862,6.615,6.6243,6.5407,6.476,6.499,6.4852,6.476,6.4714,6.4991,6.5129,6.5129,6.5544,6.5313,6.4575,6.4298,6.4202,6.4291,6.4291,6.4419,6.4512,6.4699,6.4699,6.4465,6.4465,6.4512,6.4699,6.4606,6.4419,6.4372,6.4419,6.4652,6.4699,6.397,6.3377,6.2966,6.2559,6.2377,6.1606,6.0524,5.9985,5.9627,5.9449,5.936,5.9181,5.9092,5.8869,5.8913,5.8869,5.8869,5.8824,5.8647,5.8249,5.7937,5.7759,5.7493,5.6957,5.6376,5.6016,5.5111,5.4016,5.2502,5.0639,4.8181,4.5753,4.4782,4.4263,4.3971,4.3973,4.427,4.4732,7.0283,7.0674,7.0674,7.0674,7.0674,7.049,7.0354,7.0354,7.0169,7.046,7.0757,7.0666,7.0766,7.1104,7.1534,7.1678,7.158,7.2009,7.176,7.1462,7.1312,7.1349,7.1384,7.1104,7.0963,7.1431,7.101,7.0122,6.8149,6.7533,6.7139,6.6205,6.4877,6.3851,6.3238,6.1042,6.0159,5.9758,5.9114,5.879,5.9378,5.9945,6.0856,6.1391,6.285,6.3232,6.3513,6.3152,6.3381,6.3518,6.3335,6.3153,6.3335,6.3335,6.3518,6.37,6.4109,6.3697,6.274,6.3055,6.2865,6.2904,6.2719,6.326,6.3343,6.325,6.325,6.339,6.3343,6.3297,6.325,6.3343,6.3343,6.3297,6.284,6.2757,6.258,6.2363,6.2235,6.1919,6.1423,6.0838,6.012,5.9582,5.9226,5.9136,5.9092,5.9003,5.8869,5.8735,5.8735,5.8735,5.8735,5.8558,5.8558,5.8204,5.7672,5.7315,5.7136,5.6376,5.5835,5.5111,5.4565,5.3833,5.2542,5.0639,4.8941,4.7069,4.5559,4.4782,4.4034,4.3871,4.3971,4.4172,4.4337,6.9944,7.0648,7.0648,7.0563,7.0429,6.9927,6.9839,6.9799,6.9427,6.9241,6.9571,6.9288,6.9149,6.9435,7.015,7.0007,7.0052,7.0331,7.0419,7.0177,7.0075,7.0215,7.0543,7.0496,7.0169,7.0075,6.9982,6.8065,6.6709,6.5163,6.4081,6.3542,6.2846,6.127,6.0662,5.8626,5.7577,5.7051,5.5623,5.5071,5.562,5.5855,5.6505,5.7495,5.9034,6.0257,6.0629,6.0917,6.1741,6.2196,6.2105,6.2286,6.2787,6.2787,6.297,6.3016,6.3106,6.2785,6.1512,6.164,6.1541,6.1036,6.098,6.1096,6.1548,6.1768,6.1894,6.1567,6.1661,6.1848,6.1941,6.1707,6.1614,6.1581,6.1687,6.1374,6.098,6.1181,6.0691,6.0247,6.0251,5.9626,5.9269,5.8913,5.8735,5.8735,5.8735,5.8779,5.8735,5.8735,5.8735,5.8558,5.8558,5.8204,5.8027,5.7493,5.6957,5.6598,5.6196,5.5473,5.4929,5.4423,5.3649,5.2357,5.0677,4.8979,4.7261,4.6105,4.5365,4.4587,4.4034,4.4034,4.3838,4.4034,4.3971,7.1084,7.0087,7.0087,6.9639,6.8994,6.8728,6.898,6.9331,6.9145,6.9145,6.9241,6.8819,6.8632,6.8539,6.8492,6.8208,6.8208,6.8396,6.8486,6.8532,6.8532,6.886,6.9093,6.886,6.8486,6.8579,6.7878,6.7083,6.6057,6.5586,6.524,6.3335,6.1845,6.0464,5.7856,5.5975,5.4252,5.3418,5.2548,5.2107,5.2561,5.3611,5.471,5.5059,5.5716,5.722,5.8472,5.8404,5.8821,5.9895,6.0341,6.0343,6.0793,6.129,6.129,6.0928,6.0928,6.0344,5.976,6.0021,6.0418,6.0008,6.0182,6.0402,6.0576,6.0877,6.1223,6.1395,6.1395,6.1223,6.1395,6.1567,6.1395,6.105,6.0877,6.0704,6.0356,5.9833,5.9438,5.9263,5.8911,5.8824,5.8869,5.8735,5.8735,5.8735,5.8735,5.8735,5.8735,5.8735,5.8558,5.8558,5.8204,5.7849,5.7315,5.6778,5.6239,5.5697,5.5153,5.4382,5.3874,5.3506,5.2397,5.1239,4.9395,4.7453,4.5753,4.423,4.4,4.3804,4.3838,4.3838,4.3445,4.3249,4.3608,7.1111,7.0623,7.0623,7.0471,7.0115,6.9692,6.9285,6.8883,6.839,6.8133,6.7779,6.755,6.7598,6.7974,6.7691,6.7691,6.7691,6.7691,6.7691,6.7691,6.7691,6.8065,6.8299,6.8018,6.7738,6.727,6.6195,6.522,6.416,6.3277,6.0901,5.9679,5.7918,5.6298,5.4391,5.3314,5.2361,5.1608,5.1386,5.1038,5.0742,5.0953,5.113,5.1447,5.2058,5.3929,5.5656,5.5739,5.7093,5.8824,5.9536,5.9896,6.0478,6.0881,6.1377,6.1239,6.1377,6.0928,5.9896,5.985,5.9844,5.9528,5.9613,6.0008,6.0228,6.0402,6.0704,6.0877,6.0704,6.0704,6.0877,6.0877,6.0877,6.053,6.0356,6.0137,5.9788,5.9438,5.9263,5.9087,5.8911,5.8735,5.8735,5.8735,5.8735,5.8735,5.8735,5.8735,5.8735,5.8558,5.8381,5.8204,5.7672,5.7315,5.6555,5.5878,5.5153,5.4788,5.424,5.3137,5.2582,5.2025,5.1091,4.9547,4.7835,4.5912,4.4196,4.3216,4.2625,4.2428,4.2428,4.246,4.246,4.2625,4.2954,7.1043,7.1225,7.1225,7.1163,7.1319,7.0535,6.9503,6.835,6.8075,6.7053,6.6052,6.6282,6.6752,6.6896,6.7177,6.7177,6.699,6.7177,6.7317,6.7317,6.7644,6.7691,6.7878,6.7691,6.7411,6.685,6.5728,6.3743,6.1696,5.8743,5.8648,5.5607,5.4242,5.2826,5.2157,5.1486,5.1015,5.0212,4.9977,4.9757,4.9268,4.9049,4.8636,4.8199,4.943,5.0981,5.2542,5.4382,5.6196,5.8115,5.9537,6.0163,6.0475,6.1413,6.1636,6.1413,6.1511,6.1018,5.9851,6.0209,6.0028,5.9709,5.9613,5.9962,6.0008,6.0182,6.0356,6.0356,6.0054,6.0228,6.0228,6.0402,6.0228,6.0008,5.9833,5.9613,5.9263,5.9087,5.8735,5.8911,5.8735,5.8735,5.8735,5.8735,5.8735,5.8735,5.8735,5.8735,5.8381,5.8204,5.7939,5.7362,5.7049,5.629,5.5527,5.4804,5.4117,5.371,5.3506,5.2582,5.2064,5.1278,4.9168,4.7033,4.5296,4.3967,4.3216,4.223,4.1637,4.1637,4.1041,4.0643,4.0582,4.0489,4.125,7.1903,7.0621,7.0621,7.0097,6.9469,6.9407,6.8696,6.7905,6.8745,6.7655,6.5608,6.6456,6.629,6.5395,6.5307,6.5213,6.5447,6.5961,6.6429,6.6522,6.7037,6.7317,6.7364,6.7224,6.6756,6.526,6.4746,6.4198,6.3015,6.1965,5.8391,5.731,5.5447,5.272,5.0934,5.0236,4.9623,4.8527,4.849,4.8151,4.762,4.7584,4.7355,4.714,4.7908,4.8826,5.0677,5.2502,5.4341,5.6239,5.8817,6.0027,6.0699,6.1725,6.235,6.0475,6.0252,5.9896,5.9003,5.9001,5.9177,5.9001,5.9697,6.0045,5.9697,6.0082,6.03,6.0045,6.0008,6.0576,6.0228,6.0228,6.0008,5.9613,5.9613,5.9263,5.8911,5.8735,5.8735,5.8735,5.8735,5.8601,5.8601,5.8512,5.8645,5.8735,5.8735,5.8558,5.7849,5.745,5.6611,5.6125,5.5598,5.4977,5.4081,5.34,5.3059,5.2998,5.3281,5.2767,5.2437,5.0528,4.8027,4.5296,4.3346,4.2198,4.1438,4.1041,4.0842,4.0873,4.0475,3.9845,3.9325,3.8777,3.8678,7.2333,7.1522,7.137,7.1081,7.0941,7.068,6.983,6.9058,6.9488,6.7974,6.5956,6.6053,6.5738,6.488,6.4699,6.4699,6.4839,6.5213,6.54,6.5541,6.5821,6.6148,6.6102,6.5961,6.5774,6.4839,6.4185,6.2602,6.0881,5.9022,5.7194,5.3741,5.2408,5.0988,4.9071,4.8647,4.8236,4.7525,4.7297,4.7333,4.714,4.6948,4.6948,4.6948,4.714,4.7872,4.9736,5.176,5.3792,5.6047,5.8592,5.9895,5.927,5.9984,5.9717,5.8333,5.7887,5.7574,5.7568,5.7686,5.8334,5.8152,5.9335,5.9503,5.9717,6.0398,6.0801,6.0432,6.0758,6.113,6.0704,6.0137,5.9483,5.9087,5.9087,5.8911,5.8735,5.8735,5.8735,5.8735,5.8601,5.8422,5.8155,5.7887,5.7887,5.6704,5.6704,5.6313,5.5702,5.5437,5.4823,5.4334,5.3853,5.3498,5.2646,5.249,5.2188,5.251,5.2647,5.2397,5.1006,4.8755,4.6578,4.4679,4.2528,4.1407,3.9802,3.9845,3.9645,3.9325,3.9066,3.8784,3.8495,3.7945,3.7594,7.2483,7.2333,7.2086,7.2032,7.2333,7.2032,7.1119,6.9883,6.9883,6.8506,6.6436,6.5911,6.5423,6.4616,6.3989,6.4045,6.3858,6.3904,6.4232,6.4325,6.4559,6.4559,6.4045,6.4045,6.3998,6.3764,6.311,6.0969,5.8273,5.6666,5.3608,5.0416,4.9811,4.8482,4.7753,4.7789,4.7333,4.714,4.714,4.714,4.6948,4.6948,4.6948,4.6948,4.6948,4.7872,4.9358,5.1574,5.3425,5.4913,5.7158,5.8201,5.7277,5.7849,5.7797,5.6592,5.6191,5.6325,5.6404,5.7775,5.8566,5.8843,6.0102,6.0467,6.0209,6.0974,6.1377,6.0952,6.1477,6.126,6.0416,5.9233,5.8587,5.8419,5.8333,5.8463,5.8458,5.8195,5.7931,5.7976,5.7931,5.7842,5.6956,5.6696,5.6043,5.4745,5.4231,5.3803,5.3546,5.3157,5.2764,5.2273,5.1962,5.2209,5.162,5.1805,5.1987,5.2389,5.2198,5.1839,4.8495,4.5678,4.3985,4.2428,4.1453,3.9922,3.8213,3.7996,3.8194,3.7489,3.712,3.7175,3.7229,3.7229,3.6715,7.2388,7.188,7.188,7.1935,7.2032,7.188,7.1065,6.9986,7.0912,6.9727,6.7289,6.6589,6.5906,6.4139,6.3259,6.2161,6.2161,6.2395,6.2596,6.3343,6.3858,6.3624,6.2362,6.2268,6.2222,6.2128,6.1848,5.997,5.7668,5.5739,5.3568,5.0826,4.8635,4.7872,4.7489,4.7297,4.714,4.6948,4.6948,4.6948,4.6948,4.6948,4.6948,4.6948,4.6948,4.7333,4.8254,5.0639,5.2092,5.0677,5.4282,5.5547,5.5265,5.6572,5.6645,5.6012,5.6369,5.6905,5.7515,5.9073,6.0401,6.0679,6.2621,6.3548,6.1822,6.2214,6.2279,6.0791,5.9809,6.04,5.9958,5.8738,5.8203,5.7948,5.7568,5.7677,5.7593,5.6773,5.6102,5.6102,5.6146,5.5764,5.5168,5.4785,5.4528,5.2946,5.2608,5.2353,5.1838,5.1666,5.1232,5.0701,5.0769,5.0755,5.1078,5.1222,5.1544,5.1947,5.168,5.0237,4.6787,4.3438,4.1319,3.996,3.9153,3.7992,3.6709,3.6399,3.6284,3.5982,3.6267,3.6096,3.5868,3.5982,3.5649,7.2536,7.2183,7.2032,7.188,7.188,7.188,7.1577,7.1065,7.1577,7.045,6.868,6.8311,6.7245,6.5128,6.368,6.3007,6.2546,6.191,6.1801,6.2315,6.2736,6.2455,6.1801,6.1223,6.1223,6.1004,6.0091,5.8293,5.6333,5.4299,5.1946,4.9736,4.8254,4.7489,4.7333,4.714,4.6948,4.6948,4.6948,4.6948,4.6948,4.6948,4.6948,4.6948,4.6948,4.6948,4.7333,4.9736,5.0594,5.0392,5.2792,5.4349,5.3247,5.5086,5.5968,5.512,5.5878,5.6966,5.773,5.9084,6.0527,6.161,6.3023,6.3365,6.3057,6.3614,6.4183,6.2898,6.2947,6.2419,6.163,6.0711,5.9694,5.8526,5.7378,5.6984,5.7708,5.6533,5.5912,5.5789,5.5744,5.5276,5.3824,5.378,5.2685,5.1507,5.0962,5.0706,5.0312,5.0222,4.9999,5.0404,5.0553,5.0472,5.0498,5.0216,5.0337,5.082,5.0525,4.9252,4.5616,4.1587,3.936,3.7407,3.6675,3.6188,3.6112,3.5919,3.5442,3.5328,3.5555,3.5584,3.5335,3.5363,3.4428,7.2764,7.2676,7.2196,7.188,7.188,7.188,7.188,7.188,7.188,7.1434,7.0621,7.0098,6.8883,6.7219,6.5574,6.421,6.344,6.2205,6.1567,6.152,6.152,6.1348,6.1348,6.0877,6.0704,6.053,5.9438,5.7271,5.4664,5.3425,5.1052,4.8063,4.768,4.7333,4.714,4.714,4.6948,4.6948,4.6948,4.6948,4.6948,4.6948,4.6948,4.6948,4.6948,4.6948,4.714,4.8445,4.8869,4.8643,5.1504,5.2638,5.1674,5.3831,5.5298,5.5075,5.57,5.6909,5.8288,5.9677,6.129,6.2529,6.4092,6.4272,6.412,6.4831,6.5034,6.4831,6.4831,6.4106,6.2917,6.1642,6.0581,5.9394,5.8585,5.792,5.7567,5.6298,5.503,5.4986,5.4445,5.343,5.2291,5.1746,5.108,4.9295,4.8881,4.8713,4.8824,4.8857,4.8898,4.9412,4.9894,4.9894,4.9814,4.9371,4.9331,4.9935,4.8669,4.728,4.4026,3.9623,3.6964,3.5335,3.5379,3.5105,3.5118,3.5157,3.5072,3.4787,3.4844,3.4759,3.4628,3.458,3.3823,7.2338,7.2998,7.2219,7.1717,7.1771,7.1771,7.1826,7.188,7.188,7.2274,7.2781,7.1685,7.0998,7.0034,6.742,6.5419,6.3945,6.2498,6.1863,6.1567,6.1223,6.0877,6.0877,6.053,6.0402,6.0228,5.9658,5.745,5.3975,5.3056,5.1387,4.7717,4.714,4.714,4.714,4.6948,4.6948,4.6948,4.6948,4.6948,4.6755,4.6948,4.6948,4.6755,4.6755,4.6948,4.6948,4.714,4.7105,4.7427,4.8839,5.0081,5.0803,5.2981,5.4986,5.5655,5.6637,5.7756,5.9259,6.0787,6.2691,6.4222,6.5257,6.6254,6.5034,6.4933,6.478,6.417,6.3866,6.3408,6.229,6.1227,6.0019,5.8979,5.9726,5.9574,5.7827,5.5007,5.3814,5.3085,5.1622,5.0279,4.9788,4.9624,4.8924,4.8098,4.7807,4.7969,4.8084,4.8245,4.7963,4.8245,4.8848,4.913,4.9814,4.9239,4.8694,4.8451,4.6356,4.4755,4.2073,3.7745,3.4214,3.43,3.43,3.406,3.3934,3.4133,3.4162,3.4247,3.4133,3.3849,3.3722,3.3949,3.332,7.0704,7.0426,6.9444,6.9485,7.0435,7.0489,7.102,7.1826,7.188,7.2154,7.2492,7.268,7.2157,7.1101,6.993,6.7778,6.5343,6.3799,6.2498,6.1176,6.0704,6.053,6.0402,6.0402,6.0054,5.9483,5.7271,5.525,5.3608,5.1201,4.8979,4.7717,4.714,4.6948,4.6948,4.6948,4.6948,4.6948,4.6948,4.6369,4.5365,4.4976,4.4976,4.4976,4.4976,4.5753,4.6948,4.5753,4.4976,4.5089,4.5937,4.7509,4.9544,5.2556,5.4807,5.5655,5.6315,5.7335,5.9325,6.0407,6.1646,6.3674,6.4466,6.4577,6.4323,6.4221,6.4526,6.4424,6.4018,6.3662,6.3815,6.2896,6.1483,5.9675,6.037,5.9826,5.8036,5.5812,5.4261,5.3002,5.2207,5.062,4.9118,4.8468,4.8471,4.7242,4.7359,4.7802,4.8406,4.8486,4.9009,4.9251,4.8888,4.8969,4.9573,4.8933,4.8309,4.6497,4.4385,4.2523,4.1369,3.7274,3.4594,3.4891,3.3905,3.3876,3.3365,3.3451,3.3422,3.3678,3.3792,3.3564,3.3451,3.3411,3.3048,6.9767,6.9218,6.8188,6.8323,6.8741,6.8795,6.9376,7.0435,7.1075,7.1402,7.1947,7.3137,7.2937,7.1936,7.1316,6.9133,6.6049,6.5293,6.368,6.152,6.0877,6.053,6.0008,5.9833,5.9658,5.869,5.6333,5.4705,5.3241,5.0826,4.8408,4.7489,4.714,4.6948,4.6948,4.6948,4.6948,4.6948,4.6369,4.5365,4.4,4.3183,4.279,4.279,4.279,4.3379,4.4942,4.4121,4.3571,4.3771,4.4328,4.5827,4.8918,5.1965,5.4147,5.5443,5.5789,5.6955,5.92,5.9892,6.0899,6.2892,6.3561,6.351,6.351,6.3561,6.3916,6.4424,6.4069,6.3612,6.4018,6.3459,6.2241,6.0623,6.0421,5.9828,5.8186,5.7082,5.5658,5.4059,5.264,5.1101,4.9111,4.8183,4.8141,4.7078,4.7359,4.7842,4.8406,4.8446,4.8929,4.9331,4.9412,4.909,4.8336,4.7506,4.6812,4.5329,4.3231,4.1193,4.0431,3.845,3.6968,3.602,3.4619,3.3797,3.3145,3.2939,3.2853,3.2967,3.3024,3.3081,3.3109,3.2723,3.2337,7.0092,6.9821,6.9218,6.8027,6.7368,6.7314,6.7314,6.7745,6.8957,7.0026,7.0947,7.261,7.2572,7.2108,7.1158,6.8978,6.5899,6.5961,6.4699,6.2063,6.1474,6.0658,5.9438,5.9087,5.8911,5.8735,5.8558,5.6512,5.3016,5.2317,5.0263,4.7717,4.714,4.6948,4.6948,4.6948,4.6948,4.6369,4.4976,4.3771,4.3379,4.1573,4.0582,4.0582,4.0352,4.0489,4.0458,4.188,4.2653,4.3472,4.4071,4.5827,4.8614,5.071,5.2852,5.5143,5.57,5.6984,5.9058,5.9445,6.0461,6.2694,6.3357,6.3103,6.29,6.3002,6.3154,6.3307,6.3256,6.3103,6.2241,6.1886,6.1332,6.0727,6.0428,5.9878,5.8833,5.8486,5.7687,5.5457,5.2912,5.0512,4.9821,4.8882,4.7892,4.7605,4.7561,4.7802,4.7923,4.7963,4.7802,4.7883,4.8164,4.8237,4.7162,4.5889,4.5128,4.4078,4.1883,4.0052,3.9466,3.7611,3.5802,3.5973,3.4456,3.3445,3.298,3.2398,3.2313,3.2256,3.2085,3.2114,3.211,3.1901,3.1577,6.8725,6.7245,6.6325,6.5728,6.5698,6.5355,6.5834,6.6874,6.71,6.7474,6.8007,6.9226,6.9127,6.8449,6.9568,6.7631,6.3674,6.4594,6.3599,6.0829,6.0851,6.0311,5.9087,5.8735,5.8735,5.8735,5.8735,5.6692,5.32,5.1574,4.9547,4.714,4.6948,4.6948,4.6948,4.6948,4.614,4.4976,4.4196,4.2166,3.9585,3.8784,3.8383,3.8124,3.6578,3.559,3.5175,3.7302,3.9297,4.0913,4.1918,4.4017,4.7418,4.9662,5.1946,5.43,5.4227,5.4905,5.7067,5.7533,5.866,6.0977,6.1274,6.0919,6.0258,6.0207,6.0467,6.0825,6.0878,6.1534,6.1582,6.088,5.9878,5.9679,5.9529,5.9231,5.8635,5.8436,5.8036,5.693,5.4885,5.2442,5.0147,4.9406,4.847,4.704,4.74,4.7681,4.7722,4.7722,4.7722,4.7722,4.7641,4.7475,4.6442,4.413,4.2789,4.2073,4.0282,3.9217,3.8048,3.5298,3.3771,3.476,3.4421,3.3459,3.2745,3.203,3.1858,3.1858,3.1659,3.1459,3.1459,3.1085,3.0049,6.7152,6.5731,6.472,6.427,6.4095,6.3756,6.4231,6.5064,6.5342,6.5353,6.5415,6.6566,6.6671,6.5739,6.6484,6.5047,6.2385,6.3602,6.2837,6.0783,6.0406,5.9721,5.8354,5.7837,5.7664,5.7753,5.8065,5.639,5.2976,5.1574,4.9736,4.7525,4.6948,4.6948,4.6948,4.6948,4.6334,4.4976,4.3379,4.1375,3.8784,3.6972,3.5942,3.5529,3.3798,3.2644,3.2463,3.4704,3.7057,3.9192,4.0455,4.2642,4.5568,4.8027,5.0691,5.3368,5.329,5.3994,5.6072,5.653,5.7443,5.9409,5.9649,5.9048,5.8085,5.769,5.7801,5.822,5.8621,5.9079,5.9827,5.9379,5.8635,5.8635,5.8635,5.8486,5.8336,5.8336,5.8186,5.7886,5.7082,5.4807,5.1589,5.0128,4.9327,4.7366,4.7359,4.7641,4.7722,4.7722,4.7561,4.7359,4.7074,4.6458,4.519,4.2363,4.0884,4.0378,3.9552,3.851,3.7321,3.4882,3.3468,3.4391,3.315,3.2191,3.2416,3.1723,3.0919,3.0976,3.0809,3.0724,3.1175,3.0165,2.9012,6.5836,6.5775,6.472,6.3612,6.261,6.261,6.2326,6.2303,6.3482,6.3902,6.3766,6.5004,6.5327,6.4421,6.2793,6.1884,6.1835,6.2951,6.2687,6.1277,6.0421,5.9085,5.7662,5.6457,5.5834,5.6146,5.6905,5.5832,5.3282,5.2671,5.071,4.7153,4.6926,4.677,4.6734,4.6698,4.6805,4.5475,4.2334,4.0229,3.9464,3.6052,3.3702,3.2762,3.1943,3.1917,3.2396,3.3767,3.5841,3.8324,3.9558,4.1232,4.324,4.5882,4.884,5.1931,5.2729,5.3902,5.6072,5.6339,5.7005,5.8213,5.8439,5.7741,5.654,5.6389,5.6162,5.5743,5.664,5.7044,5.6861,5.7401,5.7841,5.8036,5.7886,5.7886,5.7935,5.7886,5.7886,5.7886,5.7735,5.6377,5.3341,5.1318,4.97,4.8098,4.7681,4.7641,4.7601,4.7561,4.7199,4.6472,4.5787,4.4498,4.1554,4.0997,4.0933,3.9687,3.8412,3.7954,3.6697,3.5507,3.4481,3.3601,3.1973,3.1389,3.1752,3.1461,3.0505,3.0045,2.9938,2.9746,2.9942,2.909,2.8566,6.5511,6.472,6.4403,6.3468,6.2132,6.1509,6.1221,6.1325,6.1293,6.125,6.1302,6.1609,6.1712,6.1366,6.0964,6.0665,6.0817,6.1833,6.1582,6.0557,6.0826,5.9892,5.7826,5.7286,5.6623,5.6001,5.6057,5.5816,5.4793,5.2314,4.965,4.7374,4.5793,4.5237,4.5272,4.5237,4.3711,4.1006,3.9833,3.7561,3.5064,3.3521,3.2592,3.1917,3.1709,3.1502,3.1268,3.2041,3.3767,3.6396,3.7064,3.87,4.1659,4.3733,4.6095,4.8799,5.0797,5.3173,5.633,5.5144,5.5496,5.8003,5.7488,5.644,5.5395,5.4957,5.4598,5.4323,5.5071,5.5898,5.6323,5.6612,5.7056,5.7788,5.7886,5.7886,5.7886,5.7886,5.7886,5.7886,5.7886,5.7433,5.632,5.3746,5.0674,4.8305,4.7641,4.7561,4.6957,4.6756,4.6272,4.527,4.4951,4.321,3.984,4.0002,3.9853,3.8323,3.6609,3.607,3.552,3.2777,3.1211,3.1981,3.0861,3.0246,3.0759,3.0598,3.0066,2.9522,2.9197,2.9062,2.9141,2.8491,2.8298,6.2768,6.2135,6.2135,6.1626,6.0578,5.9967,5.9802,6.007,5.9835,5.9946,6.0157,5.975,5.9801,6.0207,6.0207,6.0207,6.0258,6.0919,6.0777,6.0028,6.0168,5.9225,5.7332,5.6853,5.5887,5.4629,5.503,5.5209,5.4588,5.1749,4.8767,4.6196,4.5143,4.4448,4.4448,4.4448,4.2905,3.9861,3.8889,3.6352,3.2385,3.1787,3.1606,3.132,3.1294,3.1112,3.0852,3.1086,3.223,3.4304,3.5308,3.7093,3.9566,4.2282,4.4715,4.6957,4.9466,5.2352,5.5559,5.4185,5.4331,5.702,5.6275,5.5194,5.387,5.3986,5.372,5.3147,5.407,5.4926,5.5134,5.5336,5.5836,5.647,5.6959,5.7203,5.7251,5.7642,5.7886,5.7886,5.7886,5.7886,5.7433,5.4838,5.1348,4.802,4.6796,4.6394,4.5991,4.5871,4.5309,4.4274,4.3291,4.1158,3.7941,3.8115,3.7655,3.6109,3.4513,3.4042,3.3569,3.1532,2.998,3.0009,2.998,2.998,3.0171,3.0009,2.9818,2.9494,2.8979,2.8816,2.8654,2.7458,2.6171,5.9076,5.8837,5.9047,5.8756,5.8301,5.8135,5.8346,5.8891,5.8853,5.9273,5.9699,5.8988,5.914,6.0004,6.0157,6.0207,6.0258,6.0207,6.0258,6.0112,5.8981,5.7938,5.6826,5.5551,5.4307,5.3385,5.387,5.4272,5.4153,5.142,4.8317,4.5072,4.4381,4.4164,4.4199,4.3981,4.3032,4.1375,3.9108,3.5695,3.1011,3.0774,3.0774,3.0774,3.0774,3.0774,3.0774,3.0723,3.1192,3.2647,3.4324,3.5897,3.7312,4.0957,4.4088,4.6152,4.8377,5.0853,5.3676,5.3228,5.3365,5.4826,5.4725,5.382,5.2655,5.3552,5.345,5.2799,5.3949,5.4435,5.3308,5.3918,5.4464,5.4616,5.5494,5.608,5.6178,5.7007,5.7642,5.7739,5.7447,5.7642,5.6944,5.4267,5.0782,4.7279,4.6069,4.5267,4.5026,4.4945,4.4467,4.3126,4.1502,3.899,3.6265,3.642,3.592,3.3411,3.2459,3.2936,3.2936,3.1692,3.0304,3.1081,3.0627,3.0627,3.0627,3.0142,3.0304,3.0275,3.0275,2.9628,2.8626,2.6639,2.4614,5.9022,5.7417,5.7936,5.7564,5.649,5.6959,5.7282,5.7399,5.7399,5.7552,5.7769,5.8327,5.8683,5.9039,5.9852,6.0207,6.0207,6.0207,6.0207,6.0207,5.9915,5.9129,5.7938,5.6682,5.5504,5.4353,5.3634,5.329,5.2925,5.1068,4.9002,4.6851,4.4138,4.2601,4.2601,4.1332,3.9698,3.7723,3.5726,3.3384,3.0774,3.0774,3.0774,3.0774,3.0774,3.0774,3.0749,3.0333,3.0436,3.1219,3.3388,3.4899,3.5928,3.8306,4.1428,4.4791,4.5252,4.653,4.9491,5.0441,5.2049,5.454,5.362,5.2754,5.2241,5.3966,5.4943,5.4818,5.5099,5.4961,5.3856,5.3653,5.3552,5.3485,5.4372,5.4909,5.5006,5.5201,5.5641,5.6373,5.5885,5.5254,5.4555,5.2336,4.9717,4.7655,4.6129,4.49,4.4181,4.3712,4.3086,4.1767,3.994,3.7655,3.5608,3.5296,3.467,3.2936,3.2459,3.2777,3.3411,3.2936,3.23,3.2936,3.249,3.2141,3.3252,3.2618,3.1951,3.1829,3.1799,3.1572,2.9649,2.7543,2.6096,5.7019,5.5877,5.6266,5.59,5.4992,5.5475,5.5769,5.6041,5.5584,5.55,5.587,5.6477,5.7286,5.8297,5.8904,5.9301,5.9496,5.9301,5.9301,5.9496,5.9301,5.8973,5.8189,5.7137,5.5918,5.4775,5.3521,5.2933,5.2774,5.104,4.9251,4.7601,4.4744,4.2898,4.2069,4.0465,3.8462,3.6536,3.4117,3.2282,3.1164,3.1164,3.1164,3.1164,3.0904,3.0774,3.0774,3.0229,2.9943,2.9995,3.1968,3.324,3.356,3.602,3.9275,4.3545,4.381,4.5021,4.7988,4.9926,5.1661,5.3,5.2687,5.2306,5.1758,5.3524,5.4749,5.4699,5.5848,5.5759,5.3848,5.3479,5.305,5.2495,5.281,5.3152,5.3152,5.3152,5.3396,5.3884,5.3542,5.3312,5.3615,5.097,4.8695,4.7995,4.5921,4.41,4.3255,4.1884,4.0624,3.9751,3.7962,3.592,3.4199,3.3884,3.3094,3.1532,3.1372,3.1692,3.2331,3.2012,3.1692,3.2331,3.2012,3.1731,3.187,3.1398,3.0746,3.0753,3.0447,2.998,2.8441,2.7389,2.6197,5.4709,5.4581,5.4454,5.4274,5.3966,5.4017,5.4321,5.4822,5.3827,5.3666,5.4305,5.4455,5.556,5.7366,5.7668,5.7961,5.8297,5.7961,5.7961,5.8297,5.781,5.7831,5.8141,5.6895,5.5824,5.4885,5.3521,5.2774,5.257,5.0878,4.921,4.7601,4.5759,4.3891,4.2069,4.008,3.8108,3.6177,3.3107,3.1502,3.1528,3.1502,3.1339,3.1201,3.0874,3.0564,3.0195,2.9945,2.958,2.9287,3.0768,3.1644,3.1498,3.4142,3.7532,4.1714,4.241,4.4043,4.708,4.9507,5.0761,5.0634,5.1459,5.1817,5.1168,5.2373,5.3101,5.3274,5.5166,5.5678,5.3248,5.2994,5.2634,5.1548,5.1479,5.1577,5.1675,5.1675,5.1822,5.1931,5.1528,5.1639,5.1741,4.9598,4.7764,4.7022,4.4927,4.3285,4.2124,3.994,3.8232,3.7619,3.592,3.4199,3.2936,3.23,3.1532,3.0142,3.0142,3.0275,3.0584,3.0554,3.0655,3.0467,3.0509,3.0204,3.0077,2.9367,2.9165,2.8608,2.8493,2.7675,2.6172,2.5681,2.5094,5.5112,5.4146,5.3811,5.363,5.3501,5.3501,5.3653,5.3806,0.0,0.0,0.0,5.3886,5.4485,5.4984,5.6732,5.7531,5.7531,5.7531,5.7531,5.7531,5.6632,5.6782,5.7925,5.5881,5.4964,5.5102,5.3679,5.241,5.1727,5.0717,4.9251,4.7601,4.5759,4.3891,4.2069,3.8848,3.6177,3.4223,3.1959,3.093,3.093,3.093,3.0203,2.8915,3.0127,2.9825,2.813,2.8868,2.919,2.9261,3.0913,3.1818,3.192,3.3759,3.6241,3.9312,3.8501,3.9639,4.3639,4.5539,4.6751,4.7482,4.8865,4.9514,4.9131,4.9385,4.9921,5.0847,5.2146,5.2081,4.9573,5.094,5.1504,5.0238,5.099,5.1528,5.1528,5.1577,5.1724,5.2371,5.1053,4.9627,4.8674,4.7248,4.5393,4.3141,4.2946,4.2761,4.1766,3.994,3.7926,3.6196,3.4167,3.2777,3.23,3.1372,3.0304,2.9952,2.9952,3.0263,3.0873,3.116,3.1563,3.1917,3.1243,3.0911,3.1833,3.0906,3.0395,3.0899,3.1016,2.9912,2.6202,2.4601,2.4162,5.4402,0.0,5.3501,5.3371,0.0,5.3371,5.3371,5.332,5.2556,5.2218,5.2291,5.2787,5.3332,5.4013,5.4967,5.5603,5.5743,5.5603,5.5603,5.5743,5.5057,5.5494,5.6824,5.4673,5.3738,5.391,5.1832,5.106,5.1501,5.0667,4.9279,4.7641,4.6767,4.5141,4.2813,3.9577,3.6529,3.3195,3.1508,3.093,3.119,3.1216,3.0628,2.964,3.0067,0.0,0.0,0.0,0.0,0.0,0.0,0.0,0.0,0.0,0.0,3.7382,3.655,3.7783,4.2008,4.3298,4.4766,4.6512,4.6966,4.6611,4.5185,4.6792,4.8501,5.0162,5.1479,5.1342,4.9522,5.0221,5.0422,4.911,4.9003,4.9003,4.9003,4.9003,4.9247,4.9637,4.9296,4.8878,4.8244,4.6323,4.4453,4.3508,4.243,4.1693,4.1321,3.9789,3.7312,3.4481,3.23,3.1211,3.1051,3.0304,2.9923,2.9582,2.9525,2.9556,2.9876,2.9758,2.9973,3.0425,2.9854,2.9434,2.9903,2.9516,2.8807,2.88,2.8535,2.7779,2.7663,2.547,2.3918,5.3371,5.3371,5.3371,5.3371,5.3371,5.2786,5.2326,5.2017,5.1294,5.0883,5.0892,5.1073,5.1647,5.2617,5.2815,5.3197,5.3665,5.3394,5.3493,5.3964,5.3493,5.3988,5.5116,5.328,5.2368,5.241,5.0047,4.9433,5.0994,5.0178,4.884,4.7078,4.6789,4.5306,4.267,0.0,0.0,0.0,3.1494,3.0671,3.1138,3.1164,3.0796,3.0042,2.9893,0.0,2.8563,2.837,2.8203,2.8203,2.8126,0.0,0.0,0.0,0.0,0.0,0.0,0.0,0.0,0.0,0.0,0.0,4.4347,4.3107,4.1549,4.4396,4.702,4.8801,5.004,5.0102,4.8893,4.9215,4.9106,4.8005,4.722,4.6953,4.6831,4.7002,4.6831,4.6708,4.7312,4.7754,4.7432,4.5514,4.4049,4.4145,4.2309,4.0825,4.0465,3.8726,3.623,3.3094,3.1241,2.998,3.0009,2.9867,2.9422,2.9026,2.8828,2.8643,2.8226,2.8083,2.8083,2.7854,2.8061,2.8128,2.7225,2.7285,2.7401,2.6339,2.5658,2.5828,2.8128,2.6169,2.4062,5.3371,5.3371,5.3371,5.3371,5.3219,5.0187,4.8087,4.6985,4.8669,4.8718,4.7594,4.8359,4.8759,4.8905,4.9913,5.0843,5.1907,5.1773,5.2262,5.3094,5.2213,5.2581,5.3752,5.1239,5.0511,5.1586,4.9748,4.8974,4.8866,4.8212,4.7022,4.5267,4.3875,4.2176,4.0317,3.6808,3.5132,3.5138,3.1411,2.9346,2.9398,2.9424,2.8692,2.7236,2.8591,2.8263,2.6209,2.7487,2.8203,2.8203,2.7762,2.8191,2.9614,2.9278,3.0382,0.0,3.2205,0.0,0.0,0.0,0.0,0.0,0.0,0.0,0.0,4.2034,4.3861,4.3894,4.4435,4.4443,4.3927,4.596,4.7027,4.6466,4.7291,4.7902,4.77,4.7902,4.7651,4.6465,4.6256,4.5317,4.3429,4.312,4.2571,4.1614,4.1266,4.0455,3.8391,3.654,3.4794,3.2777,3.1081,2.9895,2.9838,2.9497,2.897,2.9013,2.8587,2.8018,2.742,2.7307,2.7107,2.6796,2.7651,2.7875,2.6652,2.7444,2.7946,2.7495,2.6169,2.5319,2.563,2.5062,2.4491,5.0563,5.0436,4.9797,4.9362,4.9007,4.6908,4.5739,4.5614,4.5819,4.5739,4.566,4.5965,4.6093,4.614,4.6561,4.7028,4.7449,4.7582,4.801,4.8762,4.8342,4.8805,4.9787,4.8334,4.7845,4.8391,4.6682,4.6047,4.621,4.5754,4.4772,4.3365,4.2766,4.1034,3.813,3.4981,3.3509,3.3818,3.0387,2.8775,2.9086,2.9261,2.8686,2.7564,2.7438,2.6671,2.5218,2.566,2.5896,2.5792,2.6242,2.6794,2.7779,2.7107,2.7994,0.0,0.0,0.0,0.0,0.0,0.0,0.0,0.0,0.0,0.0,0.0,4.0343,4.043,4.179,4.236,4.1908,4.3013,4.3503,4.2563,4.292,4.2966,4.2322,4.3219,4.3663,4.3115,4.3811,4.4008,4.3231,4.2393,4.1784,4.1565,4.0221,3.8549,3.6471,3.467,3.2779,3.0895,2.9916,2.9355,2.8985,2.8729,2.8416,2.8075,2.779,2.7392,2.6766,2.7341,2.7793,2.7525,2.7995,2.8382,2.8552,2.8552,2.8382,2.7934,2.6332,2.5241,2.5576,2.5461,2.4803,4.7825,4.7525,4.5231,4.4152,4.3978,4.3457,4.3296,4.3417,4.2953,4.3043,4.3377,4.3507,4.3417,4.3193,4.3148,4.3417,4.3866,4.3866,4.4405,4.5168,4.5168,4.5705,4.6506,4.561,4.5501,4.5718,4.4276,4.373,4.3898,4.3094,4.2197,4.1129,4.0505,3.855,3.5405,3.2842,3.1662,3.1662,2.9254,2.8255,2.8645,2.8671,2.8541,2.8229,2.6922,2.5871,2.4919,2.4779,2.4472,2.3933,2.4783,2.5368,2.5858,2.5094,0.0,0.0,0.0,0.0,0.0,0.0,0.0,0.0,0.0,3.3154,3.3848,0.0,3.7155,0.0,3.94,4.0355,3.997,4.0378,0.0,0.0,3.8775,3.8571,3.7727,3.8815,3.9616,3.9249,4.0898,4.1933,4.2121,4.1066,4.0499,4.0612,3.8586,3.645,3.4406,3.3126,3.164,2.97,2.884,2.8403,2.8347,2.794,2.7451,2.7278,2.6908,2.6567,2.6083,2.683,2.7371,2.7371,2.7919,2.857,2.9216,2.9009,2.8298,2.7888,2.6464,2.5281,2.5624,2.5408,2.4988,4.6384,4.5988,4.0898,3.8722,3.8808,3.9948,3.9444,3.8295,4.0742,4.0867,3.9656,4.0786,4.0793,4.0065,4.0065,0.0,4.2706,4.2706,4.3243,4.4447,4.4492,4.4899,4.566,4.4233,4.4286,4.5861,4.4276,4.3401,4.2919,4.0837,3.9553,3.8837,3.5339,3.2521,3.0883,2.9901,2.9382,2.941,2.8218,2.7476,2.7528,2.7528,2.7736,2.8203,2.7595,2.6686,2.5511,2.5972,2.5585,2.4047,2.3732,2.4073,2.507,0.0,0.0,0.0,0.0,0.0,0.0,0.0,0.0,0.0,0.0,0.0,0.0,0.0,0.0,0.0,3.6146,0.0,3.691,3.7747,0.0,0.0,0.0,3.7541,3.7078,3.7441,3.7295,3.6119,0.0,0.0,3.6948,3.8325,3.849,3.6303,3.6116,3.5196,3.2118,3.2215,3.1822,2.9942,2.8082,2.7413,2.8263,2.7075,2.6256,2.6843,2.6197,2.5486,2.5372,2.5186,2.468,2.4812,2.669,2.8113,2.682,2.7597,2.8113,2.6981,2.656,2.6008,2.4784,2.4471,2.4698,4.2221,4.1113,3.902,3.8001,3.7744,3.7662,3.7405,3.7277,3.7216,3.6844,3.63,3.623,3.5657,3.4846,3.4805,0.0,0.0,0.0,3.7881,3.8423,4.0071,4.0962,4.1341,4.1203,4.1521,4.2033,4.0903,3.9588,3.8191,3.7384,3.5901,3.3736,0.0,0.0,2.9457,2.8671,2.8374,2.8214,2.7327,2.688,2.655,2.688,2.6982,2.7211,2.6451,2.511,2.3034,2.4121,2.3488,2.103,2.2359,2.3147,0.0,0.0,0.0,0.0,0.0,0.0,0.0,0.0,0.0,0.0,0.0,2.7212,2.8392,0.0,0.0,0.0,3.1891,3.2314,3.3864,3.4852,0.0,0.0,0.0,0.0,0.0,0.0,0.0,3.301,3.3955,3.4845,3.5378,3.5116,3.464,3.3999,3.298,3.2019,3.1062,0.0,2.9882,2.8541,2.7311,2.6506,2.6259,2.5046,2.424,2.4838,2.474,2.4747,2.4718,2.5311,2.5657,2.5787,2.6535,2.7437,2.7789,2.6667,2.5849,2.579,2.5155,2.4379,2.3496,2.3288,2.353,3.8598,0.0,0.0,0.0,0.0,3.5484,3.5368,3.5846,3.4222,3.346,3.3547,3.2935,0.0,0.0,0.0,0.0,0.0,0.0,3.4087,3.4164,3.655,3.7783,3.8065,3.891,3.9312,3.9352,3.8247,3.6928,3.5082,3.3622,3.1141,2.7942,0.0,0.0,0.0,0.0,2.6754,2.6939,2.6395,2.621,2.6031,2.6361,2.6525,2.669,2.5921,2.4565,2.2333,2.2743,2.1796,1.9003,2.0813,0.0,0.0,0.0,0.0,0.0,0.0,0.0,0.0,0.0,0.0,0.0,0.0,0.0,0.0,0.0,0.0,0.0,0.0,0.0,3.1554,3.2755,3.2697,0.0,0.0,0.0,0.0,0.0,0.0,0.0,0.0,0.0,3.2726,3.1555,3.0784,0.0,0.0,2.9402,2.9608,2.8933,2.8024,2.6994,2.5828,0.0,2.4162,2.2718,2.2113,2.3001,2.3675,2.4149,2.4245,2.4941,2.5469,2.5469,2.5723,2.6072,2.6731,2.4832,2.3465,2.4066,2.3221,2.2358,2.2403,2.2457,2.2823,0.0,0.0,0.0,0.0,0.0,0.0,0.0,0.0,3.2056,3.1685,0.0,3.1573,0.0,0.0,0.0,0.0,0.0,3.2507,0.0,0.0,3.4997,3.6254,3.7099,3.7984,3.8427,3.8467,3.7444,3.6318,3.4623,2.9459,0.0,0.0,0.0,0.0,0.0,0.0,2.425,2.4711,2.5105,2.5512,2.6031,2.6031,2.6196,2.669,2.6531,2.5835,2.4543,2.2866,2.1029,1.8774,1.8912,0.0,0.0,0.0,0.0,0.0,0.0,0.0,0.0,0.0,0.0,0.0,0.0,0.0,0.0,0.0,0.0,0.0,0.0,0.0,0.0,3.1405,0.0,0.0,0.0,0.0,0.0,0.0,0.0,0.0,0.0,0.0,2.7829,2.7673,2.7552,2.7608,0.0,0.0,0.0,0.0,2.6884,2.5966,2.3422,2.2021,2.3009,2.106,1.9995,2.1952,0.0,0.0,2.417,2.3324,2.2707,2.265,2.3648,2.4039,2.3043,2.1497,2.071,2.1769,2.1157,2.0639,2.1524,2.2001,2.2235,0.0,0.0,0.0,0.0,0.0,0.0,0.0,0.0,0.0,2.8392,0.0,2.7817,0.0,0.0,0.0,0.0,0.0,0.0,0.0,0.0,3.1317,3.2476,3.2698,3.3624,3.4006,0.0,3.2983,3.1411,0.0,0.0,0.0,0.0,0.0,0.0,0.0,0.0,2.341,2.3755,2.4725,2.535,2.5676,2.5866,2.6196,2.6525,2.6319,2.4481,2.1139,2.1224,1.9958,0.0,0.0,0.0,0.0,0.0,0.0,0.0,0.0,0.0,0.0,0.0,0.0,0.0,0.0,0.0,0.0,0.0,0.0,0.0,0.0,0.0,0.0,0.0,2.6308,0.0,0.0,0.0,0.0,0.0,0.0,0.0,0.0,0.0,2.4913,2.5114,2.5505,2.5912,2.5867,2.5745,2.5856,0.0,0.0,0.0,0.0,0.0,0.0,0.0,1.9204,2.0253,2.0307,2.0429,2.1039,2.1371,2.1497,2.1497,0.0,0.0,2.0832,2.0613,2.0613,2.0342,2.0367,2.0096,1.9677,1.9825,1.9628,0.0,0.0,0.0,0.0,0.0,0.0,0.0,0.0,0.0,2.5826,2.5867,0.0,0.0,0.0,0.0,0.0,0.0,0.0,0.0,0.0,0.0,0.0,3.0046,3.1165,0.0,0.0,0.0,0.0,0.0,0.0,0.0,0.0,0.0,0.0,0.0,0.0,2.237,2.2901,2.3888,2.4832,2.5181,2.5536,2.5866,2.6196,2.5673,2.366,2.0165,0.0,0.0,0.0,0.0,0.0,0.0,0.0,0.0,0.0,0.0,0.0,0.0,0.0,0.0,0.0,0.0,0.0,0.0,0.0,0.0,0.0,0.0,0.0,0.0,0.0,2.3945,0.0,0.0,0.0,0.0,0.0,0.0,0.0,0.0,0.0,0.0,0.0,2.3259,2.4488,2.418,2.4177,2.5202,2.5627,2.5302,0.0,0.0,0.0,0.0,0.0,0.0,0.0,0.0,0.0,0.0,0.0,0.0,0.0,0.0,2.1076,1.9727,1.948,1.9505,1.9357,0.0,0.0,0.0,0.0,0.0,0.0,0.0,0.0,0.0,0.0,0.0,0.0,0.0,0.0,0.0,0.0,0.0,0.0,2.3784,0.0,0.0,0.0,0.0,0.0,0.0,0.0,0.0,0.0,0.0,0.0,0.0,0.0,0.0,0.0,0.0,0.0,0.0,0.0,0.0,0.0,0.0,2.1376,2.2408,2.2948,2.3675,2.4661,2.4684,2.485,2.5511,2.484,2.3652,2.1845,0.0,0.0,0.0,0.0,0.0,0.0,0.0,0.0,0.0,0.0,0.0,0.0,0.0,0.0,0.0,0.0,0.0,0.0,0.0,0.0,0.0,0.0,0.0,0.0,0.0,0.0,2.414,2.3588,2.286,0.0,0.0,0.0,0.0,0.0,0.0,0.0,0.0,0.0,0.0,2.3042,2.3511,2.4929,2.3852,2.272,2.1657,2.0101,1.8743,1.8326,1.7675,1.7486,0.0,0.0,0.0,0.0,0.0,0.0,0.0,0.0,0.0,0.0,0.0,0.0,0.0,0.0,0.0,0.0,0.0,0.0,0.0,0.0,0.0,0.0,0.0,0.0,0.0,0.0,0.0,0.0,0.0,0.0,0.0,0.0,0.0,0.0,0.0,0.0,0.0,0.0,0.0,0.0,0.0,0.0,0.0,0.0,0.0,0.0,0.0,0.0,0.0,0.0,0.0,0.0,0.0,0.0,2.1639,2.2408,2.3078,2.4152,2.5181,2.402,2.4025,2.5164,2.2493,2.0908,0.0,0.0,0.0,0.0,0.0,0.0,0.0,0.0,0.0,0.0,0.0,0.0,0.0,0.0,0.0,0.0,0.0,0.0,0.0,0.0,0.0,0.0,0.0,0.0,0.0,0.0,0.0,0.0,2.1252,2.1299,2.0962,0.0,0.0,0.0,0.0,0.0,0.0,0.0,0.0,0.0,0.0,2.2143,2.1992,2.2505,2.2353,2.057,1.9823,1.9147,1.8139,1.7675,1.7349,1.7486,0.0,0.0,0.0,0.0,0.0,0.0,0.0,0.0,0.0,0.0,0.0,0.0,0.0,0.0,0.0,0.0,0.0,0.0,0.0,0.0,0.0,0.0,0.0,0.0,0.0,0.0,0.0,0.0,0.0,0.0,0.0,0.0,0.0,0.0,0.0,0.0,0.0,0.0,0.0,0.0,0.0,0.0,0.0,0.0,0.0,0.0,0.0,0.0,0.0,0.0,0.0,0.0,0.0,2.1094,2.1798,2.2866,2.3898,2.4706,2.3266,2.2945,2.3773,2.0528,1.8674,0.0,0.0,0.0,0.0,0.0,0.0,0.0,0.0,0.0,0.0,0.0,0.0,0.0,0.0,0.0,0.0,0.0,0.0,0.0,0.0,0.0,0.0,0.0,0.0,0.0,0.0,0.0,0.0,1.9854,2.0115,1.9677,0.0,0.0,0.0,0.0,0.0,0.0,0.0,0.0,0.0,0.0,2.1532,2.0766,2.1704,0.0,0.0,1.913,1.8486,1.7952,1.7235,1.6741,1.6627,1.6377,0.0,0.0,0.0,0.0,0.0,0.0,0.0,0.0,0.0,0.0,0.0,0.0,0.0,0.0,0.0,0.0,0.0,0.0,0.0,0.0,0.0,0.0,0.0,0.0,0.0,0.0,0.0,0.0,0.0,0.0,0.0,0.0,0.0,0.0,0.0,0.0,0.0,0.0,0.0,0.0,0.0,0.0,0.0,0.0,0.0,0.0,0.0,0.0,0.0,0.0,0.0,0.0,2.0207,2.0743,2.2234,2.326,2.3612,2.2428,2.1601,2.1285,1.9076,1.6934,0.0,0.0,0.0,0.0,0.0,0.0,0.0,0.0,0.0,0.0,0.0,0.0,0.0,0.0,0.0,0.0,0.0,0.0,0.0,0.0,0.0,0.0,0.0,0.0,0.0,0.0,0.0,0.0,0.0,0.0,0.0,0.0,0.0,0.0,0.0,0.0,0.0,0.0,0.0,0.0,0.0,2.1092,2.0602,2.0973,2.0693,0.0,0.0,1.6928,1.7177,1.6502,1.5837,1.5257,0.0,0.0,0.0,0.0,0.0,0.0,0.0,0.0,0.0,0.0,0.0,0.0,0.0,0.0,0.0,0.0,0.0,0.0,0.0,0.0,0.0,0.0,0.0,0.0,0.0,0.0,0.0,0.0,0.0,0.0,0.0,0.0,0.0,0.0,0.0,0.0,0.0,0.0,0.0,0.0,0.0,0.0,0.0,0.0,0.0,0.0,0.0,0.0,0.0,0.0,0.0,0.0,0.0,0.0,1.9432,2.1783,2.2787,2.1813,2.0585,1.962,1.8898,1.5918,0.0,0.0,0.0,0.0,0.0,0.0,0.0,0.0,0.0,0.0,0.0,0.0,0.0,0.0,0.0,0.0,0.0,0.0,0.0,0.0,0.0,0.0,0.0,0.0,0.0,0.0,0.0,1.7321,0.0,0.0,0.0,0.0,0.0,0.0,0.0,0.0,0.0,0.0,0.0,0.0,0.0,0.0,1.928,1.9625,1.8591,1.7399,0.0,0.0,1.5317,1.4524,1.4965,1.4912,0.0,0.0,0.0,0.0,0.0,0.0,0.0,0.0,0.0,0.0,0.0,0.0,0.0,0.0,0.0,0.0,0.0,0.0,0.0,0.0,0.0,0.0,0.0,0.0,0.0,0.0,0.0,0.0,0.0,0.0,0.0,0.0,0.0,0.0,0.0,0.0,0.0,0.0,0.0,0.0,0.0,0.0,0.0,0.0,0.0,0.0,0.0,0.0,0.0,0.0,0.0,0.0,0.0,0.0,1.7471,1.8474,2.0143,2.092,2.0874,1.8994,1.7828,1.7225,1.4519,1.3141,0.0,0.0,0.0,0.0,0.0,0.0,0.0,0.0,0.0,0.0,0.0,0.0,0.0,0.0,0.0,0.0,0.0,0.0,0.0,0.0,0.0,0.0,0.0,0.0,0.0,0.0,0.0,0.0,0.0,0.0,0.0,0.0,0.0,0.0,0.0,0.0,0.0,0.0,0.0,0.0,0.0,0.0,1.8335,1.7864,0.0,0.0,0.0,1.525,1.4359,0.0,0.0,0.0,0.0,0.0,0.0,0.0,0.0,0.0,0.0,0.0,0.0,0.0,0.0,0.0,0.0,0.0,0.0,0.0,0.0,0.0,0.0,0.0,0.0,0.0,0.0,0.0,0.0,0.0,0.0,0.0,0.0,0.0,0.0,0.0,0.0,0.0,0.0,0.0,0.0,0.0,0.0,0.0,0.0,0.0,0.0,0.0,0.0,0.0,0.0,0.0,0.0,0.0,0.0,0.0,0.0,0.0,1.7547,1.8134,1.8827,1.9693,1.769,1.6234,1.5757,1.3986,1.2737,0.0,0.0,0.0,0.0,0.0,0.0,0.0,0.0,0.0,0.0,0.0,0.0,0.0,0.0,0.0,0.0,0.0,0.0,0.0,0.0,0.0,0.0,0.0,0.0,0.0,0.0,0.0,0.0,0.0,0.0,0.0,0.0,0.0,0.0,0.0,0.0,0.0,0.0,0.0,0.0,0.0,1.8161,1.7305,1.7952,1.7657,0.0,0.0,1.5501,1.4938,1.4163,0.0,0.0,0.0,0.0,0.0,0.0,0.0,0.0,0.0,0.0,0.0,0.0,0.0,0.0,0.0,0.0,0.0,0.0,0.0,0.0,0.0,0.0,0.0,0.0,0.0,0.0,0.0,0.0,0.0,0.0,0.0,0.0,0.0,0.0,0.0,0.0,0.0,0.0,0.0,0.0,0.0,0.0,0.0,0.0,0.0,0.0,0.0,0.0,0.0,0.0,0.0,0.0,0.0,0.0,0.0,0.0,1.4638,1.7844,1.8558,1.6506,1.6288,1.5502,1.3948,1.3335,1.2645,0.0,0.0,0.0,0.0,0.0,0.0,0.0,0.0,0.0,0.0,0.0,0.0,0.0,0.0,0.0,0.0,0.0,0.0,0.0,0.0,0.0,0.0,0.0,0.0,0.0,0.0,0.0,0.0,0.0,0.0,0.0,0.0,0.0,0.0,0.0,0.0,0.0,0.0,0.0,0.0,0.0,1.7322,1.8481,1.6308,0.0,0.0,0.0,0.0,1.2281,1.2051,0.0,0.0,0.0,0.0,0.0,0.0,0.0,0.0,0.0,0.0,0.0,0.0,0.0,0.0,0.0,0.0,0.0,0.0,0.0,0.0,0.0,0.0,0.0,0.0,0.0,0.0,0.0,0.0,0.0,0.0,0.0,0.0,0.0,0.0,0.0,0.0,0.0,0.0,0.0,0.0,0.0,0.0,0.0,0.0,0.0,0.0,0.0,0.0,0.0,0.0,0.0,0.0,0.0,0.0,0.0,0.0,1.6177,1.7122,1.7314,1.6919,1.5346,1.429,1.3449,1.2908,1.2341,0.0,0.0,0.0,0.0,0.0,0.0,0.0,0.0,0.0,0.0,0.0,0.0,0.0,0.0,0.0,0.0,0.0,0.0,0.0,0.0,0.0,0.0,0.0,0.0,0.0,0.0,0.0,0.0,0.0,0.0,0.0,0.0,0.0,0.0,0.0,0.0,0.0,0.0,0.0,0.0,1.6354,1.6171,1.7453,0.0,0.0,0.0,0.0,0.0,0.0,1.1392,1.1392,0.0,0.0,0.0,0.0,0.0,0.0,0.0,0.0,0.0,0.0,0.0,0.0,0.0,0.0,0.0,0.0,0.0,0.0,0.0,0.0,0.0,0.0,0.0,0.0,0.0,0.0,0.0,0.0,0.0,0.0,0.0,0.0,0.0,0.0,0.0,0.0,0.0,0.0,0.0,0.0,0.0,0.0,0.0,0.0,0.0,0.0,0.0,0.0,0.0,0.0,0.0,0.0,0.0,0.0,0.0,1.7897,1.6001,1.5941,1.7814,1.4725,1.3146,1.3357,1.2645,1.2078,1.1722,0.0,0.0,0.0,0.0,0.0,0.0,0.0,0.0,0.0,0.0,0.0,0.0,0.0,0.0,0.0,0.0,0.0,0.0,0.0,0.0,0.0,0.0,0.0,0.0,0.0,0.0,0.0,0.0,0.0,0.0,0.0,0.0,0.0,0.0,0.0,0.0,0.0,0.0,0.0,1.5651,1.5304,0.0,0.0,0.0,0.0,0.0,0.0,0.0,0.0,1.1592,0.0,0.0,0.0,0.0,0.0,0.0,0.0,0.0,0.0,0.0,0.0,0.0,0.0,0.0,0.0,0.0,0.0,0.0,0.0,0.0,0.0,0.0,0.0,0.0,0.0,0.0,0.0,0.0,0.0,0.0,0.0,0.0,0.0,0.0,0.0,0.0,0.0,0.0,0.0,0.0,0.0,0.0,0.0,0.0,0.0,0.0,0.0,0.0,0.0,0.0,0.0,0.0,0.0,0.0,0.0,0.0,1.4822,1.5092,1.5359,1.3866,1.304,1.308,1.2711,1.2262,1.1735,0.0,0.0,0.0,0.0,0.0,0.0,0.0,0.0,0.0,0.0,0.0,0.0,0.0,0.0,0.0,0.0,0.0,0.0,0.0,0.0,0.0,0.0,0.0,0.0,0.0,0.0,0.0,0.0,0.0,0.0,0.0,0.0,0.0,0.0,0.0,0.0,0.0,0.0,1.6823,1.5933,0.0,0.0,0.0,0.0,0.0,0.0,0.0,0.0,1.2189,0.0,0.0,0.0,0.0,0.0,0.0,0.0,0.0,0.0,0.0,0.0,0.0,0.0,0.0,0.0,0.0,0.0,0.0,0.0,0.0,0.0,0.0,0.0,0.0,0.0,0.0,0.0,0.0,0.0,0.0,0.0,0.0,0.0,0.0,0.0,0.0,0.0,0.0,0.0,0.0,0.0,0.0,0.0,0.0,0.0,0.0,0.0,0.0,0.0,0.0,0.0,0.0,0.0,0.0,0.0,0.0,0.0,0.0,1.5724,1.6682,1.43,1.3027,1.3001,1.2447,1.1999,0.0,0.0,0.0,0.0,0.0,0.0,0.0,0.0,0.0,0.0,0.0,0.0,0.0,0.0,0.0,0.0,0.0,0.0,0.0,0.0,0.0,0.0,0.0,0.0,0.0,0.0,0.0,0.0,0.0,0.0,0.0,0.0,0.0,0.0,0.0,0.0,0.0,0.0,0.0,0.0,0.0,0.0,0.0,0.0,0.0,0.0,0.0,0.0,0.0,0.0,0.0,0.0,0.0,0.0,0.0,0.0,0.0,0.0,0.0,0.0,0.0,0.0,0.0,0.0,0.0,0.0,0.0,0.0,0.0,0.0,0.0,0.0,0.0,0.0,0.0,0.0,0.0,0.0,0.0,0.0,0.0,0.0,0.0,0.0,0.0,0.0,0.0,0.0,0.0,0.0,0.0,0.0,0.0,0.0,0.0,0.0,0.0,0.0,0.0,0.0,0.0,0.0,0.0,0.0,0.0,0.0,0.0,0.0,1.5901,1.8102,1.4796,1.2935,1.2922,1.221,1.1761,0.0,0.0,0.0,0.0,0.0,0.0,0.0,0.0,0.0,0.0,0.0,0.0,0.0,0.0,0.0,0.0,0.0,0.0,0.0,0.0,0.0,0.0,0.0,0.0,0.0,0.0,0.0,0.0,0.0,0.0,0.0,0.0,0.0,0.0,0.0,0.0,0.0,0.0,0.0,0.0,0.0,0.0,0.0,0.0,0.0,0.0,0.0,0.0,0.9764,0.0,0.0,0.0,0.0,0.0,0.0,0.0,0.0,0.0,0.0,0.0,0.0,0.0,0.0,0.0,0.0,0.0,0.0,0.0,0.0,0.0,0.0,0.0,0.0,0.0,0.0,0.0,0.0,0.0,0.0,0.0,0.0,0.0,0.0,0.0,0.0,0.0,0.0,0.0,0.0,0.0,0.0,0.0,0.0,0.0,0.0,0.0,0.0,0.0,0.0,0.0,0.0,0.0,0.0,0.0,0.0,0.0,0.0,0.0,1.4347,1.7308,1.4332,1.2632,1.2618,1.2302,1.1867,0.0,0.0,0.0,0.0,0.0,0.0,0.0,0.0,0.0,0.0,0.0,0.0,0.0,0.0,0.0,0.0,0.0,0.0,0.0,0.0,0.0,0.0,0.0,0.0,0.0,0.0,0.0,0.0,0.0,0.0,0.0,0.0,0.0,0.0,0.0,0.0,0.0,0.0,0.0,0.0,0.0,0.0,0.0,0.0,0.0,0.0,0.0,0.0,0.0,0.0,0.0,0.0,0.0,0.0,0.0,0.0,0.0,0.0,0.0,0.0,0.0,0.0,0.0,0.0,0.0,0.0,0.0,0.0,0.0,0.0,0.0,0.0,0.0,0.0,0.0,0.0,0.0,0.0,0.0,0.0,0.0,0.0,0.0,0.0,0.0,0.0,0.0,0.0,0.0,0.0,0.0,0.0,0.0,0.0,0.0,0.0,0.0,0.0,0.0,0.0,0.0,0.0,0.0,0.0,0.0,0.0,0.0,0.0,1.478,1.5953,1.478,1.3781,1.2843,1.2236,1.1867,0.0,0.0,0.0,0.0,0.0,0.0,0.0,0.0,0.0,0.0,0.0,0.0,0.0,0.0,0.0,0.0,0.0,0.0,0.0,0.0,0.0,0.0,0.0,0.0,0.0,0.0,0.0,0.0,0.0,0.0,0.0,0.0,0.0,0.0,0.0,0.0,0.0,0.0,0.0,0.0,0.0,0.0,0.0,0.0,0.0,0.0,0.0,0.0,0.0,0.0,0.0,0.0,0.0,0.0,0.0,0.0,0.0,0.0,0.0,0.0,0.0,0.0,0.0,0.0,0.0,0.0,0.0,0.0,0.0,0.0,0.0,0.0,0.0,0.0,0.0,0.0,0.0,0.0,0.0,0.0,0.0,0.0,0.0,0.0,0.0,0.0,0.0,0.0,0.0,0.0,0.0,0.0,0.0,0.0,0.0,0.0,0.0,0.0,0.0,0.0,0.0,0.0,0.0,0.0,0.0,0.0,0.0,0.0,0.0,1.5031,1.5094,1.4325,1.2671,1.213,1.1867,0.0,0.0,0.0,0.0,0.0,0.0,0.0,0.0,0.0,0.0,0.0,0.0,0.0,0.0,0.0,0.0,0.0,0.0,0.0,0.0,0.0,0.0,0.0,0.0,0.0,0.0,0.0,0.0,0.0,0.0,0.0,0.0,0.0,0.0,0.0,0.0,0.0,0.0,0.0,0.0,0.0,0.0,0.0,0.0,0.0,0.0,0.0,0.0,0.0,0.0,0.0,0.0,0.0,0.0,0.0,0.0,0.0,0.0,0.0,0.0,0.0,0.0,0.0,0.0,0.0,0.0,0.0,0.0,0.0,0.0,0.0,0.0,0.0,0.0,0.0,0.0,0.0,0.0,0.0,0.0,0.0,0.0,0.0,0.0,0.0,0.0,0.0,0.0,0.0,0.0,0.0,0.0,0.0,0.0,0.0,0.0,0.0,0.0,0.0,0.0,0.0,0.0,0.0,0.0,0.0,0.0,0.0,0.0,0.0,1.5375,1.4919,1.3718,1.1827,1.2025,1.188,0.0,0.0,0.0,0.0,0.0,0.0,0.0,0.0,0.0,0.0,0.0,0.0,0.0,0.0,0.0,0.0,0.0,0.0,0.0,0.0,0.0,0.0,0.0,0.0,0.0,0.0,0.0,0.0,0.0,0.0,0.0,0.0,0.0,0.0,0.0,0.0,0.0,0.0,0.0,0.0,0.0,0.0,0.0,0.0,0.0,0.0,0.0,0.0,0.0,0.0,0.0,0.0,0.0,0.0,0.0,0.0,0.0,0.0,0.0,0.0,0.0,0.0,0.0,0.0,0.0,0.0,0.0,0.0,0.0,0.0,0.0,0.0,0.0,0.0,0.0,0.0,0.0,0.0,0.0,0.0,0.0,0.0,0.0,0.0,0.0,0.0,0.0,0.0,0.0,0.0,0.0,0.0,0.0,0.0,0.0,0.0,0.0,0.0,0.0,0.0,0.0,0.0,0.0,0.0,0.0,0.0,0.0,0.0,0.0,1.3653,1.3271,1.28,1.2262,1.2196,1.2065,1.184,0.0,0.0,0.0,0.0,0.0,0.0,0.0,0.0,0.0,0.0,0.0,0.0,0.0,0.0,0.0,0.0,0.0,0.0,0.0,0.0,0.0,0.0,0.0,0.0,0.0,0.0,0.0,0.0,0.0,0.0,0.0,0.0,0.0,0.0,0.0,0.0,0.0,0.0,0.0,0.0,0.0,0.0,0.0,0.0,0.0,0.0,0.0,0.0,0.0,0.0,0.0,0.0,0.0,0.0,0.0,0.0,0.0,0.0,0.0,0.0,0.0,0.0,0.0,0.0,0.0,0.0,0.0,0.0,0.0,0.0,0.0,0.0,0.0,0.0,0.0,0.0,0.0,0.0,0.0,0.0,0.0,0.0,0.0,0.0,0.0,0.0,0.0,0.0,0.0,0.0,0.0,0.0,0.0,0.0,0.0,0.0,0.0,0.0,0.0,0.0,0.0,0.0,0.0,0.0,0.0,0.0,0.0,0.0,1.2721,1.2394,1.2355,1.2601,1.2507,1.2414,0.0,0.0,0.0,0.0,0.0,0.0,0.0,0.0,0.0,0.0,0.0,0.0,0.0,0.0,0.0,0.0,0.0,0.0,0.0,0.0,0.0,0.0,0.0,0.0,0.0,0.0,0.0,0.0,0.0,0.0,0.0,0.0,0.0,0.0,0.0,0.0,0.0,0.0,0.0,0.0,0.0,0.0,0.0,0.0,0.0,0.0,0.0,0.0,0.0,0.0,0.0,0.0,0.0,0.0,0.0,0.0,0.0,0.0,0.0,0.0,0.0,0.0,0.0,0.0,0.0,0.0,0.0,0.0,0.0,0.0,0.0,0.0,0.0,0.0,0.0,0.0,0.0,0.0,0.0,0.0,0.0,0.0,0.0,0.0,0.0,0.0,0.0,0.0,0.0,0.0,0.0,0.0,0.0,0.0,0.0,0.0,0.0,0.0,0.0,0.0,0.0,0.0,0.0,0.0,0.0,0.0,0.0,0.0,1.2734,1.2592,1.2579,1.2447,1.2347,1.2434,1.2434,0.0,0.0,0.0,0.0,0.0,0.0,0.0,0.0,0.0,0.0,0.0,0.0,0.0,0.0,0.0,0.0,0.0,0.0,0.0,0.0,0.0,0.0,0.0,0.0,0.0,0.0,0.0,0.0,0.0,0.0,0.0,0.0,0.0,0.0,0.0,0.0,0.0,0.0,0.0,0.0,0.0,0.0,0.0,0.0,0.0,0.0,0.0,0.0,0.0,0.0,0.0,0.0,0.0,0.0,0.0,0.0,0.0,0.0,0.0,0.0,0.0,0.0,0.0,0.0,0.0,0.0,0.0,0.0,0.0,0.0,0.0,0.0,0.0,0.0,0.0,0.0,0.0,0.0,0.0,0.0,0.0,0.0,0.0,0.0,0.0,0.0,0.0,0.0,0.0,0.0,0.0,0.0,0.0,0.0,0.0,0.0,0.0,0.0,0.0,0.0,0.0,0.0,0.0,0.0,0.0,0.0,0.0,0.0,0.0,1.2882,0.0,1.2645,0.0,1.246,1.2355,0.0,0.0,0.0,0.0,0.0,0.0,0.0,0.0,0.0,0.0,0.0,0.0,0.0,0.0,0.0,0.0,0.0,0.0,0.0,0.0,0.0,0.0,0.0,0.0,0.0,0.0,0.0,0.0,0.0,0.0,0.0,0.0,0.0,0.0,0.0,0.0,0.0,0.0,0.0,0.0,0.0,0.0,0.0,0.0,0.0,0.0,0.0,0.0,0.0,0.0,0.0,0.0,0.0,0.0,0.0,0.0,0.0,0.0,0.0,0.0,0.0,0.0,0.0,0.0,0.0,0.0,0.0,0.0,0.0,0.0,0.0,0.0,0.0,0.0,0.0,0.0,0.0,0.0,0.0,0.0,0.0,0.0,0.0,0.0,0.0,0.0,0.0,0.0,0.0,0.0,0.0,0.0,0.0,0.0,0.0,0.0,0.0,0.0,0.0,0.0,0.0,0.0,0.0,0.0,0.0,0.0,0.0,0.0,0.0,1.3152,1.273,1.2416,1.2537,1.2306,1.2152,0.0,0.0,0.0,0.0,0.0,0.0,0.0,0.0,0.0,0.0,0.0,0.0,0.0,0.0,0.0,0.0,0.0,0.0,0.0,0.0,0.0,0.0,0.0,0.0,0.0,0.0,0.0,0.0,0.0,0.0,0.0,0.0,0.0,0.0,0.0,0.0,0.0,0.0,0.0,0.0,0.0,0.0,0.0,0.0,0.0,0.0,0.0,0.0,0.0,0.0,0.0,0.0,0.0,0.0,0.0,0.0,0.0,0.0,0.0,0.0,0.0,0.0,0.0,0.0,0.0,0.0,0.0,0.0,0.0,0.0,0.0,0.0,0.0,0.0,0.0,0.0,0.0,0.0,0.0,0.0,0.0,0.0,0.0,0.0,0.0,0.0,0.0,0.0,0.0,0.0,0.0,0.0,0.0,0.0,0.0,0.0,0.0,0.0,0.0,0.0,0.0,0.0,0.0,0.0,0.0,0.0,0.0,0.0,0.0,0.0,1.2439,1.2066,1.1899,1.1753,1.1803,0.0,0.0,0.0,0.0,0.0,0.0,0.0,0.0,0.0,0.0,0.0,0.0,0.0,0.0,0.0,0.0,0.0,0.0,0.0,0.0,0.0,0.0,0.0,0.0,0.0,0.0,0.0,0.0,0.0,0.0,0.0,0.0,0.0,0.0,0.0,0.0,0.0,0.0,0.0,0.0,0.0,0.0,0.0,0.0,0.0,0.0,0.0,0.0,0.0,0.0,0.0,0.0,0.0,0.0,0.0,0.0,0.0,0.0,0.0,0.0,0.0,0.0,0.0,0.0,0.0,0.0,0.0,0.0,0.0,0.0,0.0,0.0,0.0,0.0,0.0,0.0,0.0,0.0,0.0,0.0,0.0,0.0,0.0,0.0,0.0,0.0,0.0,0.0,0.0,0.0,0.0,0.0,0.0,0.0,0.0,0.0,0.0,0.0,0.0,0.0,0.0,0.0,0.0,0.0,0.0,0.0,0.0,0.0,0.0,0.0,1.2437,1.2235,1.209,1.1605,1.1536,1.1701,0.0,0.0,0.0,0.0,0.0,0.0,0.0,0.0,0.0,0.0,0.0,0.0,0.0,0.0,0.0,0.0,0.0,0.0,0.0,0.0,0.0,0.0,0.0,0.0,0.0,0.0,0.0,0.0,0.0,0.0,0.0,0.0,0.0,0.0,0.0,0.0,0.0,0.0,0.0,0.0,0.0,0.0,0.0,0.0,0.0,0.0,0.0,0.0,0.0,0.0,0.0,0.0,0.0,0.0,0.0,0.0,0.0,0.0,0.0,0.0,0.0,0.0,0.0,0.0,0.0,0.0,0.0,0.0,0.0,0.0,0.0,0.0,0.0,0.0,0.0,0.0,0.0,0.0,0.0,0.0,0.0,0.0,0.0,0.0,0.0,0.0,0.0,0.0,0.0,0.0,0.0,0.0,0.0,0.0,0.0,0.0,0.0,0.0,0.0,0.0,0.0,0.0,0.0,0.0,0.0,0.0,0.0,0.0,0.0,0.0,1.1706,1.1459,1.1239,1.1234,0.0,0.0,0.0,0.0,0.0,0.0,0.0,0.0,0.0,0.0,0.0,0.0,0.0,0.0,0.0,0.0,0.0,0.0,0.0,0.0,0.0,0.0,0.0,0.0,0.0,0.0,0.0,0.0,0.0,0.0,0.0,0.0,0.0,0.0,0.0,0.0,0.0,0.0,0.0,0.0,0.0,0.0,0.0,0.0,0.0,0.0,0.0,0.0,0.0,0.0,0.0,0.0,0.0,0.0,0.0,0.0,0.0,0.0,0.0,0.0,0.0,0.0,0.0,0.0,0.0,0.0,0.0,0.0,0.0,0.0,0.0,0.0,0.0,0.0,0.0,0.0,0.0,0.0,0.0,0.0,0.0,0.0,0.0,0.0,0.0,0.0,0.0,0.0,0.0,0.0,0.0,0.0,0.0,0.0,0.0,0.0,0.0,0.0,0.0,0.0,0.0,0.0,0.0,0.0,0.0,0.0,0.0,0.0,0.0,0.0,0.0,1.0872,1.0821,1.0906,0.0,1.0765,0.0,0.0,0.0,0.0,0.0,0.0,0.0,0.0,0.0,0.0,0.0,0.0,0.0,0.0,0.0,0.0,0.0,0.0,0.0,0.0,0.0,0.0,0.0,0.0,0.0,0.0,0.0,0.0,0.0,0.0,0.0,0.0,0.0,0.0,0.0,0.0,0.0,0.0,0.0,0.0,0.0,0.0,0.0,0.0,0.0,0.0,0.0,0.0,0.0,0.0,0.0,0.0,0.0,0.0,0.0,0.0,0.0,0.0,0.0,0.0,0.0,0.0,0.0,0.0,0.0,0.0,0.0,0.0,0.0,0.0,0.0,0.0,0.0,0.0,0.0,0.0,0.0,0.0,0.0,0.0,0.0,0.0,0.0,0.0,0.0,0.0,0.0,0.0,0.0,0.0,0.0,0.0,0.0,0.0,0.0,0.0,0.0,0.0,0.0,0.0,0.0,0.0,0.0,0.0,0.0,0.0,0.0,0.0,0.0,0.0,0.0,0.0,1.0828,1.0549,1.059,0.0,0.0,0.0,0.0,0.0,0.0,0.0,0.0,0.0,0.0,0.0,0.0,0.0,0.0,0.0,0.0,0.0,0.0,0.0,0.0,0.0,0.0,0.0,0.0,0.0,0.0,0.0,0.0,0.0,0.0,0.0,0.0,0.0,0.0,0.0,0.0,0.0,0.0,0.0,0.0,0.0,0.0,0.0,0.0,0.0,0.0,0.0,0.0,0.0,0.0,0.0,0.0,0.0,0.0,0.0,0.0,0.0,0.0,0.0,0.0,0.0,0.0,0.0,0.0,0.0,0.0,0.0,0.0,0.0,0.0,0.0,0.0,0.0,0.0,0.0,0.0,0.0,0.0,0.0,0.0,0.0,0.0,0.0,0.0,0.0,0.0,0.0,0.0,0.0,0.0,0.0,0.0,0.0,0.0,0.0,0.0,0.0,0.0,0.0,0.0,0.0,0.0,0.0,0.0,0.0,0.0,0.0,0.0,0.0,0.0,1.1149,1.1138,1.0684,1.0441,1.043,0.0,0.0,0.0,0.0,0.0,0.0,0.0,0.0,0.0,0.0,0.0,0.0,0.0,0.0,0.0,0.0,0.0,0.0,0.0,0.0,0.0,0.0,0.0,0.0,0.0,0.0,0.0,0.0,0.0,0.0,0.0,0.0,0.0,0.0,0.0,0.0,0.0,0.0,0.0,0.0,0.0,0.0,0.0,0.0,0.0,0.0,0.0,0.0,0.0,0.0,0.0,0.0,0.0,0.0,0.0,0.0,0.0,0.0,0.0,0.0,0.0,0.0,0.0,0.0,0.0,0.0,0.0,0.0,0.0,0.0,0.0,0.0,0.0,0.0,0.0,0.0,0.0,0.0,0.0,0.0,0.0,0.0,0.0,0.0,0.0,0.0,0.0,0.0,0.0,0.0,0.0,0.0,0.0,0.0,0.0,0.0,0.0,0.0,0.0,0.0,0.0,0.0,0.0,0.0,0.0,0.0,0.0,0.0,0.0,0.0,0.0,0.0,0.0,0.0,1.043,0.0,0.0,0.0,0.0,0.0,0.0,0.0,0.0,0.0,0.0,0.0,0.0,0.0,0.0,0.0,0.0,0.0,0.0,0.0,0.0,0.0,0.0,0.0,0.0,0.0,0.0,0.0,0.0,0.0,0.0,0.0,0.0,0.0,0.0,0.0,0.0,0.0,0.0,0.0,0.0,0.0,0.0,0.0,0.0,0.0,0.0,0.0,0.0,0.0,0.0,0.0,0.0,0.0,0.0,0.0,0.0,0.0,0.0,0.0,0.0,0.0,0.0,0.0,0.0,0.0,0.0,0.0,0.0,0.0,0.0,0.0,0.0,0.0,0.0,0.0,0.0,0.0,0.0,0.0,0.0,0.0,0.0,0.0,0.0,0.0,0.0,0.0,0.0,0.0,0.0,0.0,0.0,0.0,0.0,0.0,0.0,0.0,0.0,0.0,0.0,0.0,0.0,0.0,0.0,0.0,0.0,0.0,0.0,0.0,0.0,0.0,0.0,0.0,0.0,0.0,0.0,0.0,0.0,0.0,0.0,0.0,0.0,0.0,0.0,0.0,0.0,0.0,0.0,0.0,0.0,0.0,0.0,0.0,0.0,0.0,0.0,0.0,0.0,0.0,0.0,0.0,0.0,0.0,0.0,0.0,0.0,0.0,0.0,0.0,0.0,0.0,0.0,0.0,0.0,0.0,0.0,0.0,0.0,0.0,0.0,0.0,0.0,0.0,0.0,0.0,0.0,0.0,0.0,0.0,0.0,0.0,0.0,0.0,0.0,0.0,0.0,0.0,0.0,0.0,0.0,0.0,0.0,0.0,0.0,0.0,0.0,0.0,0.0,0.0,0.0,0.0,0.0,0.0,0.0,0.0,0.0,0.0,0.0,0.0,0.0,0.0,0.0,0.0,0.0,0.0,0.0,0.0,0.0,0.0,0.0,0.0,0.0,0.0,0.0,0.0,0.0,0.0,0.0,0.0,0.0,0.0,0.0,0.0,0.0,0.0,0.0,0.0,0.0,0.0,0.0,0.0,0.0,0.0,0.0,0.0,0.0,0.0,0.0,0.0,0.0,0.0,0.0,0.0,0.0,0.0,0.0,0.0,0.0,0.0,0.0,0.0,0.0,0.0,0.0,0.0,0.0,0.0,0.0,0.0,0.0,0.0,0.0,0.0,0.0,0.0,0.0,0.0,0.0,0.0,0.0,0.0,0.0,0.0,0.0,0.0,0.0,0.0,0.0,0.0,0.0,0.0,0.0,0.0,0.0,0.0,0.0,0.0,0.0,0.0,0.0,0.0,0.0,0.0,0.0,0.0,0.0,0.0,0.0,0.0,0.0,0.0,0.0,0.0,0.0,0.0,0.0,0.0,0.0,0.0,0.0,0.0,0.0,0.0,0.0,0.0,0.0,0.0,0.0,0.0,0.0,0.0,0.0,0.0,0.0,0.0,0.0,0.0,0.0,0.0,0.0,0.0,0.0,0.0,0.0,0.0,0.0,0.0,0.0,0.0,0.0,0.0,0.0,0.0,0.0,0.0,0.0,0.0,0.0,0.0,0.0,0.0,0.0,0.0,0.0,0.0,0.0,0.0,0.0,0.0,0.0,0.0,0.0,0.0,0.0,0.0,0.0,0.0,0.0,0.0,0.0,0.0,0.0,0.0,0.0,0.0,0.0,0.0,0.0,0.0,0.0,0.0,0.0,0.0,0.0,0.0,0.0,0.0,0.0,0.0,0.0,0.0,0.0,0.0,0.0,0.0,0.0,0.0,0.0,0.0,0.0,0.0,0.0,0.0,0.0,0.0,0.0,0.0,0.0,0.0,0.0,0.0,0.0,0.0,0.0,0.0,0.0,0.0,0.0,0.0,0.0,0.0,0.0,0.0,0.0,0.0,0.0,0.0,0.0,0.0,0.0,0.0,0.0,0.0,0.0,0.0,0.0,0.0,0.0,0.0,0.0,0.0,0.0,0.0,0.0,0.0,0.0,0.0,0.0,0.0,0.0,0.0,0.0,0.0,0.0,0.0,0.0,0.0,0.0,0.0,0.0,0.0,0.0,0.0,0.0,0.0,0.0,0.0,0.0,0.0,0.0,0.0,0.0,0.0,0.0,0.0,0.0,0.0,0.0,0.0,0.0,0.0,0.0,0.0,0.0,0.0,0.0,0.0,0.0,0.0,0.0,0.0,0.0,0.0,0.0,0.0,0.0,0.0,0.0,0.0,0.0,0.0,0.0,0.0,0.0,0.0,0.0,0.0,0.0,0.0,0.0,0.0,0.0,0.0,0.0,0.0,0.0,0.0,0.0,0.0,0.0,0.0,0.0,0.0,0.0,0.0,0.0,0.0,0.0,0.0,0.0,0.0,0.0,0.0,0.0,0.0,0.0,0.0,0.0,0.0,0.0,0.0,0.0,0.0,0.0,0.0,0.0,0.0,0.0,0.0,0.0,0.0,0.0,0.0,0.0,0.0,0.0,0.0,0.0,0.0,0.0,0.0,0.0,0.0,0.0,0.0,0.0,0.0,0.0,0.0,0.0,0.0,0.0,0.0,0.0,0.0,0.0,0.0,0.0,0.0,0.0,0.0,0.0,0.0,0.0,0.0,0.0,0.0,0.0,0.0,0.0,0.0,0.0,0.0,0.0,0.0,0.0,0.0,0.0,0.0,0.0,0.0,0.0,0.0,0.0,0.0,0.0,0.0,0.0,0.0,0.0,0.0,0.0,0.0,0.0,0.0,0.0,0.0,0.0,0.0,0.0,0.0,0.0,0.0,0.0,0.0,0.0,0.0,0.0,0.0,0.0,0.0,0.0,0.0,0.0,0.0,0.0,0.0,0.0,0.0,0.0,0.0,0.0,0.0,0.0,0.0,0.0,0.0,0.0,0.0,0.0,0.0,0.0,0.0,0.0,0.0,0.0,0.0,0.0,0.0,0.0,0.0,0.0,0.0,0.0,0.0,0.0,0.0,0.0,0.0,0.0,0.0,0.0,0.0,0.0,0.0,0.0,0.0,0.0,0.0,0.0,0.0,0.0,0.0,0.0,0.0,0.0,0.0,0.0,0.0,0.0,0.0,0.0,0.0,0.0,0.0,0.0,0.0,0.0,0.0,0.0,0.0,0.0,0.0,0.0,0.0,0.0,0.0,0.0,0.0,0.0,0.0,0.0,0.0,0.0,0.0,0.0,0.0,0.0,0.0,0.0,0.0,0.0,0.0,0.0,0.0,0.0,0.0,0.0,0.0,0.0,0.0,0.0,0.0,0.0,0.0,0.0,0.0,0.0,0.0,0.0,0.0,0.0,0.0,0.0,0.0,0.0,0.0,0.0,0.0,0.0,0.0,0.0,0.0,0.0,0.0,0.0,0.0,0.0,0.0,0.0,0.0,0.0,0.0,0.0,0.0,0.0,0.0,0.0,0.0,0.0,0.0,0.0,0.0,0.0,0.0,0.0,0.0,0.0,0.0,0.0,0.0,0.0,0.0,0.0,0.0,0.0,0.0,0.0,0.0,0.0,0.0,0.0,0.0,0.0,0.0,0.0,0.0,0.0,0.0,0.0,0.0,0.0,0.0,0.0,0.0,0.0,0.0,0.0,0.0,0.0,0.0,0.0,0.0,0.0,0.0,0.0,0.0,0.0,0.0,0.0,0.0,0.0,0.0,0.0,0.0,0.0,0.0,0.0,0.0,0.0,0.0,0.0,0.0,0.0,0.0,0.0,0.0,0.0,0.0,0.0,0.0,0.0,0.0,0.0,0.0,0.0,0.0,0.0,0.0,0.0,0.0,0.0,0.0,0.0,0.0,0.0,0.0,0.0,0.0,0.0,0.0,0.0,0.0,0.0,0.0,0.0,0.0,0.0,0.0,0.0,0.0,0.0,0.0,0.0,0.0,0.0,0.0,0.0,0.0,0.0,0.0,0.0,0.0,0.0,0.0,0.0,0.0,0.0,0.0,0.0,0.0,0.0,0.0,0.0,0.0,0.0,0.0,0.0,0.0,0.0,0.0,0.0,0.0,0.0,0.0,0.0,0.0,0.0,0.0,0.0,0.0,0.0,0.0,0.0,0.0,0.0,0.0,0.0,0.0,0.0,0.0,0.0,0.0,0.0,0.0,0.0,0.0,0.0,0.0,0.0,0.0,0.0,0.0,0.0,0.0,0.0,0.0,0.0,0.0,0.0,0.0,0.0,0.0,0.0,0.0,0.0,0.0,0.0,0.0,0.0,0.0,0.0,0.0,0.0,0.0,0.0,0.0,0.0,0.0,0.0,0.0,0.0,0.0,0.0,0.0,0.0,0.0,0.0,0.0,0.0,0.0,0.0,0.0,0.0,0.0,0.0,0.0,0.0,0.0,0.0,0.0,0.0,0.0,0.0,0.0,0.0,0.0,0.0]}]]]